Wetterdaten: Samstag, 05.08.2017
Datum Zeit Temp. A. Pool Temp. Feuchte A. Luftdruck Regen Wind Richtung Richtung Sonnenschein ET UV Solar Taupunkt Windchill Windben Empfang
05.08.2017 00:00 24,4 C 27,8 C 77 % 1013,4 hPa 0,0 l/m 3,8 km/h (1 Bft) S 181 0 min 0,000 mm 0,0 UV-I 0 W/m 20,1 C 24,4 C 6,4 km/h (2 Bft) 100,00 %
05.08.2017 00:02 24,4 C 27,8 C 77 % 1013,3 hPa 0,0 l/m 1,6 km/h (1 Bft) S 181 0 min 0,000 mm 0,0 UV-I 0 W/m 20,1 C 24,4 C 1,6 km/h (1 Bft) 12,50 %
05.08.2017 00:04 24,4 C 27,8 C 77 % 1013,3 hPa 0,0 l/m 1,6 km/h (1 Bft) S 181 0 min 0,000 mm 0,0 UV-I 0 W/m 20,1 C 24,4 C 1,6 km/h (1 Bft) 9,09 %
05.08.2017 00:06 24,4 C 27,8 C 77 % 1013,3 hPa 0,0 l/m 1,6 km/h (1 Bft) S 181 0 min 0,000 mm 0,0 UV-I 0 W/m 20,1 C 24,4 C 1,6 km/h (1 Bft) 9,09 %
05.08.2017 00:08 24,4 C 27,8 C 77 % 1013,3 hPa 0,0 l/m 1,6 km/h (1 Bft) S 181 0 min 0,000 mm 0,0 UV-I 0 W/m 20,1 C 24,4 C 1,6 km/h (1 Bft) 9,09 %
05.08.2017 00:10 24,4 C 27,8 C 77 % 1013,3 hPa 0,0 l/m 1,6 km/h (1 Bft) S 181 0 min 0,000 mm 0,0 UV-I 0 W/m 20,1 C 24,4 C 1,6 km/h (1 Bft) 9,09 %
05.08.2017 00:12 24,3 C 27,8 C 77 % 1013,4 hPa 0,0 l/m 2,5 km/h (1 Bft) S 170 0 min 0,000 mm 0,0 UV-I 0 W/m 20,0 C 24,3 C 3,2 km/h (1 Bft) 4,76 %
05.08.2017 00:14 24,3 C 27,8 C 77 % 1013,4 hPa 0,0 l/m 3,2 km/h (1 Bft) S 170 0 min 0,000 mm 0,0 UV-I 0 W/m 20,0 C 24,3 C 3,2 km/h (1 Bft) 100,00 %
05.08.2017 00:16 24,3 C 27,8 C 78 % 1013,4 hPa 0,0 l/m 4,2 km/h (1 Bft) S 170 0 min 0,000 mm 0,0 UV-I 0 W/m 20,2 C 24,3 C 8,0 km/h (2 Bft) 97,87 %
05.08.2017 00:18 24,3 C 27,8 C 78 % 1013,4 hPa 0,0 l/m 3,2 km/h (1 Bft) S 170 0 min 0,000 mm 0,0 UV-I 0 W/m 20,2 C 24,3 C 6,4 km/h (2 Bft) 100,00 %
05.08.2017 00:20 24,2 C 27,8 C 78 % 1013,4 hPa 0,0 l/m 2,7 km/h (1 Bft) S 170 0 min 0,000 mm 0,0 UV-I 0 W/m 20,1 C 24,2 C 6,4 km/h (2 Bft) 96,00 %
05.08.2017 00:22 24,2 C 27,8 C 78 % 1013,4 hPa 0,0 l/m 2,0 km/h (1 Bft) S 170 0 min 0,000 mm 0,0 UV-I 0 W/m 20,1 C 24,2 C 6,4 km/h (2 Bft) 100,00 %
05.08.2017 00:24 24,2 C 27,8 C 79 % 1013,3 hPa 0,0 l/m 1,2 km/h (1 Bft) S 170 0 min 0,000 mm 0,0 UV-I 0 W/m 20,3 C 24,2 C 3,2 km/h (1 Bft) 96,00 %
05.08.2017 00:26 24,1 C 27,8 C 79 % 1013,3 hPa 0,0 l/m 1,2 km/h (1 Bft) S 170 0 min 0,000 mm 0,0 UV-I 0 W/m 20,2 C 24,1 C 6,4 km/h (2 Bft) 93,62 %
05.08.2017 00:28 24,1 C 27,8 C 79 % 1013,3 hPa 0,0 l/m 2,3 km/h (1 Bft) S 170 0 min 0,000 mm 0,0 UV-I 0 W/m 20,2 C 24,1 C 3,2 km/h (1 Bft) 97,37 %
05.08.2017 00:30 24,1 C 27,8 C 79 % 1013,3 hPa 0,0 l/m 3,5 km/h (1 Bft) S 170 0 min 0,000 mm 0,0 UV-I 0 W/m 20,2 C 24,1 C 6,4 km/h (2 Bft) 100,00 %
05.08.2017 00:32 24,0 C 27,8 C 79 % 1013,4 hPa 0,0 l/m 1,9 km/h (1 Bft) S 170 0 min 0,000 mm 0,0 UV-I 0 W/m 20,1 C 24,0 C 3,2 km/h (1 Bft) 95,74 %
05.08.2017 00:34 24,0 C 27,8 C 79 % 1013,4 hPa 0,0 l/m 3,3 km/h (1 Bft) S 170 0 min 0,000 mm 0,0 UV-I 0 W/m 20,1 C 24,0 C 6,4 km/h (2 Bft) 100,00 %
05.08.2017 00:36 23,9 C 27,8 C 80 % 1013,4 hPa 0,0 l/m 3,9 km/h (1 Bft) S 170 0 min 0,000 mm 0,0 UV-I 0 W/m 20,2 C 23,9 C 8,0 km/h (2 Bft) 95,74 %
05.08.2017 00:38 23,9 C 27,8 C 80 % 1013,4 hPa 0,0 l/m 3,3 km/h (1 Bft) S 170 0 min 0,000 mm 0,0 UV-I 0 W/m 20,2 C 23,9 C 6,4 km/h (2 Bft) 96,00 %
05.08.2017 00:40 23,8 C 27,8 C 80 % 1013,5 hPa 0,0 l/m 2,9 km/h (1 Bft) S 170 0 min 0,000 mm 0,0 UV-I 0 W/m 20,1 C 23,8 C 6,4 km/h (2 Bft) 95,74 %
05.08.2017 00:42 23,8 C 27,8 C 81 % 1013,5 hPa 0,0 l/m 2,9 km/h (1 Bft) S 170 0 min 0,000 mm 0,0 UV-I 0 W/m 20,3 C 23,8 C 6,4 km/h (2 Bft) 100,00 %
05.08.2017 00:44 23,8 C 27,8 C 81 % 1013,5 hPa 0,0 l/m 4,3 km/h (1 Bft) S 170 0 min 0,000 mm 0,0 UV-I 0 W/m 20,3 C 23,8 C 6,4 km/h (2 Bft) 93,75 %
05.08.2017 00:46 23,7 C 27,8 C 81 % 1013,5 hPa 0,0 l/m 3,5 km/h (1 Bft) S 173 0 min 0,000 mm 0,0 UV-I 0 W/m 20,2 C 23,7 C 6,4 km/h (2 Bft) 91,49 %
05.08.2017 00:48 23,7 C 27,8 C 81 % 1013,5 hPa 0,0 l/m 4,1 km/h (1 Bft) W 271 0 min 0,000 mm 0,0 UV-I 0 W/m 20,2 C 23,7 C 6,4 km/h (2 Bft) 100,00 %
05.08.2017 00:50 23,6 C 27,8 C 80 % 1013,5 hPa 0,0 l/m 6,2 km/h (2 Bft) W-SW 251 0 min 0,000 mm 0,0 UV-I 0 W/m 19,9 C 23,6 C 14,5 km/h (3 Bft) 97,87 %
05.08.2017 00:52 23,7 C 27,8 C 79 % 1013,5 hPa 0,0 l/m 4,0 km/h (1 Bft) W-SW 251 0 min 0,000 mm 0,0 UV-I 0 W/m 19,8 C 23,7 C 6,4 km/h (2 Bft) 95,74 %
05.08.2017 00:54 23,7 C 27,8 C 79 % 1013,5 hPa 0,0 l/m 4,9 km/h (1 Bft) W-SW 250 0 min 0,000 mm 0,0 UV-I 0 W/m 19,8 C 23,7 C 8,0 km/h (2 Bft) 97,87 %
05.08.2017 00:56 23,7 C 27,8 C 78 % 1013,5 hPa 0,0 l/m 4,2 km/h (1 Bft) W-SW 249 0 min 0,000 mm 0,0 UV-I 0 W/m 19,6 C 23,7 C 6,4 km/h (2 Bft) 93,62 %
05.08.2017 00:58 23,8 C 27,8 C 78 % 1013,5 hPa 0,0 l/m 4,6 km/h (1 Bft) W 263 0 min 0,000 mm 0,0 UV-I 0 W/m 19,7 C 23,8 C 6,4 km/h (2 Bft) 97,87 %
05.08.2017 01:00 23,8 C 27,8 C 78 % 1013,5 hPa 0,0 l/m 3,0 km/h (1 Bft) W 263 0 min 0,025 mm 0,0 UV-I 0 W/m 19,7 C 23,8 C 4,8 km/h (1 Bft) 95,74 %
05.08.2017 01:02 23,8 C 27,8 C 78 % 1013,5 hPa 0,0 l/m 3,5 km/h (1 Bft) W 263 0 min 0,000 mm 0,0 UV-I 0 W/m 19,7 C 23,8 C 4,8 km/h (1 Bft) 93,62 %
05.08.2017 01:04 23,8 C 27,8 C 77 % 1013,4 hPa 0,0 l/m 3,2 km/h (1 Bft) W 263 0 min 0,000 mm 0,0 UV-I 0 W/m 19,5 C 23,8 C 4,8 km/h (1 Bft) 97,87 %
05.08.2017 01:06 23,8 C 27,8 C 76 % 1013,4 hPa 0,0 l/m 4,0 km/h (1 Bft) W-SW 246 0 min 0,000 mm 0,0 UV-I 0 W/m 19,3 C 23,8 C 6,4 km/h (2 Bft) 97,87 %
05.08.2017 01:08 23,8 C 27,8 C 75 % 1013,4 hPa 0,0 l/m 5,1 km/h (1 Bft) W-SW 257 0 min 0,000 mm 0,0 UV-I 0 W/m 19,1 C 23,8 C 8,0 km/h (2 Bft) 93,62 %
05.08.2017 01:10 23,8 C 27,8 C 75 % 1013,4 hPa 0,0 l/m 4,1 km/h (1 Bft) W-SW 252 0 min 0,000 mm 0,0 UV-I 0 W/m 19,1 C 23,8 C 6,4 km/h (2 Bft) 97,87 %
05.08.2017 01:12 23,8 C 27,8 C 74 % 1013,4 hPa 0,0 l/m 3,6 km/h (1 Bft) W-SW 251 0 min 0,000 mm 0,0 UV-I 0 W/m 18,9 C 23,8 C 6,4 km/h (2 Bft) 89,36 %
05.08.2017 01:14 23,8 C 27,8 C 74 % 1013,4 hPa 0,0 l/m 2,4 km/h (1 Bft) W-SW 251 0 min 0,000 mm 0,0 UV-I 0 W/m 18,9 C 23,8 C 4,8 km/h (1 Bft) 95,74 %
05.08.2017 01:16 23,8 C 27,8 C 73 % 1013,4 hPa 0,0 l/m 2,2 km/h (1 Bft) W-SW 251 0 min 0,000 mm 0,0 UV-I 0 W/m 18,7 C 23,8 C 3,2 km/h (1 Bft) 93,62 %
05.08.2017 01:18 23,8 C 27,8 C 73 % 1013,4 hPa 0,0 l/m 2,4 km/h (1 Bft) W-SW 251 0 min 0,000 mm 0,0 UV-I 0 W/m 18,7 C 23,8 C 4,8 km/h (1 Bft) 95,74 %
05.08.2017 01:20 23,8 C 27,8 C 73 % 1013,4 hPa 0,0 l/m 2,3 km/h (1 Bft) W-SW 251 0 min 0,000 mm 0,0 UV-I 0 W/m 18,7 C 23,8 C 3,2 km/h (1 Bft) 94,87 %
05.08.2017 01:22 23,8 C 27,8 C 74 % 1013,4 hPa 0,0 l/m 1,8 km/h (1 Bft) W-SW 251 0 min 0,000 mm 0,0 UV-I 0 W/m 18,9 C 23,8 C 3,2 km/h (1 Bft) 95,74 %
05.08.2017 01:24 23,8 C 27,8 C 74 % 1013,4 hPa 0,0 l/m 1,8 km/h (1 Bft) W-SW 252 0 min 0,000 mm 0,0 UV-I 0 W/m 18,9 C 23,8 C 4,8 km/h (1 Bft) 96,00 %
05.08.2017 01:26 23,8 C 27,8 C 73 % 1013,4 hPa 0,0 l/m 3,8 km/h (1 Bft) W-SW 252 0 min 0,000 mm 0,0 UV-I 0 W/m 18,7 C 23,8 C 6,4 km/h (2 Bft) 97,14 %
05.08.2017 01:28 23,8 C 27,8 C 71 % 1013,3 hPa 0,0 l/m 3,2 km/h (1 Bft) W 278 0 min 0,000 mm 0,0 UV-I 0 W/m 18,2 C 23,8 C 4,8 km/h (1 Bft) 98,39 %
05.08.2017 01:30 23,7 C 27,8 C 70 % 1013,4 hPa 0,0 l/m 3,4 km/h (1 Bft) W 278 0 min 0,000 mm 0,0 UV-I 0 W/m 17,9 C 23,7 C 6,4 km/h (2 Bft) 100,00 %
05.08.2017 01:32 23,7 C 27,8 C 70 % 1013,4 hPa 0,0 l/m 1,7 km/h (1 Bft) W 278 0 min 0,000 mm 0,0 UV-I 0 W/m 17,9 C 23,7 C 3,2 km/h (1 Bft) 97,87 %
05.08.2017 01:34 23,7 C 27,8 C 70 % 1013,5 hPa 0,0 l/m 2,7 km/h (1 Bft) W 278 0 min 0,000 mm 0,0 UV-I 0 W/m 17,9 C 23,7 C 4,8 km/h (1 Bft) 100,00 %
05.08.2017 01:36 23,7 C 27,8 C 69 % 1013,5 hPa 0,0 l/m 4,0 km/h (1 Bft) W 265 0 min 0,000 mm 0,0 UV-I 0 W/m 17,7 C 23,7 C 6,4 km/h (2 Bft) 97,37 %
05.08.2017 01:38 23,6 C 27,8 C 69 % 1013,5 hPa 0,0 l/m 4,7 km/h (1 Bft) W 268 0 min 0,000 mm 0,0 UV-I 0 W/m 17,6 C 23,6 C 11,3 km/h (2 Bft) 97,87 %
05.08.2017 01:40 23,6 C 27,8 C 68 % 1013,5 hPa 0,0 l/m 4,0 km/h (1 Bft) W 266 0 min 0,000 mm 0,0 UV-I 0 W/m 17,3 C 23,6 C 6,4 km/h (2 Bft) 93,62 %
05.08.2017 01:42 23,6 C 27,8 C 69 % 1013,4 hPa 0,0 l/m 4,5 km/h (1 Bft) W 265 0 min 0,000 mm 0,0 UV-I 0 W/m 17,6 C 23,6 C 6,4 km/h (2 Bft) 91,49 %
05.08.2017 01:44 23,5 C 27,8 C 69 % 1013,4 hPa 0,0 l/m 4,5 km/h (1 Bft) W 268 0 min 0,000 mm 0,0 UV-I 0 W/m 17,5 C 23,5 C 6,4 km/h (2 Bft) 97,87 %
05.08.2017 01:46 23,5 C 27,8 C 69 % 1013,5 hPa 0,0 l/m 3,4 km/h (1 Bft) W 268 0 min 0,000 mm 0,0 UV-I 0 W/m 17,5 C 23,5 C 4,8 km/h (1 Bft) 97,87 %
05.08.2017 01:48 23,4 C 27,8 C 69 % 1013,5 hPa 0,0 l/m 3,4 km/h (1 Bft) W 268 0 min 0,000 mm 0,0 UV-I 0 W/m 17,4 C 23,4 C 6,4 km/h (2 Bft) 93,62 %
05.08.2017 01:50 23,4 C 27,8 C 69 % 1013,5 hPa 0,0 l/m 5,7 km/h (1 Bft) W-SW 246 0 min 0,000 mm 0,0 UV-I 0 W/m 17,4 C 23,4 C 11,3 km/h (2 Bft) 93,62 %
05.08.2017 01:52 23,3 C 27,8 C 69 % 1013,6 hPa 0,0 l/m 5,1 km/h (1 Bft) W-SW 247 0 min 0,000 mm 0,0 UV-I 0 W/m 17,3 C 23,3 C 8,0 km/h (2 Bft) 97,87 %
05.08.2017 01:54 23,3 C 27,8 C 69 % 1013,6 hPa 0,0 l/m 4,6 km/h (1 Bft) W-SW 248 0 min 0,000 mm 0,0 UV-I 0 W/m 17,3 C 23,3 C 8,0 km/h (2 Bft) 95,74 %
05.08.2017 01:56 23,3 C 27,8 C 69 % 1013,5 hPa 0,0 l/m 5,8 km/h (2 Bft) W-SW 245 0 min 0,000 mm 0,0 UV-I 0 W/m 17,3 C 23,3 C 8,0 km/h (2 Bft) 97,87 %
05.08.2017 01:58 23,2 C 27,8 C 69 % 1013,5 hPa 0,0 l/m 5,1 km/h (1 Bft) W-SW 248 0 min 0,000 mm 0,0 UV-I 0 W/m 17,2 C 23,2 C 8,0 km/h (2 Bft) 95,83 %
05.08.2017 02:00 23,2 C 27,8 C 69 % 1013,5 hPa 0,0 l/m 4,7 km/h (1 Bft) W-SW 248 0 min 0,026 mm 0,0 UV-I 0 W/m 17,2 C 23,2 C 8,0 km/h (2 Bft) 93,62 %
05.08.2017 02:02 23,1 C 27,8 C 69 % 1013,5 hPa 0,0 l/m 4,5 km/h (1 Bft) W-SW 248 0 min 0,000 mm 0,0 UV-I 0 W/m 17,1 C 23,1 C 6,4 km/h (2 Bft) 95,74 %
05.08.2017 02:04 23,1 C 27,8 C 69 % 1013,4 hPa 0,0 l/m 5,1 km/h (1 Bft) W-SW 248 0 min 0,000 mm 0,0 UV-I 0 W/m 17,1 C 23,1 C 8,0 km/h (2 Bft) 96,00 %
05.08.2017 02:06 22,9 C 27,8 C 69 % 1013,4 hPa 0,0 l/m 5,3 km/h (1 Bft) W-SW 250 0 min 0,000 mm 0,0 UV-I 0 W/m 16,9 C 22,9 C 8,0 km/h (2 Bft) 92,68 %
05.08.2017 02:08 22,9 C 27,8 C 69 % 1013,5 hPa 0,0 l/m 7,2 km/h (2 Bft) W-SW 258 0 min 0,000 mm 0,0 UV-I 0 W/m 16,9 C 22,6 C 11,3 km/h (2 Bft) 95,74 %
05.08.2017 02:10 22,8 C 27,8 C 68 % 1013,4 hPa 0,0 l/m 5,5 km/h (1 Bft) W-SW 249 0 min 0,000 mm 0,0 UV-I 0 W/m 16,6 C 22,8 C 8,0 km/h (2 Bft) 95,74 %
05.08.2017 02:12 22,8 C 27,8 C 69 % 1013,4 hPa 0,0 l/m 4,5 km/h (1 Bft) W-SW 248 0 min 0,000 mm 0,0 UV-I 0 W/m 16,8 C 22,8 C 6,4 km/h (2 Bft) 91,49 %
05.08.2017 02:14 22,8 C 27,8 C 68 % 1013,4 hPa 0,0 l/m 5,3 km/h (1 Bft) W-SW 249 0 min 0,000 mm 0,0 UV-I 0 W/m 16,6 C 22,8 C 6,4 km/h (2 Bft) 98,00 %
05.08.2017 02:16 22,7 C 27,8 C 69 % 1013,5 hPa 0,0 l/m 5,5 km/h (1 Bft) W-SW 249 0 min 0,000 mm 0,0 UV-I 0 W/m 16,7 C 22,7 C 8,0 km/h (2 Bft) 95,74 %
05.08.2017 02:18 22,7 C 27,8 C 69 % 1013,3 hPa 0,0 l/m 4,4 km/h (1 Bft) W-SW 249 0 min 0,000 mm 0,0 UV-I 0 W/m 16,7 C 22,7 C 6,4 km/h (2 Bft) 93,62 %
05.08.2017 02:20 22,6 C 27,8 C 69 % 1013,4 hPa 0,0 l/m 4,2 km/h (1 Bft) W-SW 249 0 min 0,000 mm 0,0 UV-I 0 W/m 16,6 C 22,6 C 6,4 km/h (2 Bft) 97,87 %
05.08.2017 02:22 22,6 C 27,8 C 69 % 1013,4 hPa 0,0 l/m 4,4 km/h (1 Bft) W-SW 257 0 min 0,000 mm 0,0 UV-I 0 W/m 16,6 C 22,6 C 6,4 km/h (2 Bft) 94,00 %
05.08.2017 02:24 22,6 C 27,8 C 70 % 1013,3 hPa 0,0 l/m 4,0 km/h (1 Bft) W-SW 257 0 min 0,000 mm 0,0 UV-I 0 W/m 16,8 C 22,6 C 4,8 km/h (1 Bft) 97,87 %
05.08.2017 02:26 22,5 C 27,8 C 69 % 1013,4 hPa 0,0 l/m 6,0 km/h (2 Bft) W 260 0 min 0,000 mm 0,0 UV-I 0 W/m 16,5 C 22,5 C 9,7 km/h (2 Bft) 92,68 %
05.08.2017 02:28 22,5 C 27,8 C 69 % 1013,4 hPa 0,0 l/m 5,4 km/h (1 Bft) W-SW 258 0 min 0,000 mm 0,0 UV-I 0 W/m 16,5 C 22,5 C 9,7 km/h (2 Bft) 98,00 %
05.08.2017 02:30 22,5 C 27,8 C 68 % 1013,4 hPa 0,0 l/m 5,9 km/h (2 Bft) W 273 0 min 0,000 mm 0,0 UV-I 0 W/m 16,3 C 22,5 C 14,5 km/h (3 Bft) 95,74 %
05.08.2017 02:32 22,5 C 27,8 C 68 % 1013,4 hPa 0,0 l/m 6,5 km/h (2 Bft) W 261 0 min 0,000 mm 0,0 UV-I 0 W/m 16,3 C 22,5 C 12,9 km/h (3 Bft) 95,74 %
05.08.2017 02:34 22,4 C 27,8 C 68 % 1013,4 hPa 0,0 l/m 5,3 km/h (1 Bft) W 281 0 min 0,000 mm 0,0 UV-I 0 W/m 16,2 C 22,4 C 12,9 km/h (3 Bft) 97,87 %
05.08.2017 02:36 22,4 C 27,8 C 67 % 1013,4 hPa 0,0 l/m 5,5 km/h (1 Bft) W-SW 257 0 min 0,000 mm 0,0 UV-I 0 W/m 16,0 C 22,4 C 11,3 km/h (2 Bft) 95,74 %
05.08.2017 02:38 22,4 C 27,8 C 67 % 1013,5 hPa 0,0 l/m 5,6 km/h (1 Bft) W 271 0 min 0,000 mm 0,0 UV-I 0 W/m 16,0 C 22,4 C 9,7 km/h (2 Bft) 95,74 %
05.08.2017 02:40 22,4 C 27,8 C 67 % 1013,6 hPa 0,0 l/m 5,7 km/h (1 Bft) W-SW 245 0 min 0,000 mm 0,0 UV-I 0 W/m 16,0 C 22,4 C 9,7 km/h (2 Bft) 95,83 %
05.08.2017 02:42 22,4 C 27,8 C 66 % 1013,6 hPa 0,0 l/m 5,6 km/h (1 Bft) S-SW 204 0 min 0,000 mm 0,0 UV-I 0 W/m 15,7 C 22,4 C 11,3 km/h (2 Bft) 97,87 %
05.08.2017 02:44 22,4 C 27,8 C 66 % 1013,6 hPa 0,0 l/m 5,2 km/h (1 Bft) W 270 0 min 0,000 mm 0,0 UV-I 0 W/m 15,7 C 22,4 C 8,0 km/h (2 Bft) 97,87 %
05.08.2017 02:46 22,4 C 27,8 C 66 % 1013,7 hPa 0,0 l/m 5,7 km/h (1 Bft) W 262 0 min 0,000 mm 0,0 UV-I 0 W/m 15,7 C 22,4 C 11,3 km/h (2 Bft) 97,87 %
05.08.2017 02:48 22,3 C 27,8 C 67 % 1013,7 hPa 0,0 l/m 5,2 km/h (1 Bft) W 259 0 min 0,000 mm 0,0 UV-I 0 W/m 15,9 C 22,3 C 11,3 km/h (2 Bft) 100,00 %
05.08.2017 02:50 22,3 C 27,8 C 66 % 1013,8 hPa 0,0 l/m 5,1 km/h (1 Bft) W 270 0 min 0,000 mm 0,0 UV-I 0 W/m 15,6 C 22,3 C 6,4 km/h (2 Bft) 94,00 %
05.08.2017 02:52 22,3 C 27,8 C 66 % 1013,8 hPa 0,0 l/m 4,0 km/h (1 Bft) W-SW 257 0 min 0,000 mm 0,0 UV-I 0 W/m 15,6 C 22,3 C 6,4 km/h (2 Bft) 97,87 %
05.08.2017 02:54 22,3 C 27,8 C 67 % 1013,9 hPa 0,0 l/m 5,0 km/h (1 Bft) W-SW 240 0 min 0,000 mm 0,0 UV-I 0 W/m 15,9 C 22,3 C 11,3 km/h (2 Bft) 95,74 %
05.08.2017 02:56 22,3 C 27,8 C 66 % 1013,8 hPa 0,0 l/m 5,6 km/h (1 Bft) W 259 0 min 0,000 mm 0,0 UV-I 0 W/m 15,6 C 22,3 C 11,3 km/h (2 Bft) 93,62 %
05.08.2017 02:58 22,3 C 27,8 C 66 % 1013,8 hPa 0,0 l/m 5,5 km/h (1 Bft) W-SW 256 0 min 0,000 mm 0,0 UV-I 0 W/m 15,6 C 22,3 C 9,7 km/h (2 Bft) 95,74 %
05.08.2017 03:00 22,3 C 27,8 C 67 % 1013,9 hPa 0,0 l/m 5,1 km/h (1 Bft) W-SW 242 0 min 0,025 mm 0,0 UV-I 0 W/m 15,9 C 22,3 C 8,0 km/h (2 Bft) 95,74 %
05.08.2017 03:02 22,3 C 27,8 C 67 % 1013,9 hPa 0,0 l/m 4,6 km/h (1 Bft) W-SW 242 0 min 0,000 mm 0,0 UV-I 0 W/m 15,9 C 22,3 C 8,0 km/h (2 Bft) 97,87 %
05.08.2017 03:04 22,2 C 27,8 C 67 % 1013,8 hPa 0,0 l/m 3,4 km/h (1 Bft) W-SW 242 0 min 0,000 mm 0,0 UV-I 0 W/m 15,8 C 22,2 C 6,4 km/h (2 Bft) 94,00 %
05.08.2017 03:06 22,2 C 27,8 C 67 % 1013,8 hPa 0,0 l/m 3,3 km/h (1 Bft) W-SW 242 0 min 0,000 mm 0,0 UV-I 0 W/m 15,8 C 22,2 C 4,8 km/h (1 Bft) 95,74 %
05.08.2017 03:08 22,2 C 27,8 C 67 % 1013,8 hPa 0,0 l/m 4,3 km/h (1 Bft) W-SW 242 0 min 0,000 mm 0,0 UV-I 0 W/m 15,8 C 22,2 C 6,4 km/h (2 Bft) 97,83 %
05.08.2017 03:10 22,2 C 27,8 C 67 % 1013,8 hPa 0,0 l/m 5,2 km/h (1 Bft) W-SW 247 0 min 0,000 mm 0,0 UV-I 0 W/m 15,8 C 22,2 C 6,4 km/h (2 Bft) 95,74 %
05.08.2017 03:12 22,1 C 27,8 C 68 % 1013,8 hPa 0,0 l/m 4,3 km/h (1 Bft) W-SW 253 0 min 0,000 mm 0,0 UV-I 0 W/m 15,9 C 22,1 C 6,4 km/h (2 Bft) 97,87 %
05.08.2017 03:14 22,1 C 27,8 C 68 % 1013,9 hPa 0,0 l/m 4,4 km/h (1 Bft) W-SW 253 0 min 0,000 mm 0,0 UV-I 0 W/m 15,9 C 22,1 C 6,4 km/h (2 Bft) 94,00 %
05.08.2017 03:16 22,0 C 27,8 C 68 % 1013,9 hPa 0,0 l/m 3,7 km/h (1 Bft) W-SW 253 0 min 0,000 mm 0,0 UV-I 0 W/m 15,8 C 22,0 C 4,8 km/h (1 Bft) 97,87 %
05.08.2017 03:18 22,0 C 27,8 C 68 % 1014,0 hPa 0,0 l/m 3,7 km/h (1 Bft) W-SW 252 0 min 0,000 mm 0,0 UV-I 0 W/m 15,8 C 22,0 C 6,4 km/h (2 Bft) 93,62 %
05.08.2017 03:20 21,9 C 27,8 C 68 % 1014,0 hPa 0,0 l/m 4,3 km/h (1 Bft) W-SW 252 0 min 0,000 mm 0,0 UV-I 0 W/m 15,7 C 21,9 C 6,4 km/h (2 Bft) 95,83 %
05.08.2017 03:22 21,9 C 27,8 C 68 % 1014,0 hPa 0,0 l/m 4,6 km/h (1 Bft) W-SW 252 0 min 0,000 mm 0,0 UV-I 0 W/m 15,7 C 21,9 C 6,4 km/h (2 Bft) 94,74 %
05.08.2017 03:24 21,9 C 27,8 C 68 % 1014,0 hPa 0,0 l/m 3,8 km/h (1 Bft) W-SW 252 0 min 0,000 mm 0,0 UV-I 0 W/m 15,7 C 21,9 C 6,4 km/h (2 Bft) 100,00 %
05.08.2017 03:26 21,9 C 27,8 C 68 % 1013,9 hPa 0,0 l/m 3,5 km/h (1 Bft) W-SW 252 0 min 0,000 mm 0,0 UV-I 0 W/m 15,7 C 21,9 C 4,8 km/h (1 Bft) 95,74 %
05.08.2017 03:28 21,9 C 27,8 C 68 % 1013,9 hPa 0,0 l/m 3,5 km/h (1 Bft) W-SW 252 0 min 0,000 mm 0,0 UV-I 0 W/m 15,7 C 21,9 C 4,8 km/h (1 Bft) 100,00 %
05.08.2017 03:30 21,9 C 27,8 C 68 % 1013,9 hPa 0,0 l/m 3,2 km/h (1 Bft) W-SW 252 0 min 0,000 mm 0,0 UV-I 0 W/m 15,7 C 21,9 C 4,8 km/h (1 Bft) 97,87 %
05.08.2017 03:32 21,9 C 27,8 C 68 % 1014,0 hPa 0,0 l/m 3,3 km/h (1 Bft) W-SW 252 0 min 0,000 mm 0,0 UV-I 0 W/m 15,7 C 21,9 C 4,8 km/h (1 Bft) 91,49 %
05.08.2017 03:34 21,9 C 27,2 C 67 % 1013,9 hPa 0,0 l/m 2,8 km/h (1 Bft) W-SW 252 0 min 0,000 mm 0,0 UV-I 0 W/m 15,5 C 21,9 C 4,8 km/h (1 Bft) 100,00 %
05.08.2017 03:36 21,8 C 27,2 C 68 % 1014,0 hPa 0,0 l/m 2,9 km/h (1 Bft) W-SW 252 0 min 0,000 mm 0,0 UV-I 0 W/m 15,6 C 21,8 C 4,8 km/h (1 Bft) 94,29 %
05.08.2017 03:38 21,8 C 27,2 C 67 % 1013,9 hPa 0,0 l/m 2,4 km/h (1 Bft) W-SW 252 0 min 0,000 mm 0,0 UV-I 0 W/m 15,4 C 21,8 C 4,8 km/h (1 Bft) 96,77 %
05.08.2017 03:40 21,8 C 27,2 C 67 % 1013,9 hPa 0,0 l/m 2,6 km/h (1 Bft) W-SW 252 0 min 0,000 mm 0,0 UV-I 0 W/m 15,4 C 21,8 C 4,8 km/h (1 Bft) 97,87 %
05.08.2017 03:42 21,8 C 27,2 C 67 % 1013,9 hPa 0,0 l/m 3,8 km/h (1 Bft) W-SW 252 0 min 0,000 mm 0,0 UV-I 0 W/m 15,4 C 21,8 C 6,4 km/h (2 Bft) 97,87 %
05.08.2017 03:44 21,8 C 27,2 C 68 % 1013,8 hPa 0,0 l/m 3,1 km/h (1 Bft) W-SW 252 0 min 0,000 mm 0,0 UV-I 0 W/m 15,6 C 21,8 C 4,8 km/h (1 Bft) 100,00 %
05.08.2017 03:46 21,8 C 27,2 C 68 % 1013,9 hPa 0,0 l/m 4,9 km/h (1 Bft) W-SW 240 0 min 0,000 mm 0,0 UV-I 0 W/m 15,6 C 21,8 C 6,4 km/h (2 Bft) 98,00 %
05.08.2017 03:48 21,8 C 27,2 C 68 % 1013,8 hPa 0,0 l/m 4,9 km/h (1 Bft) W-SW 241 0 min 0,000 mm 0,0 UV-I 0 W/m 15,6 C 21,8 C 6,4 km/h (2 Bft) 97,37 %
05.08.2017 03:50 21,7 C 27,2 C 68 % 1013,9 hPa 0,0 l/m 4,8 km/h (1 Bft) W-SW 247 0 min 0,000 mm 0,0 UV-I 0 W/m 15,5 C 21,7 C 6,4 km/h (2 Bft) 97,92 %
05.08.2017 03:52 21,7 C 27,2 C 68 % 1013,8 hPa 0,0 l/m 5,0 km/h (1 Bft) W-SW 247 0 min 0,000 mm 0,0 UV-I 0 W/m 15,5 C 21,7 C 8,0 km/h (2 Bft) 97,87 %
05.08.2017 03:54 21,7 C 27,2 C 68 % 1013,9 hPa 0,0 l/m 4,6 km/h (1 Bft) SW 236 0 min 0,000 mm 0,0 UV-I 0 W/m 15,5 C 21,7 C 6,4 km/h (2 Bft) 97,92 %
05.08.2017 03:56 21,7 C 27,2 C 69 % 1013,9 hPa 0,0 l/m 5,2 km/h (1 Bft) SW 227 0 min 0,000 mm 0,0 UV-I 0 W/m 15,8 C 21,7 C 6,4 km/h (2 Bft) 97,87 %
05.08.2017 03:58 21,6 C 27,2 C 69 % 1013,9 hPa 0,0 l/m 6,1 km/h (2 Bft) SW 233 0 min 0,000 mm 0,0 UV-I 0 W/m 15,7 C 21,6 C 8,0 km/h (2 Bft) 100,00 %
05.08.2017 04:00 21,6 C 27,2 C 69 % 1013,9 hPa 0,0 l/m 5,6 km/h (1 Bft) SW 234 0 min 0,026 mm 0,0 UV-I 0 W/m 15,7 C 21,6 C 8,0 km/h (2 Bft) 97,87 %
05.08.2017 04:02 21,6 C 27,2 C 69 % 1013,9 hPa 0,0 l/m 6,1 km/h (2 Bft) SW 221 0 min 0,000 mm 0,0 UV-I 0 W/m 15,7 C 21,6 C 8,0 km/h (2 Bft) 94,44 %
05.08.2017 04:04 21,6 C 27,2 C 69 % 1014,0 hPa 0,0 l/m 5,2 km/h (1 Bft) W-SW 240 0 min 0,000 mm 0,0 UV-I 0 W/m 15,7 C 21,6 C 8,0 km/h (2 Bft) 100,00 %
05.08.2017 04:06 21,6 C 27,2 C 69 % 1014,0 hPa 0,0 l/m 6,2 km/h (2 Bft) SW 235 0 min 0,000 mm 0,0 UV-I 0 W/m 15,7 C 21,6 C 11,3 km/h (2 Bft) 97,87 %
05.08.2017 04:08 21,5 C 27,2 C 69 % 1014,0 hPa 0,0 l/m 6,1 km/h (2 Bft) W-SW 252 0 min 0,000 mm 0,0 UV-I 0 W/m 15,6 C 21,5 C 9,7 km/h (2 Bft) 97,87 %
05.08.2017 04:10 21,5 C 27,2 C 70 % 1014,0 hPa 0,0 l/m 6,0 km/h (2 Bft) W-SW 240 0 min 0,000 mm 0,0 UV-I 0 W/m 15,8 C 21,5 C 8,0 km/h (2 Bft) 100,00 %
05.08.2017 04:12 21,4 C 27,2 C 70 % 1014,0 hPa 0,0 l/m 6,0 km/h (2 Bft) SW 219 0 min 0,000 mm 0,0 UV-I 0 W/m 15,7 C 21,4 C 9,7 km/h (2 Bft) 95,74 %
05.08.2017 04:14 21,4 C 27,2 C 70 % 1014,0 hPa 0,0 l/m 6,8 km/h (2 Bft) SW 231 0 min 0,000 mm 0,0 UV-I 0 W/m 15,7 C 21,3 C 8,0 km/h (2 Bft) 100,00 %
05.08.2017 04:16 21,4 C 27,2 C 71 % 1014,1 hPa 0,0 l/m 7,1 km/h (2 Bft) SW 235 0 min 0,000 mm 0,0 UV-I 0 W/m 15,9 C 21,1 C 11,3 km/h (2 Bft) 95,74 %
05.08.2017 04:18 21,4 C 27,2 C 70 % 1014,1 hPa 0,0 l/m 7,0 km/h (2 Bft) SW 229 0 min 0,000 mm 0,0 UV-I 0 W/m 15,7 C 21,2 C 11,3 km/h (2 Bft) 100,00 %
05.08.2017 04:20 21,4 C 27,2 C 70 % 1014,1 hPa 0,0 l/m 5,2 km/h (1 Bft) W-SW 239 0 min 0,000 mm 0,0 UV-I 0 W/m 15,7 C 21,4 C 8,0 km/h (2 Bft) 98,00 %
05.08.2017 04:22 21,4 C 27,2 C 70 % 1014,0 hPa 0,0 l/m 5,0 km/h (1 Bft) SW 227 0 min 0,000 mm 0,0 UV-I 0 W/m 15,7 C 21,4 C 8,0 km/h (2 Bft) 97,87 %
05.08.2017 04:24 21,4 C 27,2 C 70 % 1014,1 hPa 0,0 l/m 5,2 km/h (1 Bft) W-SW 245 0 min 0,000 mm 0,0 UV-I 0 W/m 15,7 C 21,4 C 8,0 km/h (2 Bft) 100,00 %
05.08.2017 04:26 21,4 C 27,2 C 70 % 1014,0 hPa 0,0 l/m 6,2 km/h (2 Bft) W-SW 249 0 min 0,000 mm 0,0 UV-I 0 W/m 15,7 C 21,4 C 9,7 km/h (2 Bft) 95,74 %
05.08.2017 04:28 21,4 C 27,2 C 69 % 1014,0 hPa 0,0 l/m 6,6 km/h (2 Bft) SW 229 0 min 0,000 mm 0,0 UV-I 0 W/m 15,5 C 21,3 C 11,3 km/h (2 Bft) 97,87 %
05.08.2017 04:30 21,4 C 27,2 C 68 % 1014,0 hPa 0,0 l/m 6,7 km/h (2 Bft) SW 219 0 min 0,000 mm 0,0 UV-I 0 W/m 15,2 C 21,3 C 9,7 km/h (2 Bft) 98,00 %
05.08.2017 04:32 21,5 C 27,2 C 68 % 1014,0 hPa 0,0 l/m 6,0 km/h (2 Bft) W-SW 252 0 min 0,000 mm 0,0 UV-I 0 W/m 15,3 C 21,5 C 11,3 km/h (2 Bft) 97,87 %
05.08.2017 04:34 21,5 C 27,2 C 67 % 1014,0 hPa 0,0 l/m 5,4 km/h (1 Bft) W-SW 244 0 min 0,000 mm 0,0 UV-I 0 W/m 15,1 C 21,5 C 8,0 km/h (2 Bft) 97,87 %
05.08.2017 04:36 21,6 C 27,2 C 68 % 1014,0 hPa 0,0 l/m 7,2 km/h (2 Bft) SW 228 0 min 0,000 mm 0,0 UV-I 0 W/m 15,4 C 21,3 C 11,3 km/h (2 Bft) 97,92 %
05.08.2017 04:38 21,6 C 27,2 C 67 % 1014,0 hPa 0,0 l/m 5,4 km/h (1 Bft) SW 216 0 min 0,000 mm 0,0 UV-I 0 W/m 15,2 C 21,6 C 9,7 km/h (2 Bft) 100,00 %
05.08.2017 04:40 21,6 C 27,2 C 66 % 1013,9 hPa 0,0 l/m 6,3 km/h (2 Bft) S-SW 206 0 min 0,000 mm 0,0 UV-I 0 W/m 15,0 C 21,6 C 9,7 km/h (2 Bft) 97,87 %
05.08.2017 04:42 21,6 C 27,2 C 66 % 1013,9 hPa 0,0 l/m 7,0 km/h (2 Bft) S-SW 200 0 min 0,000 mm 0,0 UV-I 0 W/m 15,0 C 21,4 C 9,7 km/h (2 Bft) 100,00 %
05.08.2017 04:44 21,7 C 27,2 C 66 % 1013,9 hPa 0,0 l/m 2,3 km/h (1 Bft) S-SW 200 0 min 0,000 mm 0,0 UV-I 0 W/m 15,1 C 21,7 C 6,4 km/h (2 Bft) 95,74 %
05.08.2017 04:46 21,7 C 27,2 C 66 % 1013,8 hPa 0,0 l/m 2,8 km/h (1 Bft) S-SW 200 0 min 0,000 mm 0,0 UV-I 0 W/m 15,1 C 21,7 C 6,4 km/h (2 Bft) 97,37 %
05.08.2017 04:48 21,7 C 27,2 C 67 % 1013,9 hPa 0,0 l/m 2,6 km/h (1 Bft) S-SW 199 0 min 0,000 mm 0,0 UV-I 0 W/m 15,3 C 21,7 C 4,8 km/h (1 Bft) 96,00 %
05.08.2017 04:50 21,7 C 27,2 C 67 % 1013,9 hPa 0,0 l/m 4,2 km/h (1 Bft) S-SW 199 0 min 0,000 mm 0,0 UV-I 0 W/m 15,3 C 21,7 C 6,4 km/h (2 Bft) 95,74 %
05.08.2017 04:52 21,6 C 27,2 C 67 % 1013,9 hPa 0,0 l/m 3,1 km/h (1 Bft) S-SW 200 0 min 0,000 mm 0,0 UV-I 0 W/m 15,2 C 21,6 C 4,8 km/h (1 Bft) 95,74 %
05.08.2017 04:54 21,6 C 27,2 C 68 % 1013,8 hPa 0,0 l/m 5,1 km/h (1 Bft) SW 220 0 min 0,000 mm 0,0 UV-I 0 W/m 15,4 C 21,6 C 8,0 km/h (2 Bft) 95,74 %
05.08.2017 04:56 21,6 C 27,2 C 67 % 1013,9 hPa 0,0 l/m 5,2 km/h (1 Bft) SW 221 0 min 0,000 mm 0,0 UV-I 0 W/m 15,2 C 21,6 C 9,7 km/h (2 Bft) 95,74 %
05.08.2017 04:58 21,6 C 27,2 C 67 % 1013,9 hPa 0,0 l/m 6,1 km/h (2 Bft) SW 218 0 min 0,000 mm 0,0 UV-I 0 W/m 15,2 C 21,6 C 8,0 km/h (2 Bft) 92,00 %
05.08.2017 05:00 21,6 C 27,2 C 67 % 1013,9 hPa 0,0 l/m 5,8 km/h (2 Bft) SW 220 0 min 0,025 mm 0,0 UV-I 0 W/m 15,2 C 21,6 C 8,0 km/h (2 Bft) 96,00 %
05.08.2017 05:02 21,6 C 27,2 C 67 % 1013,9 hPa 0,0 l/m 4,9 km/h (1 Bft) SW 220 0 min 0,000 mm 0,0 UV-I 0 W/m 15,2 C 21,6 C 8,0 km/h (2 Bft) 97,87 %
05.08.2017 05:04 21,6 C 27,2 C 67 % 1013,9 hPa 0,0 l/m 5,3 km/h (1 Bft) SW 234 0 min 0,000 mm 0,0 UV-I 0 W/m 15,2 C 21,6 C 8,0 km/h (2 Bft) 95,74 %
05.08.2017 05:06 21,6 C 27,2 C 67 % 1013,9 hPa 0,0 l/m 4,9 km/h (1 Bft) SW 235 0 min 0,000 mm 0,0 UV-I 0 W/m 15,2 C 21,6 C 6,4 km/h (2 Bft) 95,74 %
05.08.2017 05:08 21,6 C 27,2 C 67 % 1013,9 hPa 0,0 l/m 5,1 km/h (1 Bft) SW 235 0 min 0,000 mm 0,0 UV-I 0 W/m 15,2 C 21,6 C 8,0 km/h (2 Bft) 94,74 %
05.08.2017 05:10 21,6 C 27,2 C 68 % 1013,9 hPa 0,0 l/m 5,4 km/h (1 Bft) SW 220 0 min 0,000 mm 0,0 UV-I 0 W/m 15,4 C 21,6 C 8,0 km/h (2 Bft) 97,92 %
05.08.2017 05:12 21,5 C 27,2 C 68 % 1013,9 hPa 0,0 l/m 5,3 km/h (1 Bft) SW 229 0 min 0,000 mm 0,0 UV-I 0 W/m 15,3 C 21,5 C 8,0 km/h (2 Bft) 95,74 %
05.08.2017 05:14 21,5 C 27,2 C 68 % 1013,8 hPa 0,0 l/m 4,8 km/h (1 Bft) SW 225 0 min 0,000 mm 0,0 UV-I 0 W/m 15,3 C 21,5 C 8,0 km/h (2 Bft) 97,87 %
05.08.2017 05:16 21,4 C 27,2 C 68 % 1013,8 hPa 0,0 l/m 4,7 km/h (1 Bft) SW 219 0 min 0,000 mm 0,0 UV-I 0 W/m 15,2 C 21,4 C 8,0 km/h (2 Bft) 96,00 %
05.08.2017 05:18 21,4 C 27,2 C 68 % 1013,9 hPa 0,0 l/m 4,1 km/h (1 Bft) SW 219 0 min 0,000 mm 0,0 UV-I 0 W/m 15,2 C 21,4 C 6,4 km/h (2 Bft) 97,87 %
05.08.2017 05:20 21,4 C 27,2 C 68 % 1013,9 hPa 0,0 l/m 5,6 km/h (1 Bft) SW 221 0 min 0,000 mm 0,0 UV-I 0 W/m 15,2 C 21,4 C 8,0 km/h (2 Bft) 100,00 %
05.08.2017 05:22 21,4 C 27,2 C 68 % 1013,9 hPa 0,0 l/m 5,0 km/h (1 Bft) SW 221 0 min 0,000 mm 0,0 UV-I 0 W/m 15,2 C 21,4 C 6,4 km/h (2 Bft) 97,87 %
05.08.2017 05:24 21,3 C 27,2 C 69 % 1013,9 hPa 0,0 l/m 2,8 km/h (1 Bft) SW 221 0 min 0,000 mm 0,0 UV-I 0 W/m 15,4 C 21,3 C 4,8 km/h (1 Bft) 100,00 %
05.08.2017 05:26 21,3 C 27,2 C 69 % 1013,9 hPa 0,0 l/m 3,3 km/h (1 Bft) SW 221 0 min 0,000 mm 0,0 UV-I 0 W/m 15,4 C 21,3 C 4,8 km/h (1 Bft) 97,87 %
05.08.2017 05:28 21,3 C 27,2 C 69 % 1014,0 hPa 0,0 l/m 3,1 km/h (1 Bft) SW 221 0 min 0,000 mm 0,0 UV-I 0 W/m 15,4 C 21,3 C 4,8 km/h (1 Bft) 97,37 %
05.08.2017 05:30 21,2 C 27,2 C 70 % 1014,0 hPa 0,0 l/m 4,2 km/h (1 Bft) SW 221 0 min 0,000 mm 0,0 UV-I 0 W/m 15,5 C 21,2 C 6,4 km/h (2 Bft) 95,74 %
05.08.2017 05:32 21,2 C 27,2 C 69 % 1014,0 hPa 0,0 l/m 3,5 km/h (1 Bft) SW 221 0 min 0,000 mm 0,0 UV-I 0 W/m 15,3 C 21,2 C 4,8 km/h (1 Bft) 100,00 %
05.08.2017 05:34 21,2 C 27,2 C 69 % 1014,0 hPa 0,0 l/m 2,8 km/h (1 Bft) SW 221 0 min 0,000 mm 0,0 UV-I 3 W/m 15,3 C 21,2 C 4,8 km/h (1 Bft) 98,00 %
05.08.2017 05:36 21,2 C 27,2 C 70 % 1014,0 hPa 0,0 l/m 3,1 km/h (1 Bft) SW 221 0 min 0,000 mm 0,0 UV-I 5 W/m 15,5 C 21,2 C 4,8 km/h (1 Bft) 97,92 %
05.08.2017 05:38 21,2 C 27,2 C 70 % 1014,0 hPa 0,0 l/m 2,0 km/h (1 Bft) SW 221 0 min 0,000 mm 0,0 UV-I 5 W/m 15,5 C 21,2 C 3,2 km/h (1 Bft) 98,00 %
05.08.2017 05:40 21,2 C 27,2 C 69 % 1014,0 hPa 0,0 l/m 1,3 km/h (1 Bft) SW 221 0 min 0,000 mm 0,0 UV-I 5 W/m 15,3 C 21,2 C 3,2 km/h (1 Bft) 97,87 %
05.08.2017 05:42 21,1 C 27,2 C 70 % 1014,0 hPa 0,0 l/m 0,3 km/h (0 Bft) SW 221 0 min 0,000 mm 0,0 UV-I 6 W/m 15,4 C 21,1 C 3,2 km/h (1 Bft) 95,74 %
05.08.2017 05:44 21,1 C 27,2 C 70 % 1014,0 hPa 0,0 l/m 2,8 km/h (1 Bft) SW 221 0 min 0,000 mm 0,0 UV-I 7 W/m 15,4 C 21,1 C 4,8 km/h (1 Bft) 100,00 %
05.08.2017 05:46 21,0 C 27,2 C 70 % 1014,0 hPa 0,0 l/m 2,7 km/h (1 Bft) SW 221 0 min 0,000 mm 0,0 UV-I 7 W/m 15,3 C 21,0 C 4,8 km/h (1 Bft) 91,49 %
05.08.2017 05:48 21,0 C 27,2 C 71 % 1014,0 hPa 0,0 l/m 2,6 km/h (1 Bft) SW 221 0 min 0,000 mm 0,0 UV-I 7 W/m 15,5 C 21,0 C 4,8 km/h (1 Bft) 97,87 %
05.08.2017 05:50 21,0 C 27,2 C 70 % 1014,0 hPa 0,0 l/m 1,5 km/h (1 Bft) SW 221 0 min 0,000 mm 0,0 UV-I 7 W/m 15,3 C 21,0 C 3,2 km/h (1 Bft) 93,75 %
05.08.2017 05:52 20,9 C 27,2 C 70 % 1014,0 hPa 0,0 l/m 0,6 km/h (0 Bft) SW 221 0 min 0,000 mm 0,0 UV-I 7 W/m 15,2 C 20,9 C 3,2 km/h (1 Bft) 93,62 %
05.08.2017 05:54 20,9 C 27,2 C 71 % 1014,0 hPa 0,0 l/m 2,0 km/h (1 Bft) SW 221 0 min 0,000 mm 0,0 UV-I 8 W/m 15,4 C 20,9 C 3,2 km/h (1 Bft) 98,11 %
05.08.2017 05:56 20,8 C 27,2 C 71 % 1014,0 hPa 0,0 l/m 2,2 km/h (1 Bft) SW 221 2 min 0,000 mm 0,0 UV-I 9 W/m 15,3 C 20,8 C 3,2 km/h (1 Bft) 95,92 %
05.08.2017 05:58 20,8 C 27,2 C 71 % 1014,0 hPa 0,0 l/m 2,2 km/h (1 Bft) SW 221 0 min 0,000 mm 0,0 UV-I 11 W/m 15,3 C 20,8 C 6,4 km/h (2 Bft) 97,44 %
05.08.2017 06:00 20,8 C 27,2 C 71 % 1014,0 hPa 0,0 l/m 1,9 km/h (1 Bft) SW 221 0 min 0,025 mm 0,0 UV-I 11 W/m 15,3 C 20,8 C 4,8 km/h (1 Bft) 96,00 %
05.08.2017 06:02 20,8 C 27,2 C 71 % 1014,0 hPa 0,0 l/m 2,4 km/h (1 Bft) SW 221 0 min 0,000 mm 0,0 UV-I 11 W/m 15,3 C 20,8 C 3,2 km/h (1 Bft) 93,62 %
05.08.2017 06:04 20,9 C 27,2 C 70 % 1014,0 hPa 0,0 l/m 2,6 km/h (1 Bft) SW 221 0 min 0,000 mm 0,0 UV-I 12 W/m 15,2 C 20,9 C 4,8 km/h (1 Bft) 97,87 %
05.08.2017 06:06 20,9 C 27,2 C 71 % 1014,0 hPa 0,0 l/m 3,0 km/h (1 Bft) SW 221 0 min 0,000 mm 0,0 UV-I 13 W/m 15,4 C 20,9 C 4,8 km/h (1 Bft) 93,62 %
05.08.2017 06:08 20,9 C 27,2 C 71 % 1014,0 hPa 0,0 l/m 2,6 km/h (1 Bft) SW 221 0 min 0,000 mm 0,0 UV-I 14 W/m 15,4 C 20,9 C 4,8 km/h (1 Bft) 95,74 %
05.08.2017 06:10 20,9 C 27,2 C 71 % 1014,0 hPa 0,0 l/m 0,7 km/h (0 Bft) SW 221 0 min 0,000 mm 0,0 UV-I 16 W/m 15,4 C 20,9 C 1,6 km/h (1 Bft) 96,00 %
05.08.2017 06:12 21,0 C 27,2 C 70 % 1014,0 hPa 0,0 l/m 0,6 km/h (0 Bft) SW 221 0 min 0,000 mm 0,0 UV-I 19 W/m 15,3 C 21,0 C 3,2 km/h (1 Bft) 95,74 %
05.08.2017 06:14 21,1 C 27,2 C 69 % 1014,0 hPa 0,0 l/m 1,8 km/h (1 Bft) SW 221 0 min 0,000 mm 0,0 UV-I 23 W/m 15,2 C 21,1 C 3,2 km/h (1 Bft) 97,37 %
05.08.2017 06:16 21,1 C 27,2 C 69 % 1014,0 hPa 0,0 l/m 2,5 km/h (1 Bft) SW 221 0 min 0,000 mm 0,0 UV-I 28 W/m 15,2 C 21,1 C 4,8 km/h (1 Bft) 97,83 %
05.08.2017 06:18 21,2 C 27,2 C 69 % 1013,9 hPa 0,0 l/m 1,7 km/h (1 Bft) SW 221 0 min 0,000 mm 0,0 UV-I 31 W/m 15,3 C 21,2 C 3,2 km/h (1 Bft) 97,87 %
05.08.2017 06:20 21,2 C 27,2 C 70 % 1013,9 hPa 0,0 l/m 1,1 km/h (1 Bft) SW 221 0 min 0,000 mm 0,0 UV-I 31 W/m 15,5 C 21,2 C 3,2 km/h (1 Bft) 93,62 %
05.08.2017 06:22 21,2 C 27,2 C 70 % 1013,9 hPa 0,0 l/m 1,7 km/h (1 Bft) SW 221 0 min 0,000 mm 0,0 UV-I 27 W/m 15,5 C 21,2 C 4,8 km/h (1 Bft) 98,00 %
05.08.2017 06:24 21,3 C 27,2 C 69 % 1013,9 hPa 0,0 l/m 2,8 km/h (1 Bft) SW 221 0 min 0,000 mm 0,0 UV-I 23 W/m 15,4 C 21,3 C 4,8 km/h (1 Bft) 94,00 %
05.08.2017 06:26 21,3 C 27,2 C 68 % 1013,9 hPa 0,0 l/m 2,7 km/h (1 Bft) SW 221 0 min 0,000 mm 0,0 UV-I 24 W/m 15,1 C 21,3 C 4,8 km/h (1 Bft) 96,00 %
05.08.2017 06:28 21,3 C 27,2 C 69 % 1013,9 hPa 0,0 l/m 2,3 km/h (1 Bft) SW 221 0 min 0,000 mm 0,0 UV-I 26 W/m 15,4 C 21,3 C 3,2 km/h (1 Bft) 100,00 %
05.08.2017 06:30 21,3 C 27,2 C 69 % 1013,9 hPa 0,0 l/m 2,4 km/h (1 Bft) SW 221 0 min 0,000 mm 0,0 UV-I 26 W/m 15,4 C 21,3 C 4,8 km/h (1 Bft) 94,00 %
05.08.2017 06:32 21,3 C 27,2 C 69 % 1013,9 hPa 0,0 l/m 2,0 km/h (1 Bft) SW 221 0 min 0,000 mm 0,0 UV-I 28 W/m 15,4 C 21,3 C 3,2 km/h (1 Bft) 97,92 %
05.08.2017 06:34 21,3 C 27,2 C 70 % 1013,9 hPa 0,0 l/m 2,6 km/h (1 Bft) SW 221 0 min 0,000 mm 0,0 UV-I 30 W/m 15,6 C 21,3 C 3,2 km/h (1 Bft) 97,87 %
05.08.2017 06:36 21,2 C 27,2 C 68 % 1013,9 hPa 0,0 l/m 4,0 km/h (1 Bft) SW 221 0 min 0,000 mm 0,0 UV-I 30 W/m 15,1 C 21,2 C 4,8 km/h (1 Bft) 97,87 %
05.08.2017 06:38 21,2 C 27,2 C 68 % 1013,9 hPa 0,0 l/m 5,2 km/h (1 Bft) SW 233 0 min 0,000 mm 0,0 UV-I 29 W/m 15,1 C 21,2 C 8,0 km/h (2 Bft) 89,36 %
05.08.2017 06:40 21,3 C 27,2 C 68 % 1013,9 hPa 0,0 l/m 4,1 km/h (1 Bft) SW 232 0 min 0,000 mm 0,0 UV-I 28 W/m 15,1 C 21,3 C 6,4 km/h (2 Bft) 95,74 %
05.08.2017 06:42 21,3 C 27,2 C 69 % 1013,9 hPa 0,0 l/m 3,5 km/h (1 Bft) SW 232 0 min 0,000 mm 0,0 UV-I 26 W/m 15,4 C 21,3 C 4,8 km/h (1 Bft) 91,49 %
05.08.2017 06:44 21,2 C 27,2 C 70 % 1014,0 hPa 0,0 l/m 3,3 km/h (1 Bft) SW 232 0 min 0,000 mm 0,0 UV-I 26 W/m 15,5 C 21,2 C 6,4 km/h (2 Bft) 95,74 %
05.08.2017 06:46 21,2 C 27,2 C 71 % 1014,0 hPa 0,0 l/m 4,7 km/h (1 Bft) SW 232 0 min 0,000 mm 0,0 UV-I 28 W/m 15,7 C 21,2 C 6,4 km/h (2 Bft) 91,49 %
05.08.2017 06:48 21,1 C 27,2 C 71 % 1014,0 hPa 0,0 l/m 3,4 km/h (1 Bft) SW 232 0 min 0,000 mm 0,0 UV-I 31 W/m 15,6 C 21,1 C 4,8 km/h (1 Bft) 95,74 %
05.08.2017 06:50 21,1 C 27,2 C 71 % 1014,0 hPa 0,0 l/m 3,3 km/h (1 Bft) SW 232 0 min 0,000 mm 0,0 UV-I 33 W/m 15,6 C 21,1 C 4,8 km/h (1 Bft) 97,37 %
05.08.2017 06:52 21,0 C 27,2 C 71 % 1014,0 hPa 0,0 l/m 2,8 km/h (1 Bft) SW 232 0 min 0,000 mm 0,0 UV-I 36 W/m 15,5 C 21,0 C 4,8 km/h (1 Bft) 94,00 %
05.08.2017 06:54 21,0 C 27,2 C 70 % 1013,9 hPa 0,0 l/m 2,9 km/h (1 Bft) SW 232 0 min 0,000 mm 0,0 UV-I 39 W/m 15,3 C 21,0 C 4,8 km/h (1 Bft) 93,62 %
05.08.2017 06:56 21,1 C 27,2 C 70 % 1014,0 hPa 0,0 l/m 2,8 km/h (1 Bft) SW 232 0 min 0,000 mm 0,0 UV-I 39 W/m 15,4 C 21,1 C 4,8 km/h (1 Bft) 98,00 %
05.08.2017 06:58 21,1 C 27,2 C 69 % 1014,0 hPa 0,0 l/m 2,0 km/h (1 Bft) SW 232 0 min 0,000 mm 0,0 UV-I 41 W/m 15,2 C 21,1 C 3,2 km/h (1 Bft) 96,00 %
05.08.2017 07:00 21,1 C 27,2 C 70 % 1014,0 hPa 0,0 l/m 1,1 km/h (1 Bft) SW 232 0 min 0,026 mm 0,0 UV-I 50 W/m 15,4 C 21,1 C 1,6 km/h (1 Bft) 95,74 %
05.08.2017 07:02 21,1 C 27,2 C 70 % 1014,0 hPa 0,0 l/m 0,6 km/h (0 Bft) SW 232 0 min 0,000 mm 0,0 UV-I 60 W/m 15,4 C 21,1 C 1,6 km/h (1 Bft) 97,37 %
05.08.2017 07:04 21,1 C 27,2 C 70 % 1014,0 hPa 0,0 l/m 0,0 km/h (0 Bft) SW 232 0 min 0,000 mm 0,0 UV-I 72 W/m 15,4 C 21,1 C 0,0 km/h (0 Bft) 97,87 %
05.08.2017 07:06 21,1 C 27,2 C 70 % 1014,1 hPa 0,0 l/m 0,0 km/h (0 Bft) SW 232 0 min 0,000 mm 0,0 UV-I 82 W/m 15,4 C 21,1 C 1,6 km/h (1 Bft) 93,75 %
05.08.2017 07:08 21,2 C 27,2 C 70 % 1014,0 hPa 0,0 l/m 1,8 km/h (1 Bft) SW 232 0 min 0,000 mm 0,0 UV-I 91 W/m 15,5 C 21,2 C 3,2 km/h (1 Bft) 95,74 %
05.08.2017 07:10 21,2 C 27,2 C 70 % 1014,1 hPa 0,0 l/m 2,0 km/h (1 Bft) SW 232 0 min 0,000 mm 0,0 UV-I 98 W/m 15,5 C 21,2 C 3,2 km/h (1 Bft) 92,00 %
05.08.2017 07:12 21,3 C 27,2 C 70 % 1014,1 hPa 0,0 l/m 2,9 km/h (1 Bft) SW 232 0 min 0,000 mm 0,0 UV-I 112 W/m 15,6 C 21,3 C 3,2 km/h (1 Bft) 95,74 %
05.08.2017 07:14 21,3 C 27,2 C 70 % 1014,1 hPa 0,0 l/m 2,2 km/h (1 Bft) SW 233 2 min 0,000 mm 0,0 UV-I 135 W/m 15,6 C 21,3 C 4,8 km/h (1 Bft) 98,00 %
05.08.2017 07:16 21,5 C 27,2 C 69 % 1014,1 hPa 0,0 l/m 2,7 km/h (1 Bft) SW 233 2 min 0,000 mm 0,0 UV-I 171 W/m 15,6 C 21,5 C 4,8 km/h (1 Bft) 100,00 %
05.08.2017 07:18 21,6 C 27,2 C 67 % 1014,1 hPa 0,0 l/m 1,6 km/h (1 Bft) SW 233 2 min 0,000 mm 0,0 UV-I 199 W/m 15,2 C 21,6 C 3,2 km/h (1 Bft) 100,00 %
05.08.2017 07:20 21,7 C 27,2 C 68 % 1014,1 hPa 0,0 l/m 2,5 km/h (1 Bft) SW 233 2 min 0,000 mm 0,0 UV-I 138 W/m 15,5 C 21,7 C 4,8 km/h (1 Bft) 97,87 %
05.08.2017 07:22 21,8 C 27,2 C 67 % 1014,1 hPa 0,0 l/m 2,4 km/h (1 Bft) SW 233 0 min 0,000 mm 0,0 UV-I 134 W/m 15,4 C 21,8 C 4,8 km/h (1 Bft) 100,00 %
05.08.2017 07:24 21,8 C 27,2 C 67 % 1014,1 hPa 0,0 l/m 1,0 km/h (0 Bft) SW 233 2 min 0,000 mm 0,0 UV-I 154 W/m 15,4 C 21,8 C 3,2 km/h (1 Bft) 97,87 %
05.08.2017 07:26 21,8 C 27,2 C 67 % 1014,1 hPa 0,0 l/m 2,0 km/h (1 Bft) SW 233 2 min 0,000 mm 0,0 UV-I 143 W/m 15,4 C 21,8 C 3,2 km/h (1 Bft) 97,37 %
05.08.2017 07:28 21,8 C 27,2 C 66 % 1014,1 hPa 0,0 l/m 2,7 km/h (1 Bft) SW 236 0 min 0,000 mm 0,0 UV-I 138 W/m 15,2 C 21,8 C 4,8 km/h (1 Bft) 100,00 %
05.08.2017 07:30 21,8 C 27,2 C 67 % 1014,1 hPa 0,0 l/m 3,0 km/h (1 Bft) SW 236 0 min 0,000 mm 0,0 UV-I 139 W/m 15,4 C 21,8 C 6,4 km/h (2 Bft) 100,00 %
05.08.2017 07:32 21,8 C 27,2 C 65 % 1014,2 hPa 0,0 l/m 2,5 km/h (1 Bft) SW 236 0 min 0,000 mm 0,0 UV-I 125 W/m 14,9 C 21,8 C 6,4 km/h (2 Bft) 100,00 %
05.08.2017 07:34 21,8 C 27,2 C 65 % 1014,2 hPa 0,0 l/m 6,6 km/h (2 Bft) W-SW 240 0 min 0,000 mm 0,0 UV-I 113 W/m 14,9 C 21,7 C 11,3 km/h (2 Bft) 100,00 %
05.08.2017 07:36 21,8 C 27,2 C 66 % 1014,2 hPa 0,0 l/m 4,8 km/h (1 Bft) W-SW 242 0 min 0,000 mm 0,0 UV-I 107 W/m 15,2 C 21,8 C 8,0 km/h (2 Bft) 100,00 %
05.08.2017 07:38 21,8 C 27,2 C 66 % 1014,2 hPa 0,0 l/m 4,8 km/h (1 Bft) W-SW 242 0 min 0,000 mm 0,0 UV-I 104 W/m 15,2 C 21,8 C 6,4 km/h (2 Bft) 100,00 %
05.08.2017 07:40 21,9 C 27,2 C 66 % 1014,2 hPa 0,0 l/m 3,9 km/h (1 Bft) W-SW 242 0 min 0,000 mm 0,3 UV-I 99 W/m 15,3 C 21,9 C 6,4 km/h (2 Bft) 97,87 %
05.08.2017 07:42 21,8 C 27,2 C 65 % 1014,2 hPa 0,0 l/m 5,4 km/h (1 Bft) W-SW 240 0 min 0,000 mm 0,5 UV-I 103 W/m 14,9 C 21,8 C 11,3 km/h (2 Bft) 100,00 %
05.08.2017 07:44 21,8 C 27,2 C 65 % 1014,2 hPa 0,0 l/m 3,3 km/h (1 Bft) W-SW 246 0 min 0,000 mm 0,5 UV-I 112 W/m 14,9 C 21,8 C 6,4 km/h (2 Bft) 97,87 %
05.08.2017 07:46 21,9 C 27,2 C 67 % 1014,3 hPa 0,0 l/m 4,8 km/h (1 Bft) W-SW 246 0 min 0,000 mm 0,5 UV-I 134 W/m 15,5 C 21,9 C 6,4 km/h (2 Bft) 100,00 %
05.08.2017 07:48 21,9 C 27,2 C 66 % 1014,3 hPa 0,0 l/m 4,2 km/h (1 Bft) W-SW 246 2 min 0,000 mm 0,6 UV-I 213 W/m 15,3 C 21,9 C 6,4 km/h (2 Bft) 95,74 %
05.08.2017 07:50 22,0 C 27,2 C 66 % 1014,3 hPa 0,0 l/m 3,4 km/h (1 Bft) W-SW 246 2 min 0,000 mm 0,6 UV-I 252 W/m 15,3 C 22,0 C 8,0 km/h (2 Bft) 100,00 %
05.08.2017 07:52 22,1 C 27,2 C 66 % 1014,3 hPa 0,0 l/m 5,5 km/h (1 Bft) W-SW 248 2 min 0,000 mm 0,6 UV-I 358 W/m 15,4 C 22,1 C 6,4 km/h (2 Bft) 100,00 %
05.08.2017 07:54 22,2 C 27,2 C 65 % 1014,3 hPa 0,0 l/m 4,3 km/h (1 Bft) W-SW 250 2 min 0,000 mm 0,6 UV-I 201 W/m 15,3 C 22,2 C 8,0 km/h (2 Bft) 100,00 %
05.08.2017 07:56 22,3 C 27,2 C 64 % 1014,3 hPa 0,0 l/m 4,3 km/h (1 Bft) W 260 0 min 0,000 mm 0,6 UV-I 172 W/m 15,2 C 22,3 C 11,3 km/h (2 Bft) 100,00 %
05.08.2017 07:58 22,3 C 27,2 C 64 % 1014,3 hPa 0,0 l/m 3,6 km/h (1 Bft) W 259 0 min 0,000 mm 0,6 UV-I 181 W/m 15,2 C 22,3 C 6,4 km/h (2 Bft) 100,00 %
05.08.2017 08:00 22,3 C 27,2 C 64 % 1014,3 hPa 0,0 l/m 1,4 km/h (1 Bft) W-NW 289 0 min 0,101 mm 0,6 UV-I 181 W/m 15,2 C 22,3 C 6,4 km/h (2 Bft) 100,00 %
05.08.2017 08:02 22,3 C 27,2 C 64 % 1014,3 hPa 0,0 l/m 3,7 km/h (1 Bft) W 259 0 min 0,000 mm 0,6 UV-I 159 W/m 15,2 C 22,3 C 8,0 km/h (2 Bft) 100,00 %
05.08.2017 08:04 22,3 C 27,2 C 65 % 1014,4 hPa 0,0 l/m 1,4 km/h (1 Bft) W-NW 286 0 min 0,000 mm 0,6 UV-I 146 W/m 15,4 C 22,3 C 3,2 km/h (1 Bft) 100,00 %
05.08.2017 08:06 22,3 C 27,2 C 66 % 1014,4 hPa 0,0 l/m 1,2 km/h (1 Bft) W-NW 286 0 min 0,000 mm 0,6 UV-I 149 W/m 15,6 C 22,3 C 3,2 km/h (1 Bft) 100,00 %
05.08.2017 08:08 22,3 C 27,2 C 64 % 1014,4 hPa 0,0 l/m 2,5 km/h (1 Bft) W-NW 298 0 min 0,000 mm 0,6 UV-I 159 W/m 15,2 C 22,3 C 4,8 km/h (1 Bft) 98,11 %
05.08.2017 08:10 22,4 C 27,2 C 65 % 1014,4 hPa 0,0 l/m 1,7 km/h (1 Bft) W-NW 298 0 min 0,000 mm 0,6 UV-I 164 W/m 15,5 C 22,4 C 3,2 km/h (1 Bft) 97,87 %
05.08.2017 08:12 22,4 C 27,2 C 65 % 1014,3 hPa 0,0 l/m 0,4 km/h (0 Bft) W-NW 298 0 min 0,000 mm 0,7 UV-I 170 W/m 15,5 C 22,4 C 1,6 km/h (1 Bft) 97,87 %
05.08.2017 08:14 22,4 C 27,2 C 64 % 1014,3 hPa 0,0 l/m 0,7 km/h (0 Bft) W-NW 298 0 min 0,000 mm 0,7 UV-I 178 W/m 15,2 C 22,4 C 3,2 km/h (1 Bft) 100,00 %
05.08.2017 08:16 22,5 C 27,2 C 64 % 1014,3 hPa 0,0 l/m 2,0 km/h (1 Bft) W-NW 298 0 min 0,000 mm 0,7 UV-I 187 W/m 15,3 C 22,5 C 4,8 km/h (1 Bft) 97,87 %
05.08.2017 08:18 22,6 C 27,2 C 64 % 1014,3 hPa 0,0 l/m 1,2 km/h (1 Bft) W-NW 298 0 min 0,000 mm 0,8 UV-I 192 W/m 15,4 C 22,6 C 3,2 km/h (1 Bft) 100,00 %
05.08.2017 08:20 22,5 C 27,2 C 63 % 1014,3 hPa 0,0 l/m 3,5 km/h (1 Bft) NW 312 0 min 0,000 mm 0,8 UV-I 189 W/m 15,1 C 22,5 C 6,4 km/h (2 Bft) 100,00 %
05.08.2017 08:22 22,5 C 27,2 C 63 % 1014,3 hPa 0,0 l/m 2,7 km/h (1 Bft) NW 308 0 min 0,000 mm 0,7 UV-I 184 W/m 15,1 C 22,5 C 4,8 km/h (1 Bft) 100,00 %
05.08.2017 08:24 22,5 C 27,2 C 63 % 1014,3 hPa 0,0 l/m 3,5 km/h (1 Bft) N-NW 329 0 min 0,000 mm 0,7 UV-I 177 W/m 15,1 C 22,5 C 8,0 km/h (2 Bft) 100,00 %
05.08.2017 08:26 22,4 C 27,2 C 63 % 1014,3 hPa 0,0 l/m 1,7 km/h (1 Bft) N-NW 328 0 min 0,000 mm 0,7 UV-I 175 W/m 15,0 C 22,4 C 3,2 km/h (1 Bft) 97,87 %
05.08.2017 08:28 22,5 C 27,2 C 63 % 1014,3 hPa 0,0 l/m 0,9 km/h (0 Bft) N-NW 328 0 min 0,000 mm 0,7 UV-I 170 W/m 15,1 C 22,5 C 3,2 km/h (1 Bft) 100,00 %
05.08.2017 08:30 22,4 C 27,2 C 63 % 1014,4 hPa 0,0 l/m 0,2 km/h (0 Bft) N-NW 328 0 min 0,000 mm 0,7 UV-I 167 W/m 15,0 C 22,4 C 1,6 km/h (1 Bft) 97,87 %
05.08.2017 08:32 22,5 C 27,2 C 64 % 1014,3 hPa 0,0 l/m 1,2 km/h (1 Bft) N-NW 328 0 min 0,000 mm 0,7 UV-I 171 W/m 15,3 C 22,5 C 3,2 km/h (1 Bft) 100,00 %
05.08.2017 08:34 22,4 C 27,2 C 64 % 1014,3 hPa 0,0 l/m 0,5 km/h (0 Bft) N-NW 328 0 min 0,000 mm 0,7 UV-I 163 W/m 15,2 C 22,4 C 1,6 km/h (1 Bft) 95,74 %
05.08.2017 08:36 22,4 C 27,2 C 64 % 1014,3 hPa 0,0 l/m 0,0 km/h (0 Bft) N-NW 328 0 min 0,000 mm 0,6 UV-I 145 W/m 15,2 C 22,4 C 0,0 km/h (0 Bft) 97,87 %
05.08.2017 08:38 22,4 C 27,2 C 64 % 1014,3 hPa 0,0 l/m 1,0 km/h (0 Bft) N-NW 328 0 min 0,000 mm 0,6 UV-I 137 W/m 15,2 C 22,4 C 3,2 km/h (1 Bft) 95,74 %
05.08.2017 08:40 22,4 C 27,2 C 63 % 1014,3 hPa 0,0 l/m 0,6 km/h (0 Bft) N-NW 328 0 min 0,000 mm 0,6 UV-I 135 W/m 15,0 C 22,4 C 3,2 km/h (1 Bft) 97,87 %
05.08.2017 08:42 22,4 C 27,2 C 62 % 1014,3 hPa 0,0 l/m 0,4 km/h (0 Bft) N-NW 328 0 min 0,000 mm 0,7 UV-I 143 W/m 14,8 C 22,4 C 3,2 km/h (1 Bft) 97,87 %
05.08.2017 08:44 22,5 C 27,2 C 61 % 1014,3 hPa 0,0 l/m 0,6 km/h (0 Bft) N-NW 328 0 min 0,000 mm 0,7 UV-I 156 W/m 14,6 C 22,5 C 1,6 km/h (1 Bft) 93,62 %
05.08.2017 08:46 22,5 C 27,2 C 62 % 1014,3 hPa 0,0 l/m 1,1 km/h (1 Bft) N-NW 328 0 min 0,000 mm 0,8 UV-I 167 W/m 14,8 C 22,5 C 3,2 km/h (1 Bft) 97,87 %
05.08.2017 08:48 22,5 C 27,2 C 62 % 1014,3 hPa 0,0 l/m 0,2 km/h (0 Bft) N-NW 328 0 min 0,000 mm 0,8 UV-I 171 W/m 14,8 C 22,5 C 1,6 km/h (1 Bft) 97,87 %
05.08.2017 08:50 22,6 C 27,2 C 62 % 1014,3 hPa 0,0 l/m 0,2 km/h (0 Bft) N-NW 328 0 min 0,000 mm 0,8 UV-I 170 W/m 14,9 C 22,6 C 1,6 km/h (1 Bft) 97,87 %
05.08.2017 08:52 22,6 C 27,2 C 64 % 1014,3 hPa 0,0 l/m 0,5 km/h (0 Bft) N-NW 328 0 min 0,000 mm 0,9 UV-I 179 W/m 15,4 C 22,6 C 3,2 km/h (1 Bft) 97,87 %
05.08.2017 08:54 22,6 C 27,2 C 62 % 1014,4 hPa 0,0 l/m 1,8 km/h (1 Bft) N-NW 328 0 min 0,000 mm 1,0 UV-I 194 W/m 14,9 C 22,6 C 3,2 km/h (1 Bft) 97,87 %
05.08.2017 08:56 22,6 C 27,2 C 61 % 1014,3 hPa 0,0 l/m 0,2 km/h (0 Bft) N-NW 328 0 min 0,000 mm 1,0 UV-I 203 W/m 14,7 C 22,6 C 1,6 km/h (1 Bft) 97,87 %
05.08.2017 08:58 22,6 C 27,2 C 62 % 1014,3 hPa 0,0 l/m 0,0 km/h (0 Bft) N-NW 328 0 min 0,000 mm 1,1 UV-I 211 W/m 14,9 C 22,6 C 0,0 km/h (0 Bft) 97,87 %
05.08.2017 09:00 22,6 C 27,2 C 63 % 1014,3 hPa 0,0 l/m 0,2 km/h (0 Bft) N-NW 328 0 min 0,127 mm 1,1 UV-I 221 W/m 15,2 C 22,6 C 1,6 km/h (1 Bft) 95,74 %
05.08.2017 09:02 22,7 C 27,2 C 63 % 1014,3 hPa 0,0 l/m 0,1 km/h (0 Bft) N-NW 328 0 min 0,000 mm 1,1 UV-I 206 W/m 15,3 C 22,7 C 1,6 km/h (1 Bft) 97,87 %
05.08.2017 09:04 22,8 C 27,2 C 64 % 1014,3 hPa 0,0 l/m 2,2 km/h (1 Bft) N 355 0 min 0,000 mm 1,1 UV-I 189 W/m 15,6 C 22,8 C 4,8 km/h (1 Bft) 97,87 %
05.08.2017 09:06 22,8 C 27,2 C 59 % 1014,3 hPa 0,0 l/m 2,9 km/h (1 Bft) N 355 0 min 0,000 mm 1,1 UV-I 180 W/m 14,4 C 22,8 C 4,8 km/h (1 Bft) 93,62 %
05.08.2017 09:08 22,8 C 27,2 C 60 % 1014,3 hPa 0,0 l/m 3,0 km/h (1 Bft) N 5 0 min 0,000 mm 1,1 UV-I 185 W/m 14,6 C 22,8 C 6,4 km/h (2 Bft) 100,00 %
05.08.2017 09:10 22,9 C 27,2 C 59 % 1014,3 hPa 0,0 l/m 0,1 km/h (0 Bft) N 5 0 min 0,000 mm 1,2 UV-I 192 W/m 14,5 C 22,9 C 1,6 km/h (1 Bft) 100,00 %
05.08.2017 09:12 22,9 C 27,2 C 59 % 1014,2 hPa 0,0 l/m 0,1 km/h (0 Bft) N 5 0 min 0,000 mm 1,3 UV-I 205 W/m 14,5 C 22,9 C 1,6 km/h (1 Bft) 100,00 %
05.08.2017 09:14 22,9 C 27,2 C 60 % 1014,3 hPa 0,0 l/m 1,6 km/h (1 Bft) N 5 0 min 0,000 mm 1,3 UV-I 219 W/m 14,7 C 22,9 C 4,8 km/h (1 Bft) 100,00 %
05.08.2017 09:16 22,9 C 27,2 C 59 % 1014,2 hPa 0,0 l/m 2,3 km/h (1 Bft) N 5 0 min 0,000 mm 1,3 UV-I 225 W/m 14,5 C 22,9 C 4,8 km/h (1 Bft) 100,00 %
05.08.2017 09:18 22,9 C 27,2 C 58 % 1014,2 hPa 0,0 l/m 2,1 km/h (1 Bft) N 9 0 min 0,000 mm 1,4 UV-I 228 W/m 14,2 C 22,9 C 6,4 km/h (2 Bft) 100,00 %
05.08.2017 09:20 23,0 C 27,2 C 58 % 1014,2 hPa 0,0 l/m 1,4 km/h (1 Bft) N 9 0 min 0,000 mm 1,5 UV-I 248 W/m 14,3 C 23,0 C 4,8 km/h (1 Bft) 100,00 %
05.08.2017 09:22 23,1 C 27,2 C 58 % 1014,1 hPa 0,0 l/m 2,8 km/h (1 Bft) N-NO 13 0 min 0,000 mm 1,7 UV-I 282 W/m 14,4 C 23,1 C 6,4 km/h (2 Bft) 100,00 %
05.08.2017 09:24 23,2 C 27,2 C 58 % 1014,1 hPa 0,0 l/m 5,0 km/h (1 Bft) N-NO 16 2 min 0,000 mm 1,8 UV-I 312 W/m 14,5 C 23,2 C 8,0 km/h (2 Bft) 100,00 %
05.08.2017 09:26 23,3 C 27,2 C 56 % 1014,1 hPa 0,0 l/m 4,0 km/h (1 Bft) N-NO 18 2 min 0,000 mm 1,8 UV-I 356 W/m 14,0 C 23,3 C 6,4 km/h (2 Bft) 100,00 %
05.08.2017 09:28 23,3 C 27,2 C 59 % 1014,1 hPa 0,0 l/m 3,2 km/h (1 Bft) N-NO 18 2 min 0,000 mm 2,0 UV-I 328 W/m 14,8 C 23,3 C 6,4 km/h (2 Bft) 97,87 %
05.08.2017 09:30 23,4 C 27,2 C 57 % 1014,1 hPa 0,0 l/m 0,9 km/h (0 Bft) N-NO 17 0 min 0,000 mm 1,7 UV-I 304 W/m 14,4 C 23,4 C 3,2 km/h (1 Bft) 100,00 %
05.08.2017 09:32 23,4 C 27,2 C 57 % 1014,1 hPa 0,0 l/m 1,8 km/h (1 Bft) N-NO 17 0 min 0,000 mm 1,7 UV-I 225 W/m 14,4 C 23,4 C 4,8 km/h (1 Bft) 100,00 %
05.08.2017 09:34 23,3 C 27,2 C 56 % 1014,0 hPa 0,0 l/m 0,7 km/h (0 Bft) N-NW 343 0 min 0,000 mm 1,7 UV-I 200 W/m 14,0 C 23,3 C 3,2 km/h (1 Bft) 95,74 %
05.08.2017 09:36 23,2 C 27,2 C 57 % 1014,0 hPa 0,0 l/m 0,0 km/h (0 Bft) N-NW 342 0 min 0,000 mm 1,8 UV-I 209 W/m 14,2 C 23,2 C 1,6 km/h (1 Bft) 96,00 %
05.08.2017 09:38 23,2 C 27,2 C 56 % 1014,0 hPa 0,0 l/m 0,6 km/h (0 Bft) N-NW 341 0 min 0,000 mm 2,3 UV-I 288 W/m 13,9 C 23,2 C 3,2 km/h (1 Bft) 91,49 %
05.08.2017 09:40 23,3 C 27,2 C 58 % 1014,1 hPa 0,0 l/m 2,4 km/h (1 Bft) N 5 0 min 0,000 mm 2,1 UV-I 300 W/m 14,6 C 23,3 C 6,4 km/h (2 Bft) 97,87 %
05.08.2017 09:42 23,3 C 27,2 C 58 % 1014,1 hPa 0,0 l/m 3,1 km/h (1 Bft) N-NO 16 0 min 0,000 mm 2,1 UV-I 308 W/m 14,6 C 23,3 C 6,4 km/h (2 Bft) 97,44 %
05.08.2017 09:44 23,5 C 27,2 C 59 % 1014,0 hPa 0,0 l/m 1,2 km/h (1 Bft) N-NO 16 0 min 0,000 mm 2,1 UV-I 305 W/m 15,0 C 23,5 C 4,8 km/h (1 Bft) 97,87 %
05.08.2017 09:46 23,6 C 27,2 C 57 % 1014,0 hPa 0,0 l/m 2,8 km/h (1 Bft) N-NO 16 0 min 0,000 mm 2,2 UV-I 331 W/m 14,6 C 23,6 C 4,8 km/h (1 Bft) 95,74 %
05.08.2017 09:48 23,6 C 27,2 C 55 % 1014,0 hPa 0,0 l/m 3,3 km/h (1 Bft) N-NO 23 2 min 0,000 mm 2,2 UV-I 343 W/m 14,0 C 23,6 C 6,4 km/h (2 Bft) 96,00 %
05.08.2017 09:50 23,5 C 27,2 C 56 % 1013,9 hPa 0,0 l/m 1,1 km/h (1 Bft) N-NO 19 0 min 0,000 mm 2,3 UV-I 338 W/m 14,2 C 23,5 C 3,2 km/h (1 Bft) 98,00 %
05.08.2017 09:52 23,6 C 27,2 C 56 % 1013,9 hPa 0,0 l/m 0,3 km/h (0 Bft) N-NO 17 2 min 0,000 mm 2,7 UV-I 417 W/m 14,3 C 23,6 C 1,6 km/h (1 Bft) 97,87 %
05.08.2017 09:54 23,8 C 27,2 C 52 % 1013,9 hPa 0,0 l/m 0,4 km/h (0 Bft) N-NO 17 2 min 0,000 mm 2,8 UV-I 629 W/m 13,3 C 23,8 C 1,6 km/h (1 Bft) 97,87 %
05.08.2017 09:56 23,9 C 27,2 C 53 % 1013,8 hPa 0,0 l/m 1,2 km/h (1 Bft) N-NO 17 2 min 0,000 mm 2,8 UV-I 625 W/m 13,7 C 23,9 C 3,2 km/h (1 Bft) 97,87 %
05.08.2017 09:58 24,1 C 27,2 C 53 % 1013,8 hPa 0,0 l/m 1,2 km/h (1 Bft) N 11 2 min 0,000 mm 3,0 UV-I 415 W/m 13,9 C 24,1 C 3,2 km/h (1 Bft) 97,87 %
05.08.2017 10:00 23,9 C 27,2 C 53 % 1013,8 hPa 0,0 l/m 0,5 km/h (0 Bft) N 11 2 min 0,204 mm 2,6 UV-I 417 W/m 13,7 C 23,9 C 3,2 km/h (1 Bft) 93,62 %
05.08.2017 10:03 24,1 C 27,2 C 53 % 1013,8 hPa 0,0 l/m 0,7 km/h (0 Bft) N 11 3 min 0,000 mm 3,3 UV-I 603 W/m 13,9 C 24,1 C 3,2 km/h (1 Bft) 97,30 %
05.08.2017 10:04 24,2 C 27,2 C 54 % 1013,8 hPa 0,0 l/m 3,5 km/h (1 Bft) N-NO 30 1 min 0,000 mm 3,4 UV-I 765 W/m 14,3 C 24,2 C 4,8 km/h (1 Bft) 91,67 %
05.08.2017 10:06 24,3 C 27,2 C 52 % 1013,9 hPa 0,0 l/m 3,6 km/h (1 Bft) NO 49 2 min 0,000 mm 3,3 UV-I 765 W/m 13,8 C 24,3 C 6,4 km/h (2 Bft) 98,00 %
05.08.2017 10:08 24,4 C 27,2 C 53 % 1013,9 hPa 0,0 l/m 4,1 km/h (1 Bft) NO 42 2 min 0,000 mm 3,7 UV-I 814 W/m 14,2 C 24,4 C 6,4 km/h (2 Bft) 97,87 %
05.08.2017 10:10 24,4 C 27,2 C 52 % 1013,9 hPa 0,0 l/m 3,0 km/h (1 Bft) NO 38 2 min 0,000 mm 3,4 UV-I 666 W/m 13,9 C 24,4 C 4,8 km/h (1 Bft) 97,87 %
05.08.2017 10:12 24,6 C 27,2 C 54 % 1013,9 hPa 0,0 l/m 3,7 km/h (1 Bft) N-NO 28 2 min 0,000 mm 2,8 UV-I 419 W/m 14,7 C 24,6 C 8,0 km/h (2 Bft) 97,87 %
05.08.2017 10:14 24,6 C 27,2 C 51 % 1013,9 hPa 0,0 l/m 4,0 km/h (1 Bft) NO 50 2 min 0,000 mm 3,0 UV-I 441 W/m 13,8 C 24,6 C 6,4 km/h (2 Bft) 96,00 %
05.08.2017 10:16 24,3 C 27,2 C 50 % 1013,9 hPa 0,0 l/m 0,6 km/h (0 Bft) NO 50 2 min 0,000 mm 2,7 UV-I 413 W/m 13,2 C 24,3 C 3,2 km/h (1 Bft) 97,37 %
05.08.2017 10:18 24,4 C 27,2 C 53 % 1013,9 hPa 0,0 l/m 2,6 km/h (1 Bft) N-NO 30 2 min 0,000 mm 2,5 UV-I 379 W/m 14,2 C 24,4 C 6,4 km/h (2 Bft) 98,04 %
05.08.2017 10:20 24,4 C 27,2 C 53 % 1013,8 hPa 0,0 l/m 3,3 km/h (1 Bft) N-NO 29 2 min 0,000 mm 2,6 UV-I 382 W/m 14,2 C 24,4 C 6,4 km/h (2 Bft) 97,87 %
05.08.2017 10:22 24,4 C 27,2 C 53 % 1013,8 hPa 0,0 l/m 3,4 km/h (1 Bft) N 360 2 min 0,000 mm 2,6 UV-I 393 W/m 14,2 C 24,4 C 4,8 km/h (1 Bft) 97,87 %
05.08.2017 10:24 24,3 C 27,2 C 52 % 1013,8 hPa 0,0 l/m 2,3 km/h (1 Bft) N 5 2 min 0,000 mm 2,7 UV-I 418 W/m 13,8 C 24,3 C 4,8 km/h (1 Bft) 97,92 %
05.08.2017 10:26 24,2 C 27,2 C 51 % 1013,9 hPa 0,0 l/m 1,6 km/h (1 Bft) N 5 2 min 0,000 mm 2,8 UV-I 428 W/m 13,4 C 24,2 C 3,2 km/h (1 Bft) 96,00 %
05.08.2017 10:28 24,1 C 27,2 C 53 % 1013,9 hPa 0,0 l/m 1,0 km/h (0 Bft) N 10 2 min 0,000 mm 2,7 UV-I 417 W/m 13,9 C 24,1 C 1,6 km/h (1 Bft) 97,92 %
05.08.2017 10:30 24,2 C 27,2 C 53 % 1013,8 hPa 0,0 l/m 1,2 km/h (1 Bft) N 355 2 min 0,000 mm 2,7 UV-I 413 W/m 14,0 C 24,2 C 3,2 km/h (1 Bft) 94,74 %
05.08.2017 10:32 24,2 C 27,2 C 53 % 1013,9 hPa 0,0 l/m 1,6 km/h (1 Bft) N 355 2 min 0,000 mm 2,7 UV-I 398 W/m 14,0 C 24,2 C 4,8 km/h (1 Bft) 95,74 %
05.08.2017 10:34 24,3 C 27,2 C 53 % 1013,8 hPa 0,0 l/m 2,8 km/h (1 Bft) N-NO 14 2 min 0,000 mm 2,8 UV-I 405 W/m 14,1 C 24,3 C 6,4 km/h (2 Bft) 94,00 %
05.08.2017 10:36 24,3 C 27,2 C 52 % 1013,8 hPa 0,0 l/m 1,4 km/h (1 Bft) N-NW 331 2 min 0,000 mm 3,1 UV-I 437 W/m 13,8 C 24,3 C 4,8 km/h (1 Bft) 95,74 %
05.08.2017 10:38 24,3 C 27,2 C 53 % 1013,8 hPa 0,0 l/m 1,2 km/h (1 Bft) N-NW 331 2 min 0,000 mm 3,0 UV-I 446 W/m 14,1 C 24,3 C 3,2 km/h (1 Bft) 95,74 %
05.08.2017 10:40 24,4 C 27,2 C 53 % 1013,8 hPa 0,0 l/m 2,1 km/h (1 Bft) NW 312 2 min 0,000 mm 3,4 UV-I 521 W/m 14,2 C 24,4 C 3,2 km/h (1 Bft) 95,74 %
05.08.2017 10:42 24,6 C 27,2 C 52 % 1013,9 hPa 0,0 l/m 3,1 km/h (1 Bft) W-NW 297 2 min 0,000 mm 3,2 UV-I 524 W/m 14,1 C 24,6 C 4,8 km/h (1 Bft) 93,62 %
05.08.2017 10:44 24,4 C 27,2 C 51 % 1013,9 hPa 0,0 l/m 3,2 km/h (1 Bft) NW 310 2 min 0,000 mm 2,8 UV-I 439 W/m 13,6 C 24,4 C 4,8 km/h (1 Bft) 97,87 %
05.08.2017 10:46 24,4 C 27,2 C 53 % 1013,8 hPa 0,0 l/m 0,1 km/h (0 Bft) NW 310 2 min 0,000 mm 3,2 UV-I 447 W/m 14,2 C 24,4 C 1,6 km/h (1 Bft) 95,74 %
05.08.2017 10:48 24,4 C 27,2 C 52 % 1013,8 hPa 0,0 l/m 0,1 km/h (0 Bft) NW 310 2 min 0,000 mm 3,2 UV-I 441 W/m 13,9 C 24,4 C 1,6 km/h (1 Bft) 93,62 %
05.08.2017 10:50 24,6 C 27,2 C 55 % 1013,8 hPa 0,0 l/m 0,9 km/h (0 Bft) NW 305 2 min 0,000 mm 3,5 UV-I 608 W/m 14,9 C 24,6 C 3,2 km/h (1 Bft) 97,87 %
05.08.2017 10:52 24,7 C 27,2 C 53 % 1013,8 hPa 0,0 l/m 3,0 km/h (1 Bft) S-SO 150 2 min 0,000 mm 4,5 UV-I 742 W/m 14,5 C 24,7 C 4,8 km/h (1 Bft) 95,74 %
05.08.2017 10:54 24,8 C 27,2 C 53 % 1013,8 hPa 0,0 l/m 4,4 km/h (1 Bft) SO 146 2 min 0,000 mm 3,7 UV-I 603 W/m 14,6 C 24,8 C 8,0 km/h (2 Bft) 96,00 %
05.08.2017 10:56 24,8 C 27,2 C 54 % 1013,8 hPa 0,0 l/m 3,7 km/h (1 Bft) O-SO 118 2 min 0,000 mm 3,4 UV-I 484 W/m 14,8 C 24,8 C 6,4 km/h (2 Bft) 97,87 %
05.08.2017 10:58 24,7 C 27,2 C 53 % 1013,8 hPa 0,0 l/m 2,0 km/h (1 Bft) SO 134 2 min 0,000 mm 3,3 UV-I 448 W/m 14,5 C 24,7 C 4,8 km/h (1 Bft) 97,87 %
05.08.2017 11:00 24,7 C 27,2 C 54 % 1013,9 hPa 0,0 l/m 3,7 km/h (1 Bft) S 183 0 min 0,330 mm 3,0 UV-I 396 W/m 14,8 C 24,7 C 8,0 km/h (2 Bft) 97,44 %
05.08.2017 11:02 24,6 C 27,2 C 56 % 1013,9 hPa 0,0 l/m 3,2 km/h (1 Bft) S 181 0 min 0,000 mm 2,9 UV-I 382 W/m 15,2 C 24,6 C 4,8 km/h (1 Bft) 97,87 %
05.08.2017 11:04 24,7 C 27,2 C 54 % 1013,9 hPa 0,0 l/m 2,8 km/h (1 Bft) S-SW 197 0 min 0,000 mm 2,8 UV-I 373 W/m 14,8 C 24,7 C 6,4 km/h (2 Bft) 97,87 %
05.08.2017 11:06 24,7 C 27,2 C 53 % 1013,9 hPa 0,0 l/m 3,7 km/h (1 Bft) S-SW 192 0 min 0,000 mm 2,9 UV-I 367 W/m 14,5 C 24,7 C 6,4 km/h (2 Bft) 100,00 %
05.08.2017 11:08 24,7 C 27,2 C 53 % 1013,9 hPa 0,0 l/m 4,5 km/h (1 Bft) S 191 0 min 0,000 mm 2,8 UV-I 353 W/m 14,5 C 24,7 C 8,0 km/h (2 Bft) 100,00 %
05.08.2017 11:10 24,7 C 27,2 C 55 % 1013,8 hPa 0,0 l/m 2,1 km/h (1 Bft) S 191 0 min 0,000 mm 2,9 UV-I 347 W/m 15,0 C 24,7 C 3,2 km/h (1 Bft) 100,00 %
05.08.2017 11:12 24,7 C 27,2 C 55 % 1013,8 hPa 0,0 l/m 4,2 km/h (1 Bft) O-SO 120 0 min 0,000 mm 3,0 UV-I 363 W/m 15,0 C 24,7 C 6,4 km/h (2 Bft) 97,87 %
05.08.2017 11:14 24,7 C 27,2 C 56 % 1013,8 hPa 0,0 l/m 6,3 km/h (2 Bft) O-SO 123 0 min 0,000 mm 3,1 UV-I 379 W/m 15,3 C 24,7 C 11,3 km/h (2 Bft) 100,00 %
05.08.2017 11:16 24,7 C 27,2 C 52 % 1013,8 hPa 0,0 l/m 4,4 km/h (1 Bft) SO 126 2 min 0,000 mm 3,4 UV-I 428 W/m 14,2 C 24,7 C 6,4 km/h (2 Bft) 100,00 %
05.08.2017 11:18 24,8 C 27,2 C 54 % 1013,8 hPa 0,0 l/m 3,1 km/h (1 Bft) SO 126 2 min 0,000 mm 4,5 UV-I 504 W/m 14,8 C 24,8 C 4,8 km/h (1 Bft) 100,00 %
05.08.2017 11:20 24,8 C 27,2 C 52 % 1013,8 hPa 0,0 l/m 2,1 km/h (1 Bft) SO 126 2 min 0,000 mm 3,5 UV-I 449 W/m 14,3 C 24,8 C 3,2 km/h (1 Bft) 95,74 %
05.08.2017 11:22 24,8 C 27,2 C 53 % 1013,7 hPa 0,0 l/m 1,5 km/h (1 Bft) SO 126 0 min 0,000 mm 4,9 UV-I 415 W/m 14,6 C 24,8 C 3,2 km/h (1 Bft) 98,11 %
05.08.2017 11:24 25,0 C 27,2 C 53 % 1013,8 hPa 0,0 l/m 2,2 km/h (1 Bft) O 98 0 min 0,000 mm 4,5 UV-I 416 W/m 14,7 C 25,0 C 4,8 km/h (1 Bft) 100,00 %
05.08.2017 11:26 24,9 C 27,2 C 52 % 1013,8 hPa 0,0 l/m 0,7 km/h (0 Bft) O 98 2 min 0,000 mm 3,8 UV-I 457 W/m 14,4 C 24,9 C 3,2 km/h (1 Bft) 97,87 %
05.08.2017 11:28 24,9 C 27,2 C 54 % 1013,8 hPa 0,0 l/m 2,4 km/h (1 Bft) N 5 2 min 0,000 mm 3,9 UV-I 463 W/m 14,9 C 24,9 C 4,8 km/h (1 Bft) 100,00 %
05.08.2017 11:30 25,0 C 27,2 C 51 % 1013,8 hPa 0,0 l/m 0,8 km/h (0 Bft) N 9 2 min 0,000 mm 4,9 UV-I 454 W/m 14,1 C 25,0 C 3,2 km/h (1 Bft) 100,00 %
05.08.2017 11:32 25,0 C 27,2 C 51 % 1013,7 hPa 0,0 l/m 0,7 km/h (0 Bft) N 9 2 min 0,000 mm 4,7 UV-I 504 W/m 14,1 C 25,0 C 3,2 km/h (1 Bft) 98,00 %
05.08.2017 11:34 25,1 C 27,2 C 54 % 1013,6 hPa 0,0 l/m 3,1 km/h (1 Bft) W 281 2 min 0,000 mm 5,0 UV-I 685 W/m 15,1 C 25,1 C 4,8 km/h (1 Bft) 100,00 %
05.08.2017 11:36 25,3 C 27,2 C 50 % 1013,6 hPa 0,0 l/m 3,1 km/h (1 Bft) S-SO 167 2 min 0,000 mm 5,3 UV-I 775 W/m 14,1 C 25,3 C 6,4 km/h (2 Bft) 100,00 %
05.08.2017 11:38 25,3 C 27,2 C 53 % 1013,6 hPa 0,0 l/m 2,9 km/h (1 Bft) S-SW 204 2 min 0,000 mm 5,1 UV-I 801 W/m 15,0 C 25,3 C 6,4 km/h (2 Bft) 100,00 %
05.08.2017 11:40 25,3 C 27,2 C 50 % 1013,5 hPa 0,0 l/m 4,0 km/h (1 Bft) S-SW 192 2 min 0,000 mm 5,5 UV-I 912 W/m 14,1 C 25,3 C 8,0 km/h (2 Bft) 100,00 %
05.08.2017 11:42 25,3 C 27,2 C 51 % 1013,5 hPa 0,0 l/m 1,1 km/h (1 Bft) S-SW 193 2 min 0,000 mm 5,0 UV-I 694 W/m 14,4 C 25,3 C 3,2 km/h (1 Bft) 100,00 %
05.08.2017 11:44 25,6 C 27,2 C 52 % 1013,5 hPa 0,0 l/m 4,4 km/h (1 Bft) N-NO 19 2 min 0,000 mm 4,7 UV-I 639 W/m 15,0 C 25,6 C 8,0 km/h (2 Bft) 100,00 %
05.08.2017 11:46 25,7 C 27,2 C 51 % 1013,5 hPa 0,0 l/m 2,9 km/h (1 Bft) O-NO 59 2 min 0,000 mm 4,4 UV-I 624 W/m 14,8 C 25,7 C 6,4 km/h (2 Bft) 100,00 %
05.08.2017 11:48 25,8 C 27,2 C 52 % 1013,4 hPa 0,0 l/m 3,9 km/h (1 Bft) N 5 2 min 0,000 mm 3,8 UV-I 556 W/m 15,2 C 25,8 C 9,7 km/h (2 Bft) 100,00 %
05.08.2017 11:50 25,8 C 27,2 C 50 % 1013,4 hPa 0,0 l/m 1,6 km/h (1 Bft) N 5 2 min 0,000 mm 4,6 UV-I 570 W/m 14,6 C 25,8 C 6,4 km/h (2 Bft) 97,87 %
05.08.2017 11:52 26,1 C 27,2 C 50 % 1013,5 hPa 0,0 l/m 0,7 km/h (0 Bft) N-NW 345 2 min 0,000 mm 5,0 UV-I 548 W/m 14,8 C 26,1 C 3,2 km/h (1 Bft) 100,00 %
05.08.2017 11:54 26,1 C 27,2 C 49 % 1013,5 hPa 0,0 l/m 3,2 km/h (1 Bft) N-NO 23 2 min 0,000 mm 4,5 UV-I 514 W/m 14,5 C 26,1 C 9,7 km/h (2 Bft) 100,00 %
05.08.2017 11:56 25,9 C 27,2 C 49 % 1013,4 hPa 0,0 l/m 2,4 km/h (1 Bft) NO 42 2 min 0,000 mm 4,1 UV-I 479 W/m 14,4 C 25,9 C 4,8 km/h (1 Bft) 98,00 %
05.08.2017 11:58 26,0 C 27,2 C 51 % 1013,4 hPa 0,0 l/m 2,5 km/h (1 Bft) N-NO 18 2 min 0,000 mm 4,4 UV-I 457 W/m 15,1 C 26,0 C 8,0 km/h (2 Bft) 100,00 %
05.08.2017 12:00 26,0 C 27,2 C 51 % 1013,4 hPa 0,0 l/m 4,3 km/h (1 Bft) N-NO 13 2 min 0,381 mm 4,2 UV-I 453 W/m 15,1 C 26,0 C 9,7 km/h (2 Bft) 100,00 %
05.08.2017 12:02 25,9 C 27,2 C 49 % 1013,3 hPa 0,0 l/m 0,9 km/h (0 Bft) N 9 0 min 0,000 mm 4,0 UV-I 422 W/m 14,4 C 25,9 C 3,2 km/h (1 Bft) 100,00 %
05.08.2017 12:04 25,9 C 27,2 C 50 % 1013,4 hPa 0,0 l/m 2,9 km/h (1 Bft) N-NW 328 0 min 0,000 mm 5,9 UV-I 443 W/m 14,7 C 25,9 C 4,8 km/h (1 Bft) 100,00 %
05.08.2017 12:06 25,9 C 27,2 C 51 % 1013,3 hPa 0,0 l/m 4,4 km/h (1 Bft) W-NW 302 0 min 0,000 mm 5,3 UV-I 443 W/m 15,0 C 25,9 C 6,4 km/h (2 Bft) 100,00 %
05.08.2017 12:08 26,1 C 27,2 C 53 % 1013,4 hPa 0,0 l/m 4,0 km/h (1 Bft) N-NW 334 0 min 0,000 mm 4,9 UV-I 443 W/m 15,8 C 26,1 C 11,3 km/h (2 Bft) 100,00 %
05.08.2017 12:10 26,2 C 27,2 C 52 % 1013,4 hPa 0,0 l/m 1,6 km/h (1 Bft) N-NO 33 0 min 0,000 mm 4,2 UV-I 444 W/m 15,6 C 26,2 C 3,2 km/h (1 Bft) 100,00 %
05.08.2017 12:12 26,2 C 27,2 C 50 % 1013,3 hPa 0,0 l/m 2,1 km/h (1 Bft) N-NW 339 2 min 0,000 mm 5,0 UV-I 487 W/m 14,9 C 26,2 C 4,8 km/h (1 Bft) 100,00 %
05.08.2017 12:14 26,2 C 27,2 C 50 % 1013,4 hPa 0,0 l/m 2,9 km/h (1 Bft) W-NW 300 2 min 0,000 mm 4,1 UV-I 489 W/m 14,9 C 26,2 C 4,8 km/h (1 Bft) 98,00 %
05.08.2017 12:16 26,1 C 27,2 C 51 % 1013,4 hPa 0,0 l/m 2,2 km/h (1 Bft) NW 319 2 min 0,000 mm 4,4 UV-I 456 W/m 15,2 C 26,1 C 4,8 km/h (1 Bft) 100,00 %
05.08.2017 12:18 26,1 C 27,2 C 51 % 1013,3 hPa 0,0 l/m 2,4 km/h (1 Bft) NW 304 0 min 0,000 mm 3,9 UV-I 436 W/m 15,2 C 26,1 C 4,8 km/h (1 Bft) 97,92 %
05.08.2017 12:20 25,9 C 27,2 C 50 % 1013,3 hPa 0,0 l/m 1,1 km/h (1 Bft) NW 304 0 min 0,000 mm 3,8 UV-I 404 W/m 14,7 C 25,9 C 3,2 km/h (1 Bft) 95,74 %
05.08.2017 12:22 26,1 C 27,2 C 53 % 1013,3 hPa 0,0 l/m 1,7 km/h (1 Bft) NW 321 0 min 0,000 mm 4,1 UV-I 449 W/m 15,8 C 26,1 C 4,8 km/h (1 Bft) 98,00 %
05.08.2017 12:24 26,2 C 27,2 C 52 % 1013,3 hPa 0,0 l/m 0,9 km/h (0 Bft) NW 313 2 min 0,000 mm 5,7 UV-I 491 W/m 15,6 C 26,2 C 3,2 km/h (1 Bft) 97,87 %
05.08.2017 12:26 26,3 C 27,2 C 50 % 1013,4 hPa 0,0 l/m 2,6 km/h (1 Bft) NW 308 2 min 0,000 mm 5,3 UV-I 495 W/m 15,0 C 26,3 C 4,8 km/h (1 Bft) 97,87 %
05.08.2017 12:28 26,1 C 27,2 C 50 % 1013,3 hPa 0,0 l/m 3,4 km/h (1 Bft) W-NW 300 0 min 0,000 mm 4,3 UV-I 421 W/m 14,8 C 26,1 C 4,8 km/h (1 Bft) 95,74 %
05.08.2017 12:30 25,8 C 27,2 C 51 % 1013,3 hPa 0,0 l/m 4,1 km/h (1 Bft) W-NW 288 0 min 0,000 mm 4,9 UV-I 397 W/m 14,9 C 25,8 C 6,4 km/h (2 Bft) 95,74 %
05.08.2017 12:32 25,9 C 27,2 C 51 % 1013,3 hPa 0,0 l/m 4,5 km/h (1 Bft) W-NW 286 0 min 0,000 mm 4,3 UV-I 389 W/m 15,0 C 25,9 C 9,7 km/h (2 Bft) 96,23 %
05.08.2017 12:34 26,1 C 27,2 C 51 % 1013,3 hPa 0,0 l/m 1,0 km/h (0 Bft) NW 320 0 min 0,000 mm 5,1 UV-I 371 W/m 15,2 C 26,1 C 3,2 km/h (1 Bft) 94,29 %
05.08.2017 12:36 26,4 C 27,2 C 52 % 1013,4 hPa 0,0 l/m 2,4 km/h (1 Bft) N-NO 13 0 min 0,000 mm 5,2 UV-I 383 W/m 15,7 C 26,4 C 8,0 km/h (2 Bft) 94,00 %
05.08.2017 12:38 26,4 C 27,2 C 50 % 1013,4 hPa 0,0 l/m 2,8 km/h (1 Bft) N-NW 348 0 min 0,000 mm 4,1 UV-I 418 W/m 15,1 C 26,4 C 8,0 km/h (2 Bft) 97,87 %
05.08.2017 12:40 26,2 C 27,2 C 50 % 1013,3 hPa 0,0 l/m 3,8 km/h (1 Bft) W-SW 253 0 min 0,000 mm 5,5 UV-I 396 W/m 14,9 C 26,2 C 6,4 km/h (2 Bft) 97,87 %
05.08.2017 12:42 26,2 C 27,2 C 51 % 1013,3 hPa 0,0 l/m 4,7 km/h (1 Bft) W 269 0 min 0,000 mm 5,5 UV-I 396 W/m 15,2 C 26,2 C 9,7 km/h (2 Bft) 95,83 %
05.08.2017 12:44 26,2 C 27,2 C 50 % 1013,3 hPa 0,0 l/m 2,5 km/h (1 Bft) W-NW 295 0 min 0,000 mm 4,1 UV-I 396 W/m 14,9 C 26,2 C 4,8 km/h (1 Bft) 97,87 %
05.08.2017 12:46 26,2 C 27,2 C 53 % 1013,3 hPa 0,0 l/m 1,1 km/h (1 Bft) W-NW 295 0 min 0,000 mm 5,1 UV-I 421 W/m 15,8 C 26,2 C 3,2 km/h (1 Bft) 97,87 %
05.08.2017 12:48 26,3 C 27,2 C 52 % 1013,2 hPa 0,0 l/m 1,8 km/h (1 Bft) NW 316 0 min 0,000 mm 4,3 UV-I 426 W/m 15,6 C 26,3 C 4,8 km/h (1 Bft) 100,00 %
05.08.2017 12:50 26,4 C 27,2 C 50 % 1013,2 hPa 0,0 l/m 0,9 km/h (0 Bft) NW 315 0 min 0,000 mm 4,1 UV-I 406 W/m 15,1 C 26,4 C 3,2 km/h (1 Bft) 95,74 %
05.08.2017 12:52 26,4 C 27,2 C 53 % 1013,1 hPa 0,0 l/m 1,5 km/h (1 Bft) NW 314 0 min 0,000 mm 3,8 UV-I 375 W/m 16,0 C 26,4 C 3,2 km/h (1 Bft) 97,92 %
05.08.2017 12:54 26,4 C 27,2 C 51 % 1013,1 hPa 0,0 l/m 2,0 km/h (1 Bft) NW 315 0 min 0,000 mm 3,8 UV-I 394 W/m 15,4 C 26,4 C 4,8 km/h (1 Bft) 100,00 %
05.08.2017 12:56 26,2 C 27,8 C 52 % 1013,1 hPa 0,0 l/m 1,9 km/h (1 Bft) NW 315 0 min 0,000 mm 4,2 UV-I 398 W/m 15,6 C 26,2 C 4,8 km/h (1 Bft) 100,00 %
05.08.2017 12:58 26,3 C 27,2 C 52 % 1013,1 hPa 0,0 l/m 2,3 km/h (1 Bft) N-NW 344 2 min 0,000 mm 5,3 UV-I 488 W/m 15,6 C 26,3 C 4,8 km/h (1 Bft) 100,00 %
05.08.2017 13:00 26,4 C 27,2 C 50 % 1013,1 hPa 0,0 l/m 2,1 km/h (1 Bft) N-NW 344 2 min 0,381 mm 5,5 UV-I 584 W/m 15,1 C 26,4 C 4,8 km/h (1 Bft) 100,00 %
05.08.2017 13:02 26,4 C 27,2 C 51 % 1013,0 hPa 0,0 l/m 0,8 km/h (0 Bft) N-NW 332 2 min 0,000 mm 4,9 UV-I 581 W/m 15,4 C 26,4 C 3,2 km/h (1 Bft) 100,00 %
05.08.2017 13:04 26,5 C 27,2 C 50 % 1013,1 hPa 0,0 l/m 2,0 km/h (1 Bft) O-NO 61 2 min 0,000 mm 4,2 UV-I 491 W/m 15,2 C 26,5 C 6,4 km/h (2 Bft) 97,87 %
05.08.2017 13:06 26,4 C 27,8 C 50 % 1013,0 hPa 0,0 l/m 2,8 km/h (1 Bft) O-NO 69 0 min 0,000 mm 3,9 UV-I 400 W/m 15,1 C 26,4 C 6,4 km/h (2 Bft) 100,00 %
05.08.2017 13:08 26,3 C 27,8 C 51 % 1013,1 hPa 0,0 l/m 0,5 km/h (0 Bft) O-NO 69 0 min 0,000 mm 3,9 UV-I 384 W/m 15,3 C 26,3 C 3,2 km/h (1 Bft) 100,00 %
05.08.2017 13:10 26,2 C 27,8 C 53 % 1013,0 hPa 0,0 l/m 2,5 km/h (1 Bft) O-NO 69 0 min 0,000 mm 4,0 UV-I 418 W/m 15,8 C 26,2 C 4,8 km/h (1 Bft) 97,87 %
05.08.2017 13:12 26,3 C 27,8 C 53 % 1013,0 hPa 0,0 l/m 3,6 km/h (1 Bft) O-SO 113 0 min 0,000 mm 4,1 UV-I 418 W/m 15,9 C 26,3 C 9,7 km/h (2 Bft) 97,92 %
05.08.2017 13:14 26,4 C 27,8 C 53 % 1013,0 hPa 0,0 l/m 5,3 km/h (1 Bft) S-SO 157 0 min 0,000 mm 4,4 UV-I 452 W/m 16,0 C 26,4 C 11,3 km/h (2 Bft) 100,00 %
05.08.2017 13:16 26,5 C 27,8 C 54 % 1012,9 hPa 0,0 l/m 5,6 km/h (1 Bft) O-SO 118 0 min 0,000 mm 4,2 UV-I 419 W/m 16,4 C 26,5 C 9,7 km/h (2 Bft) 98,00 %
05.08.2017 13:18 26,5 C 27,8 C 54 % 1013,0 hPa 0,0 l/m 8,0 km/h (2 Bft) O 96 0 min 0,000 mm 4,7 UV-I 426 W/m 16,4 C 26,2 C 11,3 km/h (2 Bft) 97,87 %
05.08.2017 13:20 26,4 C 27,8 C 53 % 1013,0 hPa 0,0 l/m 2,9 km/h (1 Bft) O 96 2 min 0,000 mm 4,6 UV-I 473 W/m 16,0 C 26,4 C 6,4 km/h (2 Bft) 95,74 %
05.08.2017 13:22 26,5 C 27,8 C 52 % 1013,0 hPa 0,0 l/m 5,3 km/h (1 Bft) O-NO 64 2 min 0,000 mm 5,8 UV-I 485 W/m 15,8 C 26,5 C 9,7 km/h (2 Bft) 95,74 %
05.08.2017 13:24 26,6 C 27,8 C 52 % 1013,0 hPa 0,0 l/m 5,6 km/h (1 Bft) O-NO 59 2 min 0,000 mm 4,9 UV-I 537 W/m 15,9 C 26,6 C 8,0 km/h (2 Bft) 97,87 %
05.08.2017 13:26 26,7 C 27,8 C 53 % 1012,9 hPa 0,0 l/m 4,2 km/h (1 Bft) NO 44 2 min 0,000 mm 4,8 UV-I 497 W/m 16,3 C 26,7 C 6,4 km/h (2 Bft) 95,74 %
05.08.2017 13:28 26,8 C 27,8 C 52 % 1012,9 hPa 0,0 l/m 4,6 km/h (1 Bft) O-SO 112 2 min 0,000 mm 4,5 UV-I 462 W/m 16,1 C 26,8 C 8,0 km/h (2 Bft) 97,37 %
05.08.2017 13:30 26,7 C 27,8 C 50 % 1012,9 hPa 0,0 l/m 2,9 km/h (1 Bft) S-SO 153 2 min 0,000 mm 5,0 UV-I 545 W/m 15,4 C 26,7 C 4,8 km/h (1 Bft) 98,00 %
05.08.2017 13:32 26,6 C 27,8 C 54 % 1012,9 hPa 0,0 l/m 2,6 km/h (1 Bft) SO 142 2 min 0,000 mm 5,4 UV-I 636 W/m 16,5 C 26,6 C 4,8 km/h (1 Bft) 97,87 %
05.08.2017 13:34 26,7 C 27,8 C 54 % 1012,9 hPa 0,0 l/m 2,9 km/h (1 Bft) S-SO 151 2 min 0,000 mm 5,1 UV-I 722 W/m 16,6 C 26,7 C 6,4 km/h (2 Bft) 97,87 %
05.08.2017 13:36 26,7 C 27,8 C 53 % 1012,8 hPa 0,0 l/m 3,2 km/h (1 Bft) S-SO 148 2 min 0,000 mm 4,4 UV-I 492 W/m 16,3 C 26,7 C 6,4 km/h (2 Bft) 96,00 %
05.08.2017 13:38 26,7 C 27,8 C 52 % 1012,7 hPa 0,0 l/m 2,2 km/h (1 Bft) S-SO 150 2 min 0,000 mm 5,4 UV-I 912 W/m 16,0 C 26,7 C 4,8 km/h (1 Bft) 97,87 %
05.08.2017 13:40 26,8 C 27,8 C 51 % 1012,7 hPa 0,0 l/m 1,2 km/h (1 Bft) S-SO 150 2 min 0,000 mm 6,6 UV-I 959 W/m 15,8 C 26,8 C 3,2 km/h (1 Bft) 97,92 %
05.08.2017 13:42 27,1 C 27,8 C 51 % 1012,7 hPa 0,0 l/m 2,9 km/h (1 Bft) S 186 2 min 0,000 mm 6,5 UV-I 863 W/m 16,1 C 27,1 C 6,4 km/h (2 Bft) 98,00 %
05.08.2017 13:44 27,3 C 27,8 C 52 % 1012,7 hPa 0,0 l/m 4,3 km/h (1 Bft) SO 132 2 min 0,000 mm 6,4 UV-I 842 W/m 16,6 C 27,3 C 8,0 km/h (2 Bft) 97,87 %
05.08.2017 13:46 27,3 C 27,8 C 51 % 1012,7 hPa 0,0 l/m 4,1 km/h (1 Bft) S-SO 152 2 min 0,000 mm 6,4 UV-I 830 W/m 16,3 C 27,3 C 6,4 km/h (2 Bft) 97,87 %
05.08.2017 13:48 27,3 C 27,8 C 54 % 1012,7 hPa 0,0 l/m 4,8 km/h (1 Bft) S-SW 208 2 min 0,000 mm 6,3 UV-I 822 W/m 17,2 C 27,3 C 8,0 km/h (2 Bft) 97,87 %
05.08.2017 13:50 27,4 C 27,8 C 50 % 1012,7 hPa 0,0 l/m 4,3 km/h (1 Bft) W-SW 257 2 min 0,000 mm 6,3 UV-I 816 W/m 16,0 C 27,4 C 9,7 km/h (2 Bft) 97,87 %
05.08.2017 13:52 27,4 C 27,8 C 52 % 1012,7 hPa 0,0 l/m 3,2 km/h (1 Bft) SO 140 2 min 0,000 mm 6,2 UV-I 812 W/m 16,7 C 27,4 C 6,4 km/h (2 Bft) 95,74 %
05.08.2017 13:54 27,4 C 27,8 C 50 % 1012,6 hPa 0,0 l/m 5,3 km/h (1 Bft) O 91 2 min 0,000 mm 6,2 UV-I 811 W/m 16,0 C 27,4 C 11,3 km/h (2 Bft) 97,37 %
05.08.2017 13:56 27,3 C 27,8 C 52 % 1012,6 hPa 0,0 l/m 4,4 km/h (1 Bft) O-SO 111 2 min 0,000 mm 6,2 UV-I 803 W/m 16,6 C 27,3 C 6,4 km/h (2 Bft) 97,87 %
05.08.2017 13:58 27,4 C 27,8 C 52 % 1012,6 hPa 0,0 l/m 7,6 km/h (2 Bft) O-SO 120 2 min 0,000 mm 4,6 UV-I 806 W/m 16,7 C 27,2 C 11,3 km/h (2 Bft) 96,00 %
05.08.2017 14:00 27,3 C 27,8 C 54 % 1012,6 hPa 0,0 l/m 2,8 km/h (1 Bft) W 269 2 min 0,432 mm 6,1 UV-I 804 W/m 17,2 C 27,3 C 4,8 km/h (1 Bft) 97,87 %
05.08.2017 14:02 27,4 C 27,8 C 51 % 1012,6 hPa 0,0 l/m 6,1 km/h (2 Bft) O-SO 119 2 min 0,000 mm 6,1 UV-I 803 W/m 16,3 C 27,4 C 14,5 km/h (3 Bft) 98,00 %
05.08.2017 14:04 27,5 C 27,8 C 53 % 1012,7 hPa 0,0 l/m 5,8 km/h (2 Bft) O-SO 109 2 min 0,000 mm 6,1 UV-I 801 W/m 17,0 C 27,5 C 14,5 km/h (3 Bft) 97,87 %
05.08.2017 14:06 27,7 C 27,8 C 55 % 1012,6 hPa 0,0 l/m 8,8 km/h (2 Bft) O 93 2 min 0,000 mm 6,0 UV-I 797 W/m 17,8 C 27,3 C 14,5 km/h (3 Bft) 95,74 %
05.08.2017 14:08 27,7 C 27,8 C 51 % 1012,6 hPa 0,0 l/m 6,7 km/h (2 Bft) NO 34 2 min 0,000 mm 6,0 UV-I 795 W/m 16,6 C 27,7 C 9,7 km/h (2 Bft) 94,29 %
05.08.2017 14:10 27,7 C 27,8 C 51 % 1012,6 hPa 0,0 l/m 2,7 km/h (1 Bft) O-SO 115 2 min 0,000 mm 6,0 UV-I 791 W/m 16,6 C 27,7 C 3,2 km/h (1 Bft) 96,00 %
05.08.2017 14:12 27,8 C 27,8 C 53 % 1012,6 hPa 0,0 l/m 4,2 km/h (1 Bft) O-SO 107 2 min 0,000 mm 6,0 UV-I 792 W/m 17,3 C 27,8 C 6,4 km/h (2 Bft) 95,92 %
05.08.2017 14:14 28,1 C 27,8 C 54 % 1012,6 hPa 0,0 l/m 11,0 km/h (2 Bft) O 88 2 min 0,000 mm 5,9 UV-I 778 W/m 17,9 C 27,5 C 14,5 km/h (3 Bft) 91,49 %
05.08.2017 14:16 28,0 C 27,8 C 50 % 1012,6 hPa 0,0 l/m 8,0 km/h (2 Bft) O 97 2 min 0,000 mm 5,8 UV-I 782 W/m 16,6 C 27,8 C 14,5 km/h (3 Bft) 95,83 %
05.08.2017 14:18 27,8 C 27,8 C 50 % 1012,6 hPa 0,0 l/m 4,3 km/h (1 Bft) O-SO 115 2 min 0,000 mm 5,8 UV-I 777 W/m 16,4 C 27,8 C 6,4 km/h (2 Bft) 97,87 %
05.08.2017 14:20 27,7 C 27,8 C 51 % 1012,6 hPa 0,0 l/m 4,0 km/h (1 Bft) O 85 2 min 0,000 mm 5,9 UV-I 790 W/m 16,6 C 27,7 C 6,4 km/h (2 Bft) 95,74 %
05.08.2017 14:22 27,8 C 27,8 C 51 % 1012,6 hPa 0,0 l/m 5,9 km/h (2 Bft) O-NO 58 2 min 0,000 mm 5,8 UV-I 779 W/m 16,7 C 27,8 C 8,0 km/h (2 Bft) 97,96 %
05.08.2017 14:24 27,9 C 27,8 C 51 % 1012,5 hPa 0,0 l/m 4,7 km/h (1 Bft) O-NO 64 2 min 0,000 mm 5,8 UV-I 789 W/m 16,8 C 27,9 C 6,4 km/h (2 Bft) 97,87 %
05.08.2017 14:26 27,9 C 27,8 C 52 % 1012,5 hPa 0,0 l/m 4,3 km/h (1 Bft) O 100 2 min 0,000 mm 5,8 UV-I 783 W/m 17,1 C 27,9 C 6,4 km/h (2 Bft) 96,00 %
05.08.2017 14:28 27,9 C 27,8 C 50 % 1012,5 hPa 0,0 l/m 2,5 km/h (1 Bft) S-SO 148 2 min 0,000 mm 5,7 UV-I 778 W/m 16,5 C 27,9 C 4,8 km/h (1 Bft) 95,74 %
05.08.2017 14:30 27,9 C 27,8 C 51 % 1012,5 hPa 0,0 l/m 2,7 km/h (1 Bft) S-SO 155 2 min 0,000 mm 5,7 UV-I 769 W/m 16,8 C 27,9 C 6,4 km/h (2 Bft) 95,74 %
05.08.2017 14:32 27,9 C 27,8 C 51 % 1012,5 hPa 0,0 l/m 4,1 km/h (1 Bft) SO 142 2 min 0,000 mm 5,6 UV-I 774 W/m 16,8 C 27,9 C 6,4 km/h (2 Bft) 95,74 %
05.08.2017 14:34 27,8 C 27,8 C 51 % 1012,5 hPa 0,0 l/m 2,5 km/h (1 Bft) SO 143 2 min 0,000 mm 5,6 UV-I 775 W/m 16,7 C 27,8 C 4,8 km/h (1 Bft) 95,74 %
05.08.2017 14:36 27,8 C 27,8 C 52 % 1012,4 hPa 0,0 l/m 1,2 km/h (1 Bft) SO 143 2 min 0,000 mm 5,6 UV-I 772 W/m 17,0 C 27,8 C 3,2 km/h (1 Bft) 100,00 %
05.08.2017 14:38 28,1 C 27,8 C 52 % 1012,4 hPa 0,0 l/m 3,4 km/h (1 Bft) W-SW 246 2 min 0,000 mm 5,6 UV-I 769 W/m 17,3 C 28,1 C 6,4 km/h (2 Bft) 100,00 %
05.08.2017 14:40 28,4 C 27,8 C 53 % 1012,4 hPa 0,0 l/m 5,5 km/h (1 Bft) SW 223 2 min 0,000 mm 5,5 UV-I 767 W/m 17,9 C 28,4 C 8,0 km/h (2 Bft) 97,37 %
05.08.2017 14:42 28,4 C 27,8 C 49 % 1012,4 hPa 0,0 l/m 6,1 km/h (2 Bft) W-SW 246 2 min 0,000 mm 5,5 UV-I 765 W/m 16,6 C 28,4 C 8,0 km/h (2 Bft) 97,87 %
05.08.2017 14:44 28,2 C 27,8 C 51 % 1012,4 hPa 0,0 l/m 2,2 km/h (1 Bft) S-SW 198 2 min 0,000 mm 5,5 UV-I 764 W/m 17,1 C 28,2 C 6,4 km/h (2 Bft) 100,00 %
05.08.2017 14:46 28,3 C 27,8 C 51 % 1012,4 hPa 0,0 l/m 3,7 km/h (1 Bft) S-SW 198 2 min 0,000 mm 5,4 UV-I 761 W/m 17,2 C 28,3 C 8,0 km/h (2 Bft) 93,62 %
05.08.2017 14:48 28,4 C 27,8 C 52 % 1012,3 hPa 0,0 l/m 1,3 km/h (1 Bft) S-SW 198 2 min 0,000 mm 5,4 UV-I 756 W/m 17,6 C 28,4 C 4,8 km/h (1 Bft) 97,87 %
05.08.2017 14:50 28,6 C 27,8 C 49 % 1012,4 hPa 0,0 l/m 4,4 km/h (1 Bft) W-SW 245 2 min 0,000 mm 5,3 UV-I 751 W/m 16,8 C 28,6 C 6,4 km/h (2 Bft) 100,00 %
05.08.2017 14:52 28,5 C 27,8 C 49 % 1012,4 hPa 0,0 l/m 3,8 km/h (1 Bft) SW 226 2 min 0,000 mm 5,3 UV-I 749 W/m 16,7 C 28,5 C 6,4 km/h (2 Bft) 98,00 %
05.08.2017 14:54 28,6 C 27,8 C 51 % 1012,3 hPa 0,0 l/m 4,1 km/h (1 Bft) W-SW 240 2 min 0,000 mm 5,1 UV-I 745 W/m 17,4 C 28,6 C 8,0 km/h (2 Bft) 97,87 %
05.08.2017 14:56 28,7 C 27,8 C 49 % 1012,3 hPa 0,0 l/m 4,1 km/h (1 Bft) SW 220 2 min 0,000 mm 5,1 UV-I 739 W/m 16,9 C 28,7 C 8,0 km/h (2 Bft) 100,00 %
05.08.2017 14:58 28,7 C 27,8 C 50 % 1012,3 hPa 0,0 l/m 5,2 km/h (1 Bft) S 173 2 min 0,000 mm 5,1 UV-I 738 W/m 17,2 C 28,7 C 8,0 km/h (2 Bft) 100,00 %
05.08.2017 15:00 28,7 C 27,8 C 49 % 1012,3 hPa 0,0 l/m 2,6 km/h (1 Bft) S-SO 155 2 min 0,533 mm 5,1 UV-I 734 W/m 16,9 C 28,7 C 6,4 km/h (2 Bft) 97,87 %
05.08.2017 15:02 28,7 C 27,8 C 51 % 1012,2 hPa 0,0 l/m 3,8 km/h (1 Bft) S-SO 159 2 min 0,000 mm 5,1 UV-I 729 W/m 17,5 C 28,7 C 6,4 km/h (2 Bft) 100,00 %
05.08.2017 15:04 28,6 C 27,8 C 51 % 1012,2 hPa 0,0 l/m 2,5 km/h (1 Bft) S 170 2 min 0,000 mm 5,0 UV-I 723 W/m 17,4 C 28,6 C 6,4 km/h (2 Bft) 100,00 %
05.08.2017 15:06 28,4 C 28,3 C 50 % 1012,2 hPa 0,0 l/m 2,8 km/h (1 Bft) S-SO 153 2 min 0,000 mm 5,0 UV-I 726 W/m 17,0 C 28,4 C 8,0 km/h (2 Bft) 97,14 %
05.08.2017 15:08 28,4 C 28,3 C 51 % 1012,2 hPa 0,0 l/m 1,8 km/h (1 Bft) S 172 2 min 0,000 mm 4,9 UV-I 721 W/m 17,3 C 28,4 C 6,4 km/h (2 Bft) 100,00 %
05.08.2017 15:10 28,7 C 28,3 C 51 % 1012,1 hPa 0,0 l/m 4,1 km/h (1 Bft) SW 219 2 min 0,000 mm 4,9 UV-I 716 W/m 17,5 C 28,7 C 8,0 km/h (2 Bft) 100,00 %
05.08.2017 15:12 28,8 C 28,3 C 50 % 1012,1 hPa 0,0 l/m 4,4 km/h (1 Bft) SW 221 2 min 0,000 mm 4,8 UV-I 714 W/m 17,3 C 28,8 C 8,0 km/h (2 Bft) 97,87 %
05.08.2017 15:14 28,9 C 28,3 C 50 % 1012,1 hPa 0,0 l/m 4,6 km/h (1 Bft) S-SO 161 2 min 0,000 mm 4,8 UV-I 713 W/m 17,4 C 28,9 C 9,7 km/h (2 Bft) 100,00 %
05.08.2017 15:16 28,8 C 28,3 C 49 % 1012,1 hPa 0,0 l/m 3,3 km/h (1 Bft) S-SO 148 2 min 0,000 mm 4,8 UV-I 707 W/m 17,0 C 28,8 C 6,4 km/h (2 Bft) 96,00 %
05.08.2017 15:18 28,9 C 28,3 C 53 % 1012,0 hPa 0,0 l/m 5,5 km/h (1 Bft) O-SO 108 2 min 0,000 mm 4,8 UV-I 708 W/m 18,3 C 28,9 C 9,7 km/h (2 Bft) 100,00 %
05.08.2017 15:20 29,3 C 28,3 C 53 % 1012,0 hPa 0,0 l/m 6,3 km/h (2 Bft) O-SO 114 2 min 0,000 mm 4,7 UV-I 708 W/m 18,7 C 29,3 C 11,3 km/h (2 Bft) 100,00 %
05.08.2017 15:22 29,3 C 28,3 C 50 % 1012,0 hPa 0,0 l/m 5,3 km/h (1 Bft) O-SO 110 2 min 0,000 mm 4,6 UV-I 701 W/m 17,8 C 29,3 C 9,7 km/h (2 Bft) 100,00 %
05.08.2017 15:24 29,4 C 28,3 C 49 % 1012,0 hPa 0,0 l/m 3,9 km/h (1 Bft) O-NO 59 2 min 0,000 mm 4,6 UV-I 698 W/m 17,5 C 29,4 C 6,4 km/h (2 Bft) 100,00 %
05.08.2017 15:26 29,4 C 28,3 C 48 % 1012,0 hPa 0,0 l/m 5,6 km/h (1 Bft) O 84 2 min 0,000 mm 4,5 UV-I 698 W/m 17,2 C 29,4 C 11,3 km/h (2 Bft) 100,00 %
05.08.2017 15:28 29,2 C 28,3 C 50 % 1012,0 hPa 0,0 l/m 4,7 km/h (1 Bft) O-NO 76 2 min 0,000 mm 4,3 UV-I 664 W/m 17,7 C 29,2 C 8,0 km/h (2 Bft) 100,00 %
05.08.2017 15:30 29,2 C 28,3 C 49 % 1012,0 hPa 0,0 l/m 2,1 km/h (1 Bft) O 88 2 min 0,000 mm 4,3 UV-I 681 W/m 17,4 C 29,2 C 3,2 km/h (1 Bft) 100,00 %
05.08.2017 15:32 29,2 C 28,3 C 48 % 1012,0 hPa 0,0 l/m 8,9 km/h (2 Bft) S-SW 194 2 min 0,000 mm 4,4 UV-I 703 W/m 17,0 C 28,9 C 24,1 km/h (4 Bft) 97,87 %
05.08.2017 15:34 29,4 C 28,3 C 50 % 1012,0 hPa 0,0 l/m 10,9 km/h (2 Bft) W 273 2 min 0,000 mm 4,4 UV-I 697 W/m 17,9 C 28,9 C 16,1 km/h (3 Bft) 97,87 %
05.08.2017 15:36 29,7 C 28,3 C 50 % 1012,0 hPa 0,0 l/m 4,7 km/h (1 Bft) W-SW 248 2 min 0,000 mm 4,3 UV-I 693 W/m 18,1 C 29,7 C 11,3 km/h (2 Bft) 100,00 %
05.08.2017 15:38 29,9 C 28,3 C 49 % 1012,0 hPa 0,0 l/m 3,6 km/h (1 Bft) W-SW 250 2 min 0,000 mm 4,3 UV-I 691 W/m 18,0 C 29,9 C 8,0 km/h (2 Bft) 97,87 %
05.08.2017 15:40 29,9 C 28,3 C 49 % 1012,0 hPa 0,0 l/m 4,2 km/h (1 Bft) W 262 2 min 0,000 mm 4,2 UV-I 692 W/m 18,0 C 29,9 C 8,0 km/h (2 Bft) 100,00 %
05.08.2017 15:42 29,8 C 28,3 C 48 % 1012,0 hPa 0,0 l/m 4,1 km/h (1 Bft) W 273 2 min 0,000 mm 4,2 UV-I 688 W/m 17,6 C 29,8 C 6,4 km/h (2 Bft) 100,00 %
05.08.2017 15:44 29,9 C 28,3 C 48 % 1012,0 hPa 0,0 l/m 4,3 km/h (1 Bft) W 277 2 min 0,000 mm 4,1 UV-I 677 W/m 17,7 C 29,9 C 8,0 km/h (2 Bft) 97,87 %
05.08.2017 15:46 29,8 C 28,3 C 46 % 1012,0 hPa 0,0 l/m 3,5 km/h (1 Bft) W-NW 288 2 min 0,000 mm 4,1 UV-I 673 W/m 16,9 C 29,8 C 9,7 km/h (2 Bft) 100,00 %
05.08.2017 15:48 29,5 C 28,3 C 50 % 1011,9 hPa 0,0 l/m 2,3 km/h (1 Bft) O 90 2 min 0,000 mm 4,0 UV-I 662 W/m 18,0 C 29,5 C 4,8 km/h (1 Bft) 97,87 %
05.08.2017 15:50 29,4 C 28,3 C 49 % 1011,9 hPa 0,0 l/m 3,9 km/h (1 Bft) S 184 2 min 0,000 mm 4,0 UV-I 662 W/m 17,5 C 29,4 C 9,7 km/h (2 Bft) 100,00 %
05.08.2017 15:52 29,6 C 28,3 C 51 % 1012,0 hPa 0,0 l/m 3,5 km/h (1 Bft) S-SW 194 2 min 0,000 mm 4,0 UV-I 665 W/m 18,4 C 29,6 C 6,4 km/h (2 Bft) 98,00 %
05.08.2017 15:54 29,8 C 28,3 C 48 % 1011,9 hPa 0,0 l/m 3,1 km/h (1 Bft) S-SO 150 2 min 0,000 mm 3,9 UV-I 668 W/m 17,6 C 29,8 C 6,4 km/h (2 Bft) 97,87 %
05.08.2017 15:56 29,8 C 28,3 C 49 % 1011,9 hPa 0,0 l/m 4,5 km/h (1 Bft) S-SO 157 2 min 0,000 mm 3,9 UV-I 662 W/m 17,9 C 29,8 C 8,0 km/h (2 Bft) 95,74 %
05.08.2017 15:58 29,7 C 28,3 C 48 % 1011,9 hPa 0,0 l/m 1,4 km/h (1 Bft) S 175 2 min 0,000 mm 3,8 UV-I 642 W/m 17,5 C 29,7 C 3,2 km/h (1 Bft) 95,74 %
05.08.2017 16:00 29,8 C 28,3 C 49 % 1011,9 hPa 0,0 l/m 4,1 km/h (1 Bft) S-SO 147 2 min 0,483 mm 3,8 UV-I 650 W/m 17,9 C 29,8 C 8,0 km/h (2 Bft) 95,74 %
05.08.2017 16:03 29,9 C 28,3 C 49 % 1011,9 hPa 0,0 l/m 7,7 km/h (2 Bft) O-SO 103 3 min 0,000 mm 3,7 UV-I 643 W/m 18,0 C 29,8 C 12,9 km/h (3 Bft) 97,30 %
05.08.2017 16:04 29,9 C 28,3 C 47 % 1011,9 hPa 0,0 l/m 5,2 km/h (1 Bft) SO 127 1 min 0,000 mm 3,6 UV-I 633 W/m 17,3 C 29,9 C 9,7 km/h (2 Bft) 92,86 %
05.08.2017 16:06 29,9 C 28,3 C 48 % 1011,8 hPa 0,0 l/m 4,0 km/h (1 Bft) O-NO 77 2 min 0,000 mm 3,6 UV-I 634 W/m 17,7 C 29,9 C 6,4 km/h (2 Bft) 98,00 %
05.08.2017 16:08 29,8 C 28,3 C 48 % 1011,8 hPa 0,0 l/m 2,6 km/h (1 Bft) O-NO 65 2 min 0,000 mm 3,5 UV-I 628 W/m 17,6 C 29,8 C 4,8 km/h (1 Bft) 95,74 %
05.08.2017 16:10 29,8 C 28,3 C 47 % 1011,8 hPa 0,0 l/m 4,0 km/h (1 Bft) S-SW 206 2 min 0,000 mm 3,4 UV-I 612 W/m 17,2 C 29,8 C 8,0 km/h (2 Bft) 98,00 %
05.08.2017 16:12 29,8 C 28,3 C 48 % 1011,8 hPa 0,0 l/m 5,4 km/h (1 Bft) W 267 2 min 0,000 mm 3,4 UV-I 602 W/m 17,6 C 29,8 C 9,7 km/h (2 Bft) 97,87 %
05.08.2017 16:14 29,9 C 28,3 C 47 % 1011,8 hPa 0,0 l/m 5,5 km/h (1 Bft) W 265 2 min 0,000 mm 3,3 UV-I 590 W/m 17,3 C 29,9 C 9,7 km/h (2 Bft) 95,74 %
05.08.2017 16:16 29,8 C 28,3 C 48 % 1011,8 hPa 0,0 l/m 1,7 km/h (1 Bft) NW 315 2 min 0,000 mm 3,3 UV-I 588 W/m 17,6 C 29,8 C 4,8 km/h (1 Bft) 97,22 %
05.08.2017 16:18 29,8 C 28,3 C 49 % 1011,7 hPa 0,0 l/m 5,2 km/h (1 Bft) SW 214 2 min 0,000 mm 3,2 UV-I 582 W/m 17,9 C 29,8 C 8,0 km/h (2 Bft) 93,55 %
05.08.2017 16:20 29,8 C 28,3 C 50 % 1011,7 hPa 0,0 l/m 4,5 km/h (1 Bft) W 266 2 min 0,000 mm 3,2 UV-I 578 W/m 18,2 C 29,8 C 6,4 km/h (2 Bft) 95,74 %
05.08.2017 16:22 29,9 C 28,3 C 48 % 1011,7 hPa 0,0 l/m 2,5 km/h (1 Bft) W-NW 295 2 min 0,000 mm 3,1 UV-I 577 W/m 17,7 C 29,9 C 4,8 km/h (1 Bft) 93,62 %
05.08.2017 16:24 30,1 C 28,3 C 48 % 1011,7 hPa 0,0 l/m 7,5 km/h (2 Bft) W 275 2 min 0,000 mm 3,1 UV-I 570 W/m 17,9 C 30,0 C 11,3 km/h (2 Bft) 95,74 %
05.08.2017 16:26 30,1 C 28,3 C 48 % 1011,7 hPa 0,0 l/m 4,2 km/h (1 Bft) W-SW 253 2 min 0,000 mm 3,0 UV-I 567 W/m 17,9 C 30,1 C 8,0 km/h (2 Bft) 97,87 %
05.08.2017 16:28 30,1 C 28,3 C 48 % 1011,7 hPa 0,0 l/m 1,9 km/h (1 Bft) W-SW 253 2 min 0,000 mm 3,0 UV-I 562 W/m 17,9 C 30,1 C 4,8 km/h (1 Bft) 97,30 %
05.08.2017 16:30 30,1 C 28,3 C 47 % 1011,8 hPa 0,0 l/m 2,2 km/h (1 Bft) W-NW 298 2 min 0,000 mm 2,8 UV-I 561 W/m 17,5 C 30,1 C 4,8 km/h (1 Bft) 95,74 %
05.08.2017 16:32 30,2 C 28,3 C 48 % 1011,7 hPa 0,0 l/m 3,5 km/h (1 Bft) W 263 2 min 0,000 mm 2,9 UV-I 608 W/m 17,9 C 30,2 C 6,4 km/h (2 Bft) 95,74 %
05.08.2017 16:34 30,2 C 28,3 C 48 % 1011,8 hPa 0,0 l/m 1,1 km/h (1 Bft) W 262 2 min 0,000 mm 2,9 UV-I 575 W/m 17,9 C 30,2 C 4,8 km/h (1 Bft) 96,23 %
05.08.2017 16:36 30,4 C 28,3 C 47 % 1011,7 hPa 0,0 l/m 5,6 km/h (1 Bft) W-SW 257 2 min 0,000 mm 2,8 UV-I 565 W/m 17,8 C 30,4 C 9,7 km/h (2 Bft) 97,87 %
05.08.2017 16:38 30,3 C 28,3 C 46 % 1011,8 hPa 0,0 l/m 6,3 km/h (2 Bft) W 281 2 min 0,000 mm 2,8 UV-I 564 W/m 17,4 C 30,3 C 12,9 km/h (3 Bft) 96,00 %
05.08.2017 16:40 30,3 C 28,3 C 47 % 1011,7 hPa 0,0 l/m 7,8 km/h (2 Bft) W 261 2 min 0,000 mm 2,7 UV-I 543 W/m 17,7 C 30,2 C 14,5 km/h (3 Bft) 93,62 %
05.08.2017 16:42 30,2 C 28,3 C 48 % 1011,7 hPa 0,0 l/m 7,9 km/h (2 Bft) W-SW 251 2 min 0,000 mm 2,7 UV-I 544 W/m 17,9 C 30,1 C 11,3 km/h (2 Bft) 97,14 %
05.08.2017 16:44 30,2 C 28,3 C 46 % 1011,6 hPa 0,0 l/m 3,5 km/h (1 Bft) SW 232 2 min 0,000 mm 2,6 UV-I 532 W/m 17,3 C 30,2 C 6,4 km/h (2 Bft) 97,87 %
05.08.2017 16:46 30,0 C 28,3 C 48 % 1011,6 hPa 0,0 l/m 3,7 km/h (1 Bft) W 270 2 min 0,000 mm 2,6 UV-I 523 W/m 17,8 C 30,0 C 9,7 km/h (2 Bft) 97,87 %
05.08.2017 16:48 30,2 C 28,3 C 45 % 1011,6 hPa 0,0 l/m 5,0 km/h (1 Bft) W-SW 241 2 min 0,000 mm 2,5 UV-I 514 W/m 16,9 C 30,2 C 14,5 km/h (3 Bft) 95,92 %
05.08.2017 16:50 30,2 C 28,3 C 46 % 1011,6 hPa 0,0 l/m 1,1 km/h (1 Bft) W-SW 241 2 min 0,000 mm 2,4 UV-I 504 W/m 17,3 C 30,2 C 3,2 km/h (1 Bft) 95,74 %
05.08.2017 16:52 30,3 C 28,3 C 47 % 1011,6 hPa 0,0 l/m 7,4 km/h (2 Bft) W-SW 240 2 min 0,000 mm 2,4 UV-I 497 W/m 17,7 C 30,2 C 12,9 km/h (3 Bft) 96,00 %
05.08.2017 16:54 30,3 C 28,3 C 46 % 1011,5 hPa 0,0 l/m 5,1 km/h (1 Bft) SW 234 2 min 0,000 mm 2,2 UV-I 501 W/m 17,4 C 30,3 C 9,7 km/h (2 Bft) 95,74 %
05.08.2017 16:56 30,4 C 28,3 C 47 % 1011,5 hPa 0,0 l/m 8,6 km/h (2 Bft) S-SW 209 2 min 0,000 mm 2,3 UV-I 492 W/m 17,8 C 30,2 C 12,9 km/h (3 Bft) 95,83 %
05.08.2017 16:58 30,3 C 28,3 C 46 % 1011,5 hPa 0,0 l/m 9,6 km/h (2 Bft) SW 219 2 min 0,000 mm 2,2 UV-I 488 W/m 17,4 C 30,0 C 14,5 km/h (3 Bft) 98,00 %
05.08.2017 17:00 30,3 C 28,3 C 46 % 1011,5 hPa 0,0 l/m 12,4 km/h (3 Bft) SW 223 2 min 0,431 mm 2,0 UV-I 461 W/m 17,4 C 29,9 C 17,7 km/h (3 Bft) 97,87 %
05.08.2017 17:03 30,3 C 28,3 C 46 % 1011,5 hPa 0,0 l/m 11,1 km/h (2 Bft) W-SW 238 3 min 0,000 mm 2,1 UV-I 481 W/m 17,4 C 29,9 C 17,7 km/h (3 Bft) 95,71 %
05.08.2017 17:04 30,3 C 28,3 C 46 % 1011,5 hPa 0,0 l/m 5,8 km/h (2 Bft) W 262 1 min 0,000 mm 1,8 UV-I 451 W/m 17,4 C 30,3 C 11,3 km/h (2 Bft) 100,00 %
05.08.2017 17:06 30,2 C 28,3 C 46 % 1011,6 hPa 0,0 l/m 4,3 km/h (1 Bft) W 281 2 min 0,000 mm 2,0 UV-I 481 W/m 17,3 C 30,2 C 11,3 km/h (2 Bft) 100,00 %
05.08.2017 17:08 30,1 C 28,3 C 46 % 1011,5 hPa 0,0 l/m 4,7 km/h (1 Bft) W-NW 293 2 min 0,000 mm 1,6 UV-I 363 W/m 17,2 C 30,1 C 11,3 km/h (2 Bft) 100,00 %
05.08.2017 17:10 29,8 C 28,3 C 47 % 1011,5 hPa 0,0 l/m 3,9 km/h (1 Bft) W-SW 257 0 min 0,000 mm 1,6 UV-I 131 W/m 17,2 C 29,8 C 6,4 km/h (2 Bft) 100,00 %
05.08.2017 17:12 29,8 C 28,3 C 47 % 1011,5 hPa 0,0 l/m 2,4 km/h (1 Bft) W 273 2 min 0,000 mm 1,8 UV-I 325 W/m 17,2 C 29,8 C 4,8 km/h (1 Bft) 100,00 %
05.08.2017 17:14 29,9 C 28,3 C 47 % 1011,5 hPa 0,0 l/m 3,0 km/h (1 Bft) W-NW 288 2 min 0,000 mm 1,8 UV-I 469 W/m 17,3 C 29,9 C 6,4 km/h (2 Bft) 100,00 %
05.08.2017 17:16 30,1 C 28,3 C 48 % 1011,4 hPa 0,0 l/m 4,0 km/h (1 Bft) N-NW 331 2 min 0,000 mm 1,8 UV-I 463 W/m 17,9 C 30,1 C 6,4 km/h (2 Bft) 100,00 %
05.08.2017 17:18 30,3 C 28,3 C 48 % 1011,6 hPa 0,0 l/m 5,8 km/h (2 Bft) W 262 2 min 0,000 mm 1,7 UV-I 452 W/m 18,0 C 30,3 C 14,5 km/h (3 Bft) 95,74 %
05.08.2017 17:20 30,4 C 28,3 C 46 % 1011,5 hPa 0,0 l/m 5,3 km/h (1 Bft) W-NW 286 2 min 0,000 mm 1,7 UV-I 449 W/m 17,5 C 30,4 C 12,9 km/h (3 Bft) 100,00 %
05.08.2017 17:22 30,3 C 28,3 C 45 % 1011,6 hPa 0,0 l/m 0,5 km/h (0 Bft) W-NW 286 2 min 0,000 mm 1,6 UV-I 449 W/m 17,0 C 30,3 C 1,6 km/h (1 Bft) 100,00 %
05.08.2017 17:24 30,1 C 28,3 C 46 % 1011,5 hPa 0,0 l/m 1,1 km/h (1 Bft) N 5 2 min 0,000 mm 1,5 UV-I 449 W/m 17,2 C 30,1 C 4,8 km/h (1 Bft) 97,87 %
05.08.2017 17:26 30,2 C 28,3 C 46 % 1011,4 hPa 0,0 l/m 4,5 km/h (1 Bft) N-NW 331 2 min 0,000 mm 1,4 UV-I 411 W/m 17,3 C 30,2 C 8,0 km/h (2 Bft) 100,00 %
05.08.2017 17:28 30,2 C 28,3 C 46 % 1011,4 hPa 0,0 l/m 1,7 km/h (1 Bft) NW 311 0 min 0,000 mm 1,3 UV-I 198 W/m 17,3 C 30,2 C 4,8 km/h (1 Bft) 100,00 %
05.08.2017 17:30 30,2 C 28,3 C 46 % 1011,4 hPa 0,0 l/m 0,7 km/h (0 Bft) NW 311 2 min 0,000 mm 1,4 UV-I 340 W/m 17,3 C 30,2 C 3,2 km/h (1 Bft) 100,00 %
05.08.2017 17:32 30,3 C 28,3 C 47 % 1011,4 hPa 0,0 l/m 1,1 km/h (1 Bft) NW 304 2 min 0,000 mm 1,2 UV-I 428 W/m 17,7 C 30,3 C 4,8 km/h (1 Bft) 98,00 %
05.08.2017 17:34 30,3 C 28,3 C 47 % 1011,4 hPa 0,0 l/m 3,6 km/h (1 Bft) W-NW 294 2 min 0,000 mm 1,2 UV-I 277 W/m 17,7 C 30,3 C 4,8 km/h (1 Bft) 100,00 %
05.08.2017 17:36 30,1 C 28,3 C 47 % 1011,5 hPa 0,0 l/m 4,9 km/h (1 Bft) W-NW 291 0 min 0,000 mm 1,1 UV-I 150 W/m 17,5 C 30,1 C 6,4 km/h (2 Bft) 97,92 %
05.08.2017 17:38 29,9 C 28,3 C 48 % 1011,4 hPa 0,0 l/m 3,2 km/h (1 Bft) W-NW 301 0 min 0,000 mm 1,1 UV-I 139 W/m 17,7 C 29,9 C 6,4 km/h (2 Bft) 100,00 %
05.08.2017 17:40 29,7 C 28,3 C 49 % 1011,4 hPa 0,0 l/m 2,1 km/h (1 Bft) W-NW 295 0 min 0,000 mm 1,1 UV-I 164 W/m 17,8 C 29,7 C 4,8 km/h (1 Bft) 95,74 %
05.08.2017 17:42 29,6 C 28,3 C 49 % 1011,4 hPa 0,0 l/m 3,3 km/h (1 Bft) W-NW 292 0 min 0,000 mm 1,1 UV-I 133 W/m 17,7 C 29,6 C 4,8 km/h (1 Bft) 93,62 %
05.08.2017 17:44 29,4 C 28,3 C 52 % 1011,4 hPa 0,0 l/m 3,0 km/h (1 Bft) W-NW 292 0 min 0,000 mm 1,1 UV-I 133 W/m 18,5 C 29,4 C 4,8 km/h (1 Bft) 97,87 %
05.08.2017 17:46 29,5 C 28,3 C 49 % 1011,4 hPa 0,0 l/m 5,2 km/h (1 Bft) W-SW 250 2 min 0,000 mm 1,1 UV-I 333 W/m 17,6 C 29,5 C 9,7 km/h (2 Bft) 97,87 %
05.08.2017 17:48 29,7 C 28,3 C 50 % 1011,4 hPa 0,0 l/m 2,0 km/h (1 Bft) W-SW 253 2 min 0,000 mm 1,2 UV-I 351 W/m 18,1 C 29,7 C 3,2 km/h (1 Bft) 94,34 %
05.08.2017 17:50 29,8 C 28,3 C 49 % 1011,4 hPa 0,0 l/m 5,5 km/h (1 Bft) W 267 2 min 0,000 mm 1,1 UV-I 349 W/m 17,9 C 29,8 C 9,7 km/h (2 Bft) 97,87 %
05.08.2017 17:52 29,9 C 28,3 C 48 % 1011,3 hPa 0,0 l/m 3,0 km/h (1 Bft) W-NW 286 2 min 0,000 mm 1,1 UV-I 324 W/m 17,7 C 29,9 C 9,7 km/h (2 Bft) 97,87 %
05.08.2017 17:54 29,9 C 28,3 C 48 % 1011,3 hPa 0,0 l/m 1,5 km/h (1 Bft) W-NW 286 2 min 0,000 mm 1,0 UV-I 309 W/m 17,7 C 29,9 C 3,2 km/h (1 Bft) 95,74 %
05.08.2017 17:56 29,9 C 28,3 C 49 % 1011,3 hPa 0,0 l/m 0,5 km/h (0 Bft) W-NW 285 0 min 0,000 mm 0,9 UV-I 173 W/m 18,0 C 29,9 C 1,6 km/h (1 Bft) 93,62 %
05.08.2017 17:58 29,8 C 28,3 C 48 % 1011,3 hPa 0,0 l/m 1,7 km/h (1 Bft) W-SW 258 0 min 0,000 mm 0,9 UV-I 113 W/m 17,6 C 29,8 C 3,2 km/h (1 Bft) 97,87 %
05.08.2017 18:00 29,7 C 28,3 C 49 % 1011,3 hPa 0,0 l/m 2,1 km/h (1 Bft) W-SW 258 0 min 0,254 mm 0,9 UV-I 104 W/m 17,8 C 29,7 C 3,2 km/h (1 Bft) 95,74 %
05.08.2017 18:03 29,6 C 28,3 C 48 % 1011,3 hPa 0,0 l/m 3,5 km/h (1 Bft) W 270 0 min 0,000 mm 0,8 UV-I 202 W/m 17,4 C 29,6 C 6,4 km/h (2 Bft) 98,59 %
05.08.2017 18:04 29,6 C 28,3 C 48 % 1011,3 hPa 0,0 l/m 3,8 km/h (1 Bft) W 273 0 min 0,000 mm 0,8 UV-I 84 W/m 17,4 C 29,6 C 6,4 km/h (2 Bft) 91,30 %
05.08.2017 18:06 29,5 C 28,3 C 49 % 1011,3 hPa 0,0 l/m 2,2 km/h (1 Bft) W-NW 287 0 min 0,000 mm 0,8 UV-I 83 W/m 17,6 C 29,5 C 4,8 km/h (1 Bft) 95,74 %
05.08.2017 18:08 29,3 C 28,3 C 50 % 1011,3 hPa 0,0 l/m 3,3 km/h (1 Bft) W 267 0 min 0,000 mm 0,7 UV-I 89 W/m 17,8 C 29,3 C 6,4 km/h (2 Bft) 97,87 %
05.08.2017 18:10 29,2 C 28,3 C 49 % 1011,4 hPa 0,0 l/m 3,1 km/h (1 Bft) S-SW 207 0 min 0,000 mm 0,7 UV-I 102 W/m 17,4 C 29,2 C 6,4 km/h (2 Bft) 100,00 %
05.08.2017 18:12 29,0 C 28,3 C 50 % 1011,3 hPa 0,0 l/m 2,3 km/h (1 Bft) S-SW 209 0 min 0,000 mm 0,7 UV-I 104 W/m 17,5 C 29,0 C 4,8 km/h (1 Bft) 100,00 %
05.08.2017 18:14 28,9 C 28,3 C 50 % 1011,3 hPa 0,0 l/m 1,6 km/h (1 Bft) S-SW 212 0 min 0,000 mm 0,7 UV-I 118 W/m 17,4 C 28,9 C 4,8 km/h (1 Bft) 100,00 %
05.08.2017 18:16 28,8 C 28,3 C 52 % 1011,3 hPa 0,0 l/m 2,7 km/h (1 Bft) SW 220 0 min 0,000 mm 0,7 UV-I 93 W/m 17,9 C 28,8 C 4,8 km/h (1 Bft) 98,00 %
05.08.2017 18:18 28,8 C 28,3 C 52 % 1011,3 hPa 0,0 l/m 1,1 km/h (1 Bft) SW 220 0 min 0,000 mm 0,6 UV-I 85 W/m 17,9 C 28,8 C 3,2 km/h (1 Bft) 100,00 %
05.08.2017 18:20 28,7 C 28,3 C 53 % 1011,4 hPa 0,0 l/m 1,5 km/h (1 Bft) SW 220 0 min 0,000 mm 0,6 UV-I 84 W/m 18,2 C 28,7 C 4,8 km/h (1 Bft) 100,00 %
05.08.2017 18:22 28,6 C 28,3 C 52 % 1011,4 hPa 0,0 l/m 2,1 km/h (1 Bft) SW 220 0 min 0,000 mm 0,5 UV-I 86 W/m 17,8 C 28,6 C 3,2 km/h (1 Bft) 91,49 %
05.08.2017 18:24 28,6 C 28,3 C 53 % 1011,4 hPa 0,0 l/m 1,5 km/h (1 Bft) SW 220 0 min 0,000 mm 0,5 UV-I 88 W/m 18,1 C 28,6 C 3,2 km/h (1 Bft) 100,00 %
05.08.2017 18:26 28,6 C 28,3 C 53 % 1011,4 hPa 0,0 l/m 2,3 km/h (1 Bft) SW 220 0 min 0,000 mm 0,5 UV-I 86 W/m 18,1 C 28,6 C 3,2 km/h (1 Bft) 100,00 %
05.08.2017 18:28 28,6 C 28,3 C 52 % 1011,4 hPa 0,0 l/m 1,7 km/h (1 Bft) SW 220 0 min 0,000 mm 0,5 UV-I 91 W/m 17,8 C 28,6 C 3,2 km/h (1 Bft) 97,87 %
05.08.2017 18:30 28,6 C 28,3 C 52 % 1011,4 hPa 0,0 l/m 0,2 km/h (0 Bft) SW 220 0 min 0,000 mm 0,5 UV-I 96 W/m 17,8 C 28,6 C 1,6 km/h (1 Bft) 100,00 %
05.08.2017 18:32 28,6 C 28,3 C 52 % 1011,4 hPa 0,0 l/m 0,3 km/h (0 Bft) SW 220 0 min 0,000 mm 0,3 UV-I 91 W/m 17,8 C 28,6 C 1,6 km/h (1 Bft) 100,00 %
05.08.2017 18:34 28,6 C 28,3 C 52 % 1011,4 hPa 0,0 l/m 0,3 km/h (0 Bft) SW 220 0 min 0,000 mm 0,0 UV-I 94 W/m 17,8 C 28,6 C 1,6 km/h (1 Bft) 95,74 %
05.08.2017 18:36 28,6 C 28,3 C 52 % 1011,4 hPa 0,0 l/m 1,3 km/h (1 Bft) SW 220 0 min 0,000 mm 0,1 UV-I 110 W/m 17,8 C 28,6 C 3,2 km/h (1 Bft) 95,74 %
05.08.2017 18:38 28,7 C 28,3 C 52 % 1011,3 hPa 0,0 l/m 0,2 km/h (0 Bft) SW 220 0 min 0,000 mm 0,5 UV-I 144 W/m 17,8 C 28,7 C 1,6 km/h (1 Bft) 100,00 %
05.08.2017 18:40 28,8 C 28,3 C 55 % 1011,2 hPa 0,0 l/m 0,1 km/h (0 Bft) SW 220 2 min 0,000 mm 0,5 UV-I 233 W/m 18,8 C 28,8 C 1,6 km/h (1 Bft) 100,00 %
05.08.2017 18:42 28,9 C 28,3 C 53 % 1011,3 hPa 0,0 l/m 0,7 km/h (0 Bft) SW 220 2 min 0,000 mm 0,5 UV-I 231 W/m 18,3 C 28,9 C 1,6 km/h (1 Bft) 100,00 %
05.08.2017 18:44 29,1 C 28,3 C 52 % 1011,3 hPa 0,0 l/m 0,4 km/h (0 Bft) SW 220 2 min 0,000 mm 0,1 UV-I 218 W/m 18,2 C 29,1 C 1,6 km/h (1 Bft) 100,00 %
05.08.2017 18:46 29,2 C 28,3 C 51 % 1011,3 hPa 0,0 l/m 2,9 km/h (1 Bft) SW 233 2 min 0,000 mm 0,0 UV-I 202 W/m 18,0 C 29,2 C 4,8 km/h (1 Bft) 100,00 %
05.08.2017 18:48 29,3 C 28,3 C 50 % 1011,4 hPa 0,0 l/m 3,7 km/h (1 Bft) W 260 2 min 0,000 mm 0,0 UV-I 149 W/m 17,8 C 29,3 C 6,4 km/h (2 Bft) 97,87 %
05.08.2017 18:50 29,4 C 28,3 C 52 % 1011,3 hPa 0,0 l/m 2,5 km/h (1 Bft) W 260 0 min 0,000 mm 0,0 UV-I 112 W/m 18,5 C 29,4 C 4,8 km/h (1 Bft) 95,74 %
05.08.2017 18:52 29,3 C 28,3 C 50 % 1011,3 hPa 0,0 l/m 2,9 km/h (1 Bft) W 260 0 min 0,000 mm 0,0 UV-I 85 W/m 17,8 C 29,3 C 4,8 km/h (1 Bft) 100,00 %
05.08.2017 18:54 29,3 C 28,3 C 50 % 1011,4 hPa 0,0 l/m 4,0 km/h (1 Bft) W 260 0 min 0,000 mm 0,0 UV-I 59 W/m 17,8 C 29,3 C 6,4 km/h (2 Bft) 100,00 %
05.08.2017 18:56 29,1 C 28,3 C 50 % 1011,5 hPa 0,0 l/m 3,5 km/h (1 Bft) W 260 0 min 0,000 mm 0,0 UV-I 44 W/m 17,6 C 29,1 C 6,4 km/h (2 Bft) 97,87 %
05.08.2017 18:58 29,0 C 28,3 C 51 % 1011,5 hPa 0,0 l/m 2,2 km/h (1 Bft) W 260 0 min 0,000 mm 0,0 UV-I 38 W/m 17,8 C 29,0 C 4,8 km/h (1 Bft) 96,00 %
05.08.2017 19:00 28,8 C 28,3 C 51 % 1011,4 hPa 0,0 l/m 3,0 km/h (1 Bft) W 263 0 min 0,102 mm 0,0 UV-I 35 W/m 17,6 C 28,8 C 6,4 km/h (2 Bft) 97,87 %
05.08.2017 19:02 28,7 C 28,3 C 52 % 1011,4 hPa 0,0 l/m 1,5 km/h (1 Bft) W 263 0 min 0,000 mm 0,0 UV-I 35 W/m 17,8 C 28,7 C 3,2 km/h (1 Bft) 97,37 %
05.08.2017 19:04 28,5 C 28,3 C 52 % 1011,5 hPa 0,0 l/m 1,8 km/h (1 Bft) W 263 0 min 0,000 mm 0,0 UV-I 39 W/m 17,7 C 28,5 C 4,8 km/h (1 Bft) 100,00 %
05.08.2017 19:06 28,4 C 28,3 C 52 % 1011,4 hPa 0,0 l/m 2,7 km/h (1 Bft) W 263 0 min 0,000 mm 0,0 UV-I 41 W/m 17,6 C 28,4 C 6,4 km/h (2 Bft) 100,00 %
05.08.2017 19:08 28,4 C 28,3 C 52 % 1011,4 hPa 0,0 l/m 3,0 km/h (1 Bft) W 263 0 min 0,000 mm 0,0 UV-I 43 W/m 17,6 C 28,4 C 4,8 km/h (1 Bft) 97,87 %
05.08.2017 19:10 28,3 C 28,3 C 52 % 1011,4 hPa 0,0 l/m 2,0 km/h (1 Bft) W 263 0 min 0,000 mm 0,0 UV-I 46 W/m 17,5 C 28,3 C 3,2 km/h (1 Bft) 97,87 %
05.08.2017 19:12 28,3 C 28,3 C 53 % 1011,5 hPa 0,0 l/m 1,1 km/h (1 Bft) W 263 0 min 0,000 mm 0,0 UV-I 48 W/m 17,8 C 28,3 C 3,2 km/h (1 Bft) 100,00 %
05.08.2017 19:14 28,3 C 28,3 C 53 % 1011,4 hPa 0,0 l/m 1,0 km/h (0 Bft) W 263 0 min 0,000 mm 0,0 UV-I 51 W/m 17,8 C 28,3 C 3,2 km/h (1 Bft) 100,00 %
05.08.2017 19:16 28,3 C 28,3 C 55 % 1011,4 hPa 0,0 l/m 0,8 km/h (0 Bft) W 263 0 min 0,000 mm 0,0 UV-I 52 W/m 18,4 C 28,3 C 3,2 km/h (1 Bft) 100,00 %
05.08.2017 19:18 28,1 C 28,3 C 60 % 1011,5 hPa 0,0 l/m 0,2 km/h (0 Bft) W 263 0 min 0,000 mm 0,0 UV-I 53 W/m 19,6 C 28,1 C 1,6 km/h (1 Bft) 95,74 %
05.08.2017 19:20 27,7 C 28,3 C 61 % 1011,5 hPa 0,0 l/m 0,0 km/h (0 Bft) W 263 0 min 0,000 mm 0,0 UV-I 53 W/m 19,5 C 27,7 C 0,0 km/h (0 Bft) 97,87 %
05.08.2017 19:22 27,4 C 28,3 C 63 % 1011,4 hPa 0,0 l/m 0,0 km/h (0 Bft) W 263 0 min 0,000 mm 0,0 UV-I 52 W/m 19,7 C 27,4 C 0,0 km/h (0 Bft) 100,00 %
05.08.2017 19:24 27,1 C 28,3 C 63 % 1011,4 hPa 0,0 l/m 0,0 km/h (0 Bft) W 263 0 min 0,000 mm 0,0 UV-I 50 W/m 19,4 C 27,1 C 0,0 km/h (0 Bft) 97,87 %
05.08.2017 19:26 27,1 C 28,3 C 62 % 1011,4 hPa 0,0 l/m 0,6 km/h (0 Bft) W 263 0 min 0,000 mm 0,0 UV-I 48 W/m 19,2 C 27,1 C 1,6 km/h (1 Bft) 95,74 %
05.08.2017 19:28 27,2 C 28,3 C 60 % 1011,5 hPa 0,0 l/m 1,8 km/h (1 Bft) W 263 0 min 0,000 mm 0,0 UV-I 47 W/m 18,7 C 27,2 C 3,2 km/h (1 Bft) 95,83 %
05.08.2017 19:30 27,3 C 28,3 C 59 % 1011,6 hPa 0,0 l/m 2,0 km/h (1 Bft) W 263 0 min 0,000 mm 0,0 UV-I 45 W/m 18,6 C 27,3 C 3,2 km/h (1 Bft) 94,23 %
05.08.2017 19:32 27,3 C 28,3 C 60 % 1011,6 hPa 0,0 l/m 2,9 km/h (1 Bft) W 263 0 min 0,000 mm 0,0 UV-I 44 W/m 18,8 C 27,3 C 4,8 km/h (1 Bft) 93,75 %
05.08.2017 19:34 27,3 C 28,3 C 61 % 1011,8 hPa 0,0 l/m 3,2 km/h (1 Bft) W 263 0 min 0,000 mm 0,0 UV-I 41 W/m 19,1 C 27,3 C 4,8 km/h (1 Bft) 93,62 %
05.08.2017 19:36 27,3 C 28,3 C 61 % 1011,8 hPa 0,0 l/m 2,4 km/h (1 Bft) W 263 0 min 0,000 mm 0,0 UV-I 40 W/m 19,1 C 27,3 C 4,8 km/h (1 Bft) 93,62 %
05.08.2017 19:38 27,3 C 28,3 C 60 % 1011,7 hPa 0,0 l/m 0,2 km/h (0 Bft) W 263 0 min 0,000 mm 0,0 UV-I 40 W/m 18,8 C 27,3 C 1,6 km/h (1 Bft) 95,74 %
05.08.2017 19:40 27,3 C 28,3 C 65 % 1011,7 hPa 0,0 l/m 0,4 km/h (0 Bft) W 263 0 min 0,000 mm 0,0 UV-I 41 W/m 20,1 C 27,3 C 3,2 km/h (1 Bft) 93,62 %
05.08.2017 19:42 27,2 C 28,3 C 60 % 1011,7 hPa 0,0 l/m 0,6 km/h (0 Bft) W 263 0 min 0,000 mm 0,0 UV-I 43 W/m 18,7 C 27,2 C 3,2 km/h (1 Bft) 97,37 %
05.08.2017 19:44 27,2 C 28,3 C 60 % 1011,7 hPa 0,0 l/m 1,2 km/h (1 Bft) W 263 0 min 0,000 mm 0,0 UV-I 44 W/m 18,7 C 27,2 C 3,2 km/h (1 Bft) 93,62 %
05.08.2017 19:46 27,3 C 28,3 C 60 % 1011,6 hPa 0,0 l/m 2,4 km/h (1 Bft) W 263 0 min 0,000 mm 0,0 UV-I 39 W/m 18,8 C 27,3 C 3,2 km/h (1 Bft) 95,74 %
05.08.2017 19:48 27,3 C 28,3 C 59 % 1011,6 hPa 0,0 l/m 2,4 km/h (1 Bft) W 263 0 min 0,000 mm 0,0 UV-I 33 W/m 18,6 C 27,3 C 3,2 km/h (1 Bft) 93,62 %
05.08.2017 19:50 27,3 C 28,3 C 59 % 1011,6 hPa 0,0 l/m 2,2 km/h (1 Bft) W 263 0 min 0,000 mm 0,0 UV-I 31 W/m 18,6 C 27,3 C 3,2 km/h (1 Bft) 95,74 %
05.08.2017 19:52 27,3 C 28,3 C 59 % 1011,5 hPa 0,0 l/m 1,2 km/h (1 Bft) W 263 0 min 0,000 mm 0,0 UV-I 28 W/m 18,6 C 27,3 C 3,2 km/h (1 Bft) 95,74 %
05.08.2017 19:54 27,3 C 28,3 C 61 % 1011,5 hPa 0,0 l/m 0,2 km/h (0 Bft) W 263 0 min 0,000 mm 0,0 UV-I 28 W/m 19,1 C 27,3 C 1,6 km/h (1 Bft) 93,62 %
05.08.2017 19:56 27,3 C 28,3 C 60 % 1011,6 hPa 0,0 l/m 0,7 km/h (0 Bft) W 263 0 min 0,000 mm 0,0 UV-I 26 W/m 18,8 C 27,3 C 1,6 km/h (1 Bft) 94,00 %
05.08.2017 19:58 27,3 C 28,3 C 59 % 1011,6 hPa 0,0 l/m 1,6 km/h (1 Bft) W 263 0 min 0,000 mm 0,0 UV-I 27 W/m 18,6 C 27,3 C 3,2 km/h (1 Bft) 96,00 %
05.08.2017 20:00 27,3 C 28,3 C 59 % 1011,5 hPa 0,0 l/m 1,7 km/h (1 Bft) W 263 0 min 0,051 mm 0,0 UV-I 31 W/m 18,6 C 27,3 C 3,2 km/h (1 Bft) 100,00 %
05.08.2017 20:02 27,2 C 28,3 C 59 % 1011,6 hPa 0,0 l/m 2,1 km/h (1 Bft) W 263 0 min 0,000 mm 0,0 UV-I 28 W/m 18,5 C 27,2 C 3,2 km/h (1 Bft) 95,74 %
05.08.2017 20:04 27,1 C 28,3 C 61 % 1011,6 hPa 0,0 l/m 1,4 km/h (1 Bft) W 263 0 min 0,000 mm 0,0 UV-I 27 W/m 18,9 C 27,1 C 3,2 km/h (1 Bft) 97,92 %
05.08.2017 20:06 27,1 C 28,3 C 61 % 1011,5 hPa 0,0 l/m 1,3 km/h (1 Bft) W 263 2 min 0,000 mm 0,0 UV-I 33 W/m 18,9 C 27,1 C 3,2 km/h (1 Bft) 97,87 %
05.08.2017 20:08 27,1 C 28,3 C 60 % 1011,5 hPa 0,0 l/m 0,8 km/h (0 Bft) W 263 2 min 0,000 mm 0,0 UV-I 40 W/m 18,6 C 27,1 C 3,2 km/h (1 Bft) 95,74 %
05.08.2017 20:10 27,1 C 28,3 C 60 % 1011,5 hPa 0,0 l/m 1,0 km/h (0 Bft) W 263 2 min 0,000 mm 0,0 UV-I 46 W/m 18,6 C 27,1 C 3,2 km/h (1 Bft) 97,87 %
05.08.2017 20:12 27,0 C 28,3 C 59 % 1011,5 hPa 0,0 l/m 1,7 km/h (1 Bft) W 263 2 min 0,000 mm 0,0 UV-I 47 W/m 18,3 C 27,0 C 3,2 km/h (1 Bft) 95,74 %
05.08.2017 20:14 27,1 C 28,3 C 59 % 1011,5 hPa 0,0 l/m 3,9 km/h (1 Bft) W 275 2 min 0,000 mm 0,0 UV-I 47 W/m 18,4 C 27,1 C 6,4 km/h (2 Bft) 98,00 %
05.08.2017 20:16 27,2 C 28,3 C 58 % 1011,6 hPa 0,0 l/m 3,9 km/h (1 Bft) W 275 2 min 0,000 mm 0,0 UV-I 33 W/m 18,2 C 27,2 C 4,8 km/h (1 Bft) 97,87 %
05.08.2017 20:18 27,2 C 28,3 C 58 % 1011,6 hPa 0,0 l/m 3,0 km/h (1 Bft) W 275 2 min 0,000 mm 0,0 UV-I 28 W/m 18,2 C 27,2 C 4,8 km/h (1 Bft) 95,74 %
05.08.2017 20:20 27,3 C 28,3 C 57 % 1011,7 hPa 0,0 l/m 3,8 km/h (1 Bft) W 275 2 min 0,000 mm 0,0 UV-I 22 W/m 18,0 C 27,3 C 6,4 km/h (2 Bft) 94,00 %
05.08.2017 20:22 27,4 C 28,3 C 57 % 1011,8 hPa 0,0 l/m 4,8 km/h (1 Bft) W 274 2 min 0,000 mm 0,0 UV-I 17 W/m 18,1 C 27,4 C 6,4 km/h (2 Bft) 97,87 %
05.08.2017 20:24 27,4 C 28,3 C 58 % 1011,8 hPa 0,0 l/m 5,4 km/h (1 Bft) W-SW 246 0 min 0,000 mm 0,0 UV-I 11 W/m 18,4 C 27,4 C 6,4 km/h (2 Bft) 97,87 %
05.08.2017 20:26 27,4 C 28,3 C 58 % 1011,9 hPa 0,0 l/m 4,9 km/h (1 Bft) W-SW 247 0 min 0,000 mm 0,0 UV-I 6 W/m 18,4 C 27,4 C 6,4 km/h (2 Bft) 97,87 %
05.08.2017 20:28 27,3 C 28,3 C 58 % 1012,0 hPa 0,0 l/m 4,1 km/h (1 Bft) W-SW 247 0 min 0,000 mm 0,0 UV-I 0 W/m 18,3 C 27,3 C 6,4 km/h (2 Bft) 97,37 %
05.08.2017 20:30 27,3 C 28,3 C 57 % 1012,0 hPa 0,0 l/m 4,1 km/h (1 Bft) W-SW 247 0 min 0,000 mm 0,0 UV-I 28 W/m 18,0 C 27,3 C 6,4 km/h (2 Bft) 98,08 %
05.08.2017 20:32 27,3 C 28,3 C 58 % 1012,0 hPa 0,0 l/m 3,3 km/h (1 Bft) W-SW 247 0 min 0,000 mm 0,0 UV-I 31 W/m 18,3 C 27,3 C 6,4 km/h (2 Bft) 100,00 %
05.08.2017 20:34 27,3 C 28,3 C 58 % 1012,0 hPa 0,0 l/m 3,8 km/h (1 Bft) W-SW 247 0 min 0,000 mm 0,0 UV-I 31 W/m 18,3 C 27,3 C 6,4 km/h (2 Bft) 97,87 %
05.08.2017 20:36 27,3 C 28,3 C 57 % 1012,1 hPa 0,0 l/m 3,6 km/h (1 Bft) W-SW 247 0 min 0,000 mm 0,0 UV-I 27 W/m 18,0 C 27,3 C 4,8 km/h (1 Bft) 100,00 %
05.08.2017 20:38 27,3 C 28,3 C 58 % 1012,0 hPa 0,0 l/m 2,8 km/h (1 Bft) W-SW 247 0 min 0,000 mm 0,0 UV-I 23 W/m 18,3 C 27,3 C 4,8 km/h (1 Bft) 100,00 %
05.08.2017 20:40 27,3 C 28,3 C 59 % 1012,0 hPa 0,0 l/m 1,3 km/h (1 Bft) W-SW 247 0 min 0,000 mm 0,0 UV-I 18 W/m 18,6 C 27,3 C 3,2 km/h (1 Bft) 100,00 %
05.08.2017 20:42 27,2 C 28,3 C 59 % 1012,0 hPa 0,0 l/m 0,5 km/h (0 Bft) W-SW 247 0 min 0,000 mm 0,0 UV-I 13 W/m 18,5 C 27,2 C 1,6 km/h (1 Bft) 100,00 %
05.08.2017 20:44 27,1 C 28,3 C 63 % 1012,0 hPa 0,0 l/m 0,2 km/h (0 Bft) W-SW 247 0 min 0,000 mm 0,0 UV-I 7 W/m 19,4 C 27,1 C 1,6 km/h (1 Bft) 100,00 %
05.08.2017 20:46 26,8 C 28,3 C 63 % 1011,9 hPa 0,0 l/m 1,0 km/h (0 Bft) W-SW 247 0 min 0,000 mm 0,0 UV-I 3 W/m 19,1 C 26,8 C 1,6 km/h (1 Bft) 97,87 %
05.08.2017 20:48 26,6 C 28,3 C 64 % 1011,9 hPa 0,0 l/m 2,3 km/h (1 Bft) W-SW 247 0 min 0,000 mm 0,0 UV-I 0 W/m 19,2 C 26,6 C 3,2 km/h (1 Bft) 97,87 %
05.08.2017 20:50 26,4 C 28,3 C 62 % 1012,0 hPa 0,0 l/m 0,9 km/h (0 Bft) W-SW 247 0 min 0,000 mm 0,0 UV-I 0 W/m 18,5 C 26,4 C 3,2 km/h (1 Bft) 98,00 %
05.08.2017 20:52 26,4 C 28,3 C 62 % 1012,1 hPa 0,0 l/m 1,1 km/h (1 Bft) W-SW 247 0 min 0,000 mm 0,0 UV-I 0 W/m 18,5 C 26,4 C 3,2 km/h (1 Bft) 100,00 %
05.08.2017 20:54 26,3 C 28,3 C 63 % 1012,1 hPa 0,0 l/m 0,8 km/h (0 Bft) W-SW 247 0 min 0,000 mm 0,0 UV-I 0 W/m 18,7 C 26,3 C 1,6 km/h (1 Bft) 98,00 %
05.08.2017 20:56 26,1 C 28,3 C 66 % 1012,1 hPa 0,0 l/m 0,7 km/h (0 Bft) W-SW 247 0 min 0,000 mm 0,0 UV-I 0 W/m 19,2 C 26,1 C 3,2 km/h (1 Bft) 97,14 %
05.08.2017 20:58 25,8 C 28,3 C 67 % 1012,1 hPa 0,0 l/m 0,5 km/h (0 Bft) W-SW 247 0 min 0,000 mm 0,0 UV-I 0 W/m 19,2 C 25,8 C 1,6 km/h (1 Bft) 100,00 %
05.08.2017 21:00 25,6 C 28,3 C 68 % 1012,1 hPa 0,0 l/m 0,6 km/h (0 Bft) W-SW 247 0 min 0,051 mm 0,0 UV-I 0 W/m 19,2 C 25,6 C 1,6 km/h (1 Bft) 100,00 %
05.08.2017 21:02 25,4 C 28,3 C 68 % 1012,2 hPa 0,0 l/m 0,3 km/h (0 Bft) W-SW 247 0 min 0,000 mm 0,0 UV-I 0 W/m 19,1 C 25,4 C 1,6 km/h (1 Bft) 95,74 %
05.08.2017 21:04 25,3 C 28,3 C 69 % 1012,2 hPa 0,0 l/m 0,4 km/h (0 Bft) W-SW 247 0 min 0,000 mm 0,0 UV-I 0 W/m 19,2 C 25,3 C 1,6 km/h (1 Bft) 97,87 %
05.08.2017 21:06 25,2 C 28,3 C 70 % 1012,3 hPa 0,0 l/m 0,5 km/h (0 Bft) W-SW 247 0 min 0,000 mm 0,0 UV-I 0 W/m 19,3 C 25,2 C 3,2 km/h (1 Bft) 100,00 %
05.08.2017 21:08 25,2 C 28,3 C 69 % 1012,3 hPa 0,0 l/m 0,1 km/h (0 Bft) W-SW 247 0 min 0,000 mm 0,0 UV-I 0 W/m 19,1 C 25,2 C 1,6 km/h (1 Bft) 100,00 %
05.08.2017 21:10 25,2 C 28,3 C 68 % 1012,4 hPa 0,0 l/m 0,3 km/h (0 Bft) W-SW 247 0 min 0,000 mm 0,0 UV-I 0 W/m 18,9 C 25,2 C 1,6 km/h (1 Bft) 100,00 %
05.08.2017 21:12 25,2 C 28,3 C 69 % 1012,3 hPa 0,0 l/m 0,9 km/h (0 Bft) W-SW 247 0 min 0,000 mm 0,0 UV-I 0 W/m 19,1 C 25,2 C 1,6 km/h (1 Bft) 100,00 %
05.08.2017 21:14 25,1 C 28,3 C 69 % 1012,4 hPa 0,0 l/m 0,7 km/h (0 Bft) W-SW 247 0 min 0,000 mm 0,0 UV-I 0 W/m 19,0 C 25,1 C 1,6 km/h (1 Bft) 100,00 %
05.08.2017 21:16 25,1 C 28,3 C 68 % 1012,4 hPa 0,0 l/m 0,9 km/h (0 Bft) W-SW 247 0 min 0,000 mm 0,0 UV-I 0 W/m 18,8 C 25,1 C 1,6 km/h (1 Bft) 100,00 %
05.08.2017 21:18 25,1 C 28,3 C 69 % 1012,4 hPa 0,0 l/m 1,0 km/h (0 Bft) W-SW 247 0 min 0,000 mm 0,0 UV-I 0 W/m 19,0 C 25,1 C 3,2 km/h (1 Bft) 100,00 %
05.08.2017 21:20 25,1 C 28,3 C 69 % 1012,4 hPa 0,0 l/m 1,9 km/h (1 Bft) W-SW 247 0 min 0,000 mm 0,0 UV-I 0 W/m 19,0 C 25,1 C 3,2 km/h (1 Bft) 97,37 %
05.08.2017 21:22 25,1 C 28,3 C 67 % 1012,4 hPa 0,0 l/m 1,8 km/h (1 Bft) W-SW 247 0 min 0,000 mm 0,0 UV-I 0 W/m 18,5 C 25,1 C 3,2 km/h (1 Bft) 97,87 %
05.08.2017 21:24 25,3 C 28,3 C 67 % 1012,4 hPa 0,0 l/m 1,3 km/h (1 Bft) W-SW 247 0 min 0,000 mm 0,0 UV-I 0 W/m 18,7 C 25,3 C 3,2 km/h (1 Bft) 95,83 %
05.08.2017 21:26 25,4 C 28,3 C 67 % 1012,4 hPa 0,0 l/m 1,3 km/h (1 Bft) W-SW 247 0 min 0,000 mm 0,0 UV-I 0 W/m 18,8 C 25,4 C 3,2 km/h (1 Bft) 94,00 %
05.08.2017 21:28 25,4 C 28,3 C 68 % 1012,4 hPa 0,0 l/m 0,6 km/h (0 Bft) W-SW 247 0 min 0,000 mm 0,0 UV-I 0 W/m 19,1 C 25,4 C 1,6 km/h (1 Bft) 98,00 %
05.08.2017 21:30 25,4 C 28,3 C 68 % 1012,3 hPa 0,0 l/m 0,4 km/h (0 Bft) W-SW 247 0 min 0,000 mm 0,0 UV-I 0 W/m 19,1 C 25,4 C 1,6 km/h (1 Bft) 97,87 %
05.08.2017 21:32 25,4 C 28,3 C 68 % 1012,3 hPa 0,0 l/m 1,0 km/h (0 Bft) W-SW 247 0 min 0,000 mm 0,0 UV-I 0 W/m 19,1 C 25,4 C 3,2 km/h (1 Bft) 95,74 %
05.08.2017 21:34 25,4 C 28,3 C 69 % 1012,3 hPa 0,0 l/m 0,4 km/h (0 Bft) W-SW 246 0 min 0,000 mm 0,0 UV-I 0 W/m 19,3 C 25,4 C 1,6 km/h (1 Bft) 97,87 %
05.08.2017 21:36 25,3 C 28,3 C 69 % 1012,4 hPa 0,0 l/m 1,2 km/h (1 Bft) W-SW 246 0 min 0,000 mm 0,0 UV-I 0 W/m 19,2 C 25,3 C 3,2 km/h (1 Bft) 97,87 %
05.08.2017 21:38 25,2 C 28,3 C 68 % 1012,5 hPa 0,0 l/m 1,5 km/h (1 Bft) W-SW 246 0 min 0,000 mm 0,0 UV-I 0 W/m 18,9 C 25,2 C 3,2 km/h (1 Bft) 97,37 %
05.08.2017 21:40 25,2 C 28,3 C 67 % 1012,5 hPa 0,0 l/m 1,9 km/h (1 Bft) W-SW 246 0 min 0,000 mm 0,0 UV-I 0 W/m 18,6 C 25,2 C 3,2 km/h (1 Bft) 96,00 %
05.08.2017 21:42 25,3 C 28,3 C 67 % 1012,5 hPa 0,0 l/m 1,0 km/h (0 Bft) SW 219 0 min 0,000 mm 0,0 UV-I 0 W/m 18,7 C 25,3 C 3,2 km/h (1 Bft) 97,87 %
05.08.2017 21:44 25,3 C 28,3 C 67 % 1012,5 hPa 0,0 l/m 2,3 km/h (1 Bft) S-SW 211 0 min 0,000 mm 0,0 UV-I 0 W/m 18,7 C 25,3 C 4,8 km/h (1 Bft) 95,74 %
05.08.2017 21:46 25,3 C 28,3 C 66 % 1012,6 hPa 0,0 l/m 1,5 km/h (1 Bft) S-SW 198 0 min 0,000 mm 0,0 UV-I 0 W/m 18,5 C 25,3 C 3,2 km/h (1 Bft) 97,87 %
05.08.2017 21:48 25,5 C 28,3 C 65 % 1012,7 hPa 0,0 l/m 3,8 km/h (1 Bft) S-SO 167 0 min 0,000 mm 0,0 UV-I 0 W/m 18,4 C 25,5 C 6,4 km/h (2 Bft) 97,87 %
05.08.2017 21:50 25,6 C 28,3 C 65 % 1012,8 hPa 0,0 l/m 5,8 km/h (2 Bft) S 174 0 min 0,000 mm 0,0 UV-I 0 W/m 18,5 C 25,6 C 9,7 km/h (2 Bft) 97,87 %
05.08.2017 21:52 25,7 C 28,3 C 65 % 1013,0 hPa 0,0 l/m 5,8 km/h (2 Bft) S-SW 206 0 min 0,000 mm 0,0 UV-I 0 W/m 18,6 C 25,7 C 9,7 km/h (2 Bft) 97,87 %
05.08.2017 21:54 25,8 C 28,3 C 66 % 1013,1 hPa 0,0 l/m 5,9 km/h (2 Bft) S 179 0 min 0,000 mm 0,0 UV-I 0 W/m 19,0 C 25,8 C 8,0 km/h (2 Bft) 100,00 %
05.08.2017 21:56 25,7 C 28,3 C 66 % 1013,1 hPa 0,0 l/m 6,2 km/h (2 Bft) S 170 0 min 0,000 mm 0,0 UV-I 0 W/m 18,9 C 25,7 C 9,7 km/h (2 Bft) 98,11 %
05.08.2017 21:58 25,7 C 28,3 C 65 % 1012,9 hPa 0,0 l/m 4,5 km/h (1 Bft) S-SO 165 0 min 0,000 mm 0,0 UV-I 0 W/m 18,6 C 25,7 C 8,0 km/h (2 Bft) 97,87 %
05.08.2017 22:00 25,8 C 28,3 C 65 % 1012,9 hPa 0,0 l/m 3,0 km/h (1 Bft) S 189 0 min 0,000 mm 0,0 UV-I 0 W/m 18,7 C 25,8 C 6,4 km/h (2 Bft) 100,00 %
05.08.2017 22:02 25,8 C 28,3 C 65 % 1013,0 hPa 0,0 l/m 4,4 km/h (1 Bft) S-SO 166 0 min 0,025 mm 0,0 UV-I 0 W/m 18,7 C 25,8 C 8,0 km/h (2 Bft) 100,00 %
05.08.2017 22:04 25,8 C 28,3 C 66 % 1013,0 hPa 0,0 l/m 5,6 km/h (1 Bft) S-SW 195 0 min 0,000 mm 0,0 UV-I 0 W/m 19,0 C 25,8 C 11,3 km/h (2 Bft) 100,00 %
05.08.2017 22:06 25,8 C 28,3 C 66 % 1013,1 hPa 0,0 l/m 6,3 km/h (2 Bft) S-SO 158 0 min 0,000 mm 0,0 UV-I 0 W/m 19,0 C 25,8 C 14,5 km/h (3 Bft) 97,92 %
05.08.2017 22:08 25,8 C 28,3 C 66 % 1013,1 hPa 0,0 l/m 5,4 km/h (1 Bft) S-SO 159 0 min 0,000 mm 0,0 UV-I 0 W/m 19,0 C 25,8 C 9,7 km/h (2 Bft) 100,00 %
05.08.2017 22:10 25,8 C 28,3 C 66 % 1013,1 hPa 0,0 l/m 6,9 km/h (2 Bft) S-SO 161 0 min 0,000 mm 0,0 UV-I 0 W/m 19,0 C 25,7 C 11,3 km/h (2 Bft) 97,87 %
05.08.2017 22:12 25,8 C 28,3 C 66 % 1013,1 hPa 0,0 l/m 7,0 km/h (2 Bft) S 169 0 min 0,000 mm 0,0 UV-I 0 W/m 19,0 C 25,7 C 11,3 km/h (2 Bft) 100,00 %
05.08.2017 22:14 25,8 C 28,3 C 66 % 1013,1 hPa 0,0 l/m 6,6 km/h (2 Bft) S-SO 164 0 min 0,000 mm 0,0 UV-I 0 W/m 19,0 C 25,8 C 12,9 km/h (3 Bft) 97,37 %
05.08.2017 22:16 25,8 C 28,3 C 66 % 1013,1 hPa 0,0 l/m 8,0 km/h (2 Bft) S-SO 161 0 min 0,000 mm 0,0 UV-I 0 W/m 19,0 C 25,4 C 16,1 km/h (3 Bft) 97,87 %
05.08.2017 22:18 25,8 C 28,3 C 66 % 1013,2 hPa 0,0 l/m 8,1 km/h (2 Bft) S-SW 195 0 min 0,000 mm 0,0 UV-I 0 W/m 19,0 C 25,4 C 12,9 km/h (3 Bft) 100,00 %
05.08.2017 22:20 25,8 C 28,3 C 67 % 1013,2 hPa 0,0 l/m 7,5 km/h (2 Bft) S-SW 194 0 min 0,000 mm 0,0 UV-I 0 W/m 19,2 C 25,6 C 11,3 km/h (2 Bft) 100,00 %
05.08.2017 22:22 25,7 C 28,3 C 67 % 1013,3 hPa 0,0 l/m 7,5 km/h (2 Bft) S-SO 165 0 min 0,000 mm 0,0 UV-I 0 W/m 19,1 C 25,4 C 14,5 km/h (3 Bft) 98,00 %
05.08.2017 22:24 25,7 C 28,3 C 67 % 1013,3 hPa 0,0 l/m 7,4 km/h (2 Bft) S 175 0 min 0,000 mm 0,0 UV-I 0 W/m 19,1 C 25,5 C 14,5 km/h (3 Bft) 100,00 %
05.08.2017 22:26 25,6 C 28,3 C 67 % 1013,3 hPa 0,0 l/m 8,0 km/h (2 Bft) S-SW 210 0 min 0,000 mm 0,0 UV-I 0 W/m 19,0 C 25,2 C 12,9 km/h (3 Bft) 95,74 %
05.08.2017 22:28 25,6 C 28,3 C 67 % 1013,3 hPa 0,0 l/m 6,5 km/h (2 Bft) S 175 0 min 0,000 mm 0,0 UV-I 0 W/m 19,0 C 25,6 C 11,3 km/h (2 Bft) 100,00 %
05.08.2017 22:30 25,5 C 28,3 C 68 % 1013,3 hPa 0,0 l/m 5,7 km/h (1 Bft) S-SO 167 0 min 0,000 mm 0,0 UV-I 0 W/m 19,1 C 25,5 C 9,7 km/h (2 Bft) 100,00 %
05.08.2017 22:32 25,5 C 28,3 C 68 % 1013,3 hPa 0,0 l/m 5,5 km/h (1 Bft) S-SW 207 0 min 0,000 mm 0,0 UV-I 0 W/m 19,1 C 25,5 C 9,7 km/h (2 Bft) 100,00 %
05.08.2017 22:34 25,4 C 28,3 C 68 % 1013,3 hPa 0,0 l/m 4,7 km/h (1 Bft) S-SW 207 0 min 0,000 mm 0,0 UV-I 0 W/m 19,1 C 25,4 C 9,7 km/h (2 Bft) 100,00 %
05.08.2017 22:36 25,4 C 28,3 C 69 % 1013,3 hPa 0,0 l/m 4,6 km/h (1 Bft) S 178 0 min 0,000 mm 0,0 UV-I 0 W/m 19,3 C 25,4 C 9,7 km/h (2 Bft) 97,87 %
05.08.2017 22:38 25,3 C 28,3 C 69 % 1013,3 hPa 0,0 l/m 5,8 km/h (2 Bft) S 183 0 min 0,000 mm 0,0 UV-I 0 W/m 19,2 C 25,3 C 11,3 km/h (2 Bft) 97,87 %
05.08.2017 22:40 25,3 C 28,3 C 70 % 1013,3 hPa 0,0 l/m 5,5 km/h (1 Bft) S-SW 204 0 min 0,000 mm 0,0 UV-I 0 W/m 19,4 C 25,3 C 8,0 km/h (2 Bft) 100,00 %
05.08.2017 22:43 25,2 C 28,3 C 70 % 1013,1 hPa 0,0 l/m 3,7 km/h (1 Bft) S 188 0 min 0,000 mm 0,0 UV-I 0 W/m 19,3 C 25,2 C 8,0 km/h (2 Bft) 100,00 %
05.08.2017 22:44 25,1 C 28,3 C 70 % 1013,1 hPa 0,0 l/m 6,1 km/h (2 Bft) S-SO 166 0 min 0,000 mm 0,0 UV-I 0 W/m 19,2 C 25,1 C 9,7 km/h (2 Bft) 95,83 %
05.08.2017 22:46 25,1 C 28,3 C 70 % 1013,0 hPa 0,0 l/m 4,6 km/h (1 Bft) S-SO 167 0 min 0,000 mm 0,0 UV-I 0 W/m 19,2 C 25,1 C 8,0 km/h (2 Bft) 100,00 %
05.08.2017 22:48 25,1 C 28,3 C 70 % 1013,0 hPa 0,0 l/m 5,1 km/h (1 Bft) S 173 0 min 0,000 mm 0,0 UV-I 0 W/m 19,2 C 25,1 C 11,3 km/h (2 Bft) 100,00 %
05.08.2017 22:50 25,0 C 28,3 C 71 % 1013,1 hPa 0,0 l/m 5,3 km/h (1 Bft) S 185 0 min 0,000 mm 0,0 UV-I 0 W/m 19,4 C 25,0 C 8,0 km/h (2 Bft) 100,00 %
05.08.2017 22:52 24,9 C 28,3 C 71 % 1013,1 hPa 0,0 l/m 4,7 km/h (1 Bft) S-SO 163 0 min 0,000 mm 0,0 UV-I 0 W/m 19,3 C 24,9 C 9,7 km/h (2 Bft) 100,00 %
05.08.2017 22:54 24,9 C 28,3 C 71 % 1013,1 hPa 0,0 l/m 3,8 km/h (1 Bft) S 186 0 min 0,000 mm 0,0 UV-I 0 W/m 19,3 C 24,9 C 6,4 km/h (2 Bft) 100,00 %
05.08.2017 22:56 24,9 C 28,3 C 71 % 1013,1 hPa 0,0 l/m 3,2 km/h (1 Bft) S 182 0 min 0,000 mm 0,0 UV-I 0 W/m 19,3 C 24,9 C 6,4 km/h (2 Bft) 97,87 %
05.08.2017 22:58 24,8 C 28,3 C 71 % 1013,1 hPa 0,0 l/m 2,9 km/h (1 Bft) S 171 0 min 0,000 mm 0,0 UV-I 0 W/m 19,2 C 24,8 C 6,4 km/h (2 Bft) 97,87 %
05.08.2017 23:00 24,8 C 28,3 C 72 % 1012,9 hPa 0,0 l/m 2,5 km/h (1 Bft) S 175 0 min 0,000 mm 0,0 UV-I 0 W/m 19,4 C 24,8 C 4,8 km/h (1 Bft) 100,00 %
05.08.2017 23:03 24,8 C 28,3 C 71 % 1012,8 hPa 0,0 l/m 2,5 km/h (1 Bft) S-SO 158 0 min 0,025 mm 0,0 UV-I 0 W/m 19,2 C 24,8 C 4,8 km/h (1 Bft) 100,00 %
05.08.2017 23:04 24,8 C 28,3 C 71 % 1012,8 hPa 0,0 l/m 3,2 km/h (1 Bft) S 170 0 min 0,000 mm 0,0 UV-I 0 W/m 19,2 C 24,8 C 6,4 km/h (2 Bft) 100,00 %
05.08.2017 23:06 24,8 C 27,8 C 71 % 1012,7 hPa 0,0 l/m 2,8 km/h (1 Bft) S 173 0 min 0,000 mm 0,0 UV-I 0 W/m 19,2 C 24,8 C 6,4 km/h (2 Bft) 97,87 %
05.08.2017 23:08 24,7 C 28,3 C 72 % 1012,7 hPa 0,0 l/m 3,9 km/h (1 Bft) S 170 0 min 0,000 mm 0,0 UV-I 0 W/m 19,3 C 24,7 C 6,4 km/h (2 Bft) 100,00 %
05.08.2017 23:10 24,7 C 28,3 C 72 % 1012,8 hPa 0,0 l/m 4,5 km/h (1 Bft) S 173 0 min 0,000 mm 0,0 UV-I 0 W/m 19,3 C 24,7 C 6,4 km/h (2 Bft) 97,87 %
05.08.2017 23:12 24,7 C 28,3 C 72 % 1012,8 hPa 0,0 l/m 4,1 km/h (1 Bft) S 175 0 min 0,000 mm 0,0 UV-I 0 W/m 19,3 C 24,7 C 6,4 km/h (2 Bft) 97,14 %
05.08.2017 23:14 24,7 C 27,8 C 72 % 1012,7 hPa 0,0 l/m 4,0 km/h (1 Bft) S-SW 198 0 min 0,000 mm 0,0 UV-I 0 W/m 19,3 C 24,7 C 8,0 km/h (2 Bft) 97,87 %
05.08.2017 23:16 24,6 C 27,8 C 72 % 1012,6 hPa 0,0 l/m 2,8 km/h (1 Bft) S 171 0 min 0,000 mm 0,0 UV-I 0 W/m 19,2 C 24,6 C 6,4 km/h (2 Bft) 97,87 %
05.08.2017 23:18 24,6 C 27,8 C 72 % 1012,6 hPa 0,0 l/m 3,0 km/h (1 Bft) S 169 0 min 0,000 mm 0,0 UV-I 0 W/m 19,2 C 24,6 C 6,4 km/h (2 Bft) 97,92 %
05.08.2017 23:20 24,6 C 27,8 C 72 % 1012,5 hPa 0,0 l/m 2,6 km/h (1 Bft) S-SO 163 0 min 0,000 mm 0,0 UV-I 0 W/m 19,2 C 24,6 C 8,0 km/h (2 Bft) 98,00 %
05.08.2017 23:22 24,6 C 27,8 C 72 % 1012,4 hPa 0,0 l/m 2,6 km/h (1 Bft) S-SO 167 0 min 0,000 mm 0,0 UV-I 0 W/m 19,2 C 24,6 C 4,8 km/h (1 Bft) 97,96 %
05.08.2017 23:24 24,6 C 27,8 C 72 % 1012,5 hPa 0,0 l/m 3,4 km/h (1 Bft) S-SW 195 0 min 0,000 mm 0,0 UV-I 0 W/m 19,2 C 24,6 C 8,0 km/h (2 Bft) 95,83 %
05.08.2017 23:26 24,6 C 27,8 C 73 % 1012,6 hPa 0,0 l/m 5,3 km/h (1 Bft) S-SW 197 0 min 0,000 mm 0,0 UV-I 0 W/m 19,4 C 24,6 C 8,0 km/h (2 Bft) 93,62 %
05.08.2017 23:28 24,5 C 27,8 C 73 % 1012,7 hPa 0,0 l/m 4,6 km/h (1 Bft) SW 215 0 min 0,000 mm 0,0 UV-I 0 W/m 19,3 C 24,5 C 6,4 km/h (2 Bft) 95,74 %
05.08.2017 23:30 24,4 C 27,8 C 74 % 1012,7 hPa 0,0 l/m 5,4 km/h (1 Bft) S-SW 207 0 min 0,000 mm 0,0 UV-I 0 W/m 19,5 C 24,4 C 8,0 km/h (2 Bft) 93,62 %
05.08.2017 23:32 24,4 C 27,8 C 75 % 1012,6 hPa 0,0 l/m 4,3 km/h (1 Bft) S-SW 207 0 min 0,000 mm 0,0 UV-I 0 W/m 19,7 C 24,4 C 6,4 km/h (2 Bft) 95,74 %
05.08.2017 23:34 24,3 C 27,8 C 75 % 1012,6 hPa 0,0 l/m 3,2 km/h (1 Bft) S-SW 198 0 min 0,000 mm 0,0 UV-I 0 W/m 19,6 C 24,3 C 6,4 km/h (2 Bft) 93,62 %
05.08.2017 23:36 24,2 C 27,8 C 76 % 1012,5 hPa 0,0 l/m 4,9 km/h (1 Bft) S 189 0 min 0,000 mm 0,0 UV-I 0 W/m 19,7 C 24,2 C 9,7 km/h (2 Bft) 96,00 %
05.08.2017 23:38 24,1 C 27,8 C 77 % 1012,6 hPa 0,0 l/m 4,4 km/h (1 Bft) S 187 0 min 0,000 mm 0,0 UV-I 0 W/m 19,8 C 24,1 C 6,4 km/h (2 Bft) 95,74 %
05.08.2017 23:40 24,0 C 27,8 C 77 % 1012,6 hPa 0,0 l/m 5,3 km/h (1 Bft) S-SW 205 0 min 0,000 mm 0,0 UV-I 0 W/m 19,7 C 24,0 C 8,0 km/h (2 Bft) 94,29 %
05.08.2017 23:42 23,9 C 27,8 C 77 % 1012,5 hPa 0,0 l/m 5,1 km/h (1 Bft) S-SW 198 0 min 0,000 mm 0,0 UV-I 0 W/m 19,6 C 23,9 C 9,7 km/h (2 Bft) 95,74 %
05.08.2017 23:44 23,8 C 27,8 C 78 % 1012,6 hPa 0,0 l/m 5,5 km/h (1 Bft) S 173 0 min 0,000 mm 0,0 UV-I 0 W/m 19,7 C 23,8 C 11,3 km/h (2 Bft) 95,74 %
05.08.2017 23:46 23,7 C 27,8 C 79 % 1012,5 hPa 0,0 l/m 6,0 km/h (2 Bft) S-SW 199 0 min 0,000 mm 0,0 UV-I 0 W/m 19,8 C 23,7 C 9,7 km/h (2 Bft) 97,87 %
05.08.2017 23:48 23,7 C 27,8 C 79 % 1012,6 hPa 0,0 l/m 4,8 km/h (1 Bft) S-SW 192 0 min 0,000 mm 0,0 UV-I 0 W/m 19,8 C 23,7 C 8,0 km/h (2 Bft) 97,87 %
05.08.2017 23:50 23,6 C 27,8 C 80 % 1012,5 hPa 0,0 l/m 4,3 km/h (1 Bft) SW 216 0 min 0,000 mm 0,0 UV-I 0 W/m 19,9 C 23,6 C 9,7 km/h (2 Bft) 97,87 %
05.08.2017 23:52 23,6 C 27,8 C 80 % 1012,5 hPa 0,0 l/m 4,8 km/h (1 Bft) W-SW 240 0 min 0,000 mm 0,0 UV-I 0 W/m 19,9 C 23,6 C 6,4 km/h (2 Bft) 95,74 %
05.08.2017 23:54 23,4 C 27,8 C 80 % 1012,5 hPa 0,0 l/m 6,0 km/h (2 Bft) W-SW 238 0 min 0,000 mm 0,0 UV-I 0 W/m 19,7 C 23,4 C 8,0 km/h (2 Bft) 97,87 %
05.08.2017 23:56 23,3 C 27,8 C 81 % 1012,5 hPa 0,0 l/m 5,5 km/h (1 Bft) SW 215 0 min 0,000 mm 0,0 UV-I 0 W/m 19,8 C 23,3 C 9,7 km/h (2 Bft) 93,62 %
05.08.2017 23:58 23,3 C 27,8 C 81 % 1012,5 hPa 0,0 l/m 6,7 km/h (2 Bft) S-SW 201 0 min 0,000 mm 0,0 UV-I 0 W/m 19,8 C 23,2 C 9,7 km/h (2 Bft) 97,87 %
_ Min-Zeit 05:56 03:34 16:48 18:40 - 07:04 - - - - - - 10:16 05:56 07:04 00:12
Minimum _ 20,8 C 27,2 C 45 % 1011,2 hPa - 0,0 km/h (0 Bft) - - - - - - 13,2 C 20,8 C 0,0 km/h (0 Bft) 4,76 %
_ Max-Zeit 16:36 15:06 00:42 08:04 00:00 17:00 - - 10:03 15:00 13:40 13:40 00:42 16:36 15:32 00:00
Maximum _ 30,4 C 28,3 C 81 % 1014,4 hPa 0,0 l/m 12,4 km/h
SW (3 Bft)
- - 3 min 0,533 mm 6,6 UV-I 959 W/m 20,3 C 30,4 C 24,1 km/h
S-SW (4 Bft)
100,00 %
Durchschnitt _ 25,1 C 27,7 C 61 % 1013,0 hPa #0,0 l/m 3,3 km/h (1 Bft) W-SW - #7:28 h #4,089 mm 3,1 UV-I 344 W/m 16,8 C 25,1 C 6,1 km/h (2 Bft) 96,76 %